[[{"header":{"parameterUnit":"m.s-1","parameterCategory":1,"la1":31.0,"la2":29.5877,"lo1":-88.7671,"lo2":-86.6584,"dy":0.0162,"dx":0.0185,"nx":115,"ny":88,"refTime":"2026-03-04T12:00:00:Z","depth":0,"parameterNumber":2,"parameterNumberName":"U-component_of_WINDS"},"data":[0.0,0.0,0.0,0.0,0.0,0.0,0.0,0.0,0.0,0.0,0.0,0.0,0.0,0.0,0.0,0.0,0.0,0.0,0.0,0.0,0.0,0.0,0.0,0.0,0.0,0.0,0.0,0.0,0.0,0.0,0.0,0.0,0.0,0.0,0.0,0.0,0.0,0.0,0.0,0.0,0.0,0.0,0.0,0.0,0.0,0.0,0.0,0.0,0.0,0.0,0.0,0.0,0.0,0.0,0.0,0.0,0.0,0.0,0.0,0.0,0.0,0.0,0.0,0.0,0.0,0.0,0.0,0.0,0.0,0.0,0.0,0.0,0.0,0.0,0.0,0.0,0.0,0.0,0.0,0.0,0.0,0.0,0.0,0.0,0.0,0.0,0.0,0.0,0.0,0.0,0.0,0.0,0.0,0.0,0.0,0.0,0.0,0.0,0.0,0.0,0.0,0.0,0.0,0.0,0.0,0.0,0.0,0.0,0.0,0.0,0.0,0.0,0.0,0.0,0.0,0.0,0.0,0.0,0.0,0.0,0.0,0.0,0.0,0.0,0.0,0.0,0.0,0.0,0.0,0.0,0.0,0.0,0.0,0.0,0.0,0.0,0.0,0.0,0.0,0.0,0.0,0.0,0.0,0.0,0.0,0.0,0.0,0.0,0.0,0.0,0.0,0.0,0.0,0.0,0.0,0.0,0.0,0.0,0.0,0.0,0.0,0.0,0.0,0.0,0.0,0.0,0.0,0.0,0.0,0.0,0.0,0.0,0.0,0.0,0.0,0.0,0.0,0.0,0.0,0.0,0.0,0.0,0.0,0.0,0.0,0.0,0.0,0.0,0.0,0.0,0.0,0.0,0.0,0.0,0.0,0.0,0.0,0.0,0.0,0.0,0.0,0.0,0.0,0.0,0.0,0.0,0.0,0.0,0.0,0.0,0.0,0.0,0.0,0.0,0.0,0.0,0.0,0.0,0.0,0.0,0.0,0.0,0.0,0.0,0.0,0.0,0.0,0.0,0.0,0.0,0.0,0.0,0.0,0.0,0.0,0.0,0.0,0.0,0.0,0.0,0.0,0.0,0.0,0.0,0.0,0.0,0.0,0.0,0.0,0.0,0.0,0.0,0.0,0.0,0.0,0.0,0.0,0.0,0.0,0.0,0.0,0.0,0.0,0.0,0.0,0.0,0.0,0.0,0.0,0.0,0.0,0.0,0.0,0.0,0.0,0.0,0.0,0.0,0.0,0.0,0.0,0.0,0.0,0.0,0.0,0.0,0.0,0.0,0.0,0.0,0.0,0.0,0.0,0.0,0.0,0.0,0.0,0.0,0.0,0.0,0.0,0.0,0.0,0.0,0.0,0.0,0.0,0.0,0.0,0.0,0.0,0.0,0.0,0.0,0.0,0.0,0.0,0.0,0.0,0.0,0.0,0.0,0.0,0.0,0.0,0.0,0.0,0.0,0.0,0.0,0.0,0.0,0.0,0.0,0.0,0.0,0.0,0.0,0.0,0.0,0.0,0.0,0.0,0.0,0.0,0.0,0.0,0.0,0.0,0.0,0.0,0.0,0.0,0.0,0.0,0.0,0.0,0.0,0.0,0.0,0.0,0.0,0.0,0.0,0.0,0.0,0.0,0.0,0.0,0.0,0.0,0.0,0.0,0.0,0.0,0.0,0.0,0.0,0.0,0.0,0.0,0.0,0.0,0.0,0.0,0.0,0.0,0.0,0.0,0.0,0.0,0.0,0.0,0.0,0.0,0.0,0.0,0.0,0.0,0.0,0.0,0.0,0.0,0.0,0.0,0.0,0.0,0.0,0.0,0.0,0.0,0.0,0.0,0.0,0.0,0.0,0.0,0.0,0.0,0.0,0.0,0.0,0.0,0.0,0.0,0.0,0.0,0.0,0.0,0.0,0.0,0.0,0.0,0.0,0.0,0.0,0.0,0.0,0.0,0.0,0.0,0.0,0.0,0.0,0.0,0.0,0.0,0.0,0.0,0.0,0.0,0.0,0.0,0.0,0.0,0.0,0.0,0.0,0.0,0.0,0.0,0.0,0.0,0.0,0.0,0.0,0.0,0.0,0.0,0.0,0.0,0.0,0.0,0.0,0.0,0.0,0.0,0.0,0.0,0.0,0.0,0.0,0.0,0.0,0.0,0.0,0.0,0.0,0.0,0.0,0.0,0.0,0.0,0.0,0.0,0.0,0.0,0.0,0.0,0.0,0.0,0.0,0.0,0.0,0.0,0.0,0.0,0.0,0.0,0.0,0.0,0.0,0.0,0.0,0.0,0.0,0.0,0.0,0.0,0.0,0.0,0.0,0.0,0.0,0.0,0.0,0.0,0.0,0.0,0.0,0.0,0.0,0.0,0.0,0.0,0.0,0.0,0.0,0.0,0.0,0.0,0.0,0.0,0.0,0.0,0.0,0.0,0.0,0.0,0.0,0.0,0.0,0.0,0.0,0.0,0.0,0.0,0.0,0.0,0.0,0.0,0.0,0.0,0.0,0.0,0.0,0.0,0.0,0.0,0.0,0.0,0.0,0.0,0.0,0.0,0.0,0.0,0.0,0.0,0.0,0.0,0.0,0.0,0.0,0.0,0.0,0.0,0.0,0.0,0.0,0.0,0.0,0.0,0.0,0.0,0.0,0.0,0.0,0.0,0.0,0.0,0.0,0.0,0.0,0.0,0.0,0.0,0.0,0.0,0.0,0.0,0.0,0.0,0.0,0.0,0.0,0.0,0.0,0.0,0.0,0.0,0.0,0.0,0.0,0.0,0.0,0.0,0.0,0.0,0.0,0.0,0.0,0.0,0.0,0.0,0.0,0.0,0.0,0.0,0.0,0.0,0.0,0.0,0.0,0.0,0.0,0.0,0.0,0.0,0.0,0.0,0.0,0.0,0.0,0.0,0.0,0.0,0.0,0.0,0.0,0.0,0.0,0.0,0.0,0.0,0.0,0.0,0.0,0.0,0.0,0.0,0.0,0.0,0.0,0.0,0.0,0.0,0.0,0.0,0.0,0.0,0.0,0.0,0.0,0.0,0.0,0.0,0.0,0.0,0.0,0.0,0.0,0.0,0.0,0.0,0.0,0.0,0.0,0.0,0.0,0.0,0.0,0.0,0.0,0.0,0.0,0.0,0.0,0.0,0.0,0.0,0.0,0.0,0.0,0.0,0.0,0.0,0.0,0.0,0.0,0.0,0.0,0.0,0.0,0.0,0.0,0.0,0.0,0.0,0.0,0.0,0.0,0.0,0.0,0.0,0.0,0.0,0.0,0.0,0.0,0.0,0.0,0.0,0.0,0.0,0.0,0.0,0.0,0.0,0.0,0.0,0.0,0.0,0.0,0.0,0.0,0.0,0.0,0.0,0.0,0.0,0.0,0.0,0.0,0.0,0.0,0.0,0.0,0.0,0.0,0.0,0.0,0.0,0.0,0.0,0.0,0.0,0.0,0.0,0.0,0.0,0.0,0.0,0.0,0.0,0.0,0.0,0.0,0.0,0.0,0.0,0.0,0.0,0.0,0.0,0.0,0.0,0.0,0.0,0.0,0.0,0.0,0.0,0.0,0.0,0.0,0.0,0.0,0.0,0.0,0.0,0.0,0.0,0.0,0.0,0.0,0.0,0.0,0.0,0.0,0.0,0.0,0.0,0.0,0.0,0.0,0.0,0.0,0.0,0.0,0.0,0.0,0.0,0.0,0.0,0.0,0.0,0.0,0.0,0.0,0.0,0.0,0.0,0.0,0.0,0.0,0.0,0.0,0.0,0.0,0.0,0.0,0.0,0.0,0.0,0.0,0.0,0.0,0.0,0.0,0.0,0.0,0.0,0.0,0.0,0.0,0.0,0.0,0.0,0.0,0.0,0.0,0.0,0.0,0.0,0.0,0.0,0.0,0.0,0.0,0.0,0.0,0.0,0.0,0.0,0.0,0.0,0.0,0.0,0.0,0.0,0.0,0.0,0.0,0.0,0.0,0.0,0.0,0.0,0.0,0.0,0.0,0.0,0.0,0.0,0.0,0.0,0.0,0.0,0.0,0.0,0.0,0.0,0.0,0.0,0.0,0.0,0.0,0.0,0.0,0.0,0.0,0.0,0.0,0.0,0.0,0.0,0.0,0.0,0.0,0.0,0.0,0.0,0.0,0.0,0.0,0.0,0.0,0.0,0.0,0.0,0.0,0.0,0.0,0.0,0.0,0.0,0.0,0.0,0.0,0.0,0.0,0.0,0.0,0.0,0.0,0.0,0.0,0.0,0.0,0.0,0.0,0.0,0.0,0.0,0.0,-0.9698,0.0,0.0,0.0,0.0,0.0,0.0,0.0,0.0,0.0,0.0,0.0,0.0,0.0,0.0,0.0,0.0,0.0,0.0,0.0,0.0,0.0,0.0,0.0,0.0,0.0,0.0,0.0,0.0,0.0,0.0,0.0,0.0,0.0,0.0,0.0,0.0,0.0,0.0,0.0,0.0,0.0,0.0,0.0,0.0,0.0,0.0,0.0,0.0,0.0,0.0,0.0,0.0,0.0,0.0,0.0,0.0,0.0,0.0,0.0,0.0,0.0,0.0,0.0,0.0,0.0,0.0,0.0,0.0,0.0,0.0,0.0,0.0,0.0,0.0,0.0,0.0,0.0,0.0,0.0,0.0,0.0,0.0,0.0,0.0,0.0,0.0,0.0,0.0,0.0,0.0,0.0,0.0,0.0,0.0,0.0,0.0,0.0,0.0,0.0,0.0,0.0,0.0,0.0,0.0,0.0,0.0,0.0,0.0,0.0,0.0,-0.9568,-0.9473,-0.9483,-0.9487,-0.9487,0.0,0.0,0.0,0.0,0.0,0.0,0.0,0.0,0.0,0.0,0.0,0.0,0.0,0.0,0.0,0.0,0.0,0.0,0.0,0.0,0.0,0.0,0.0,0.0,0.0,0.0,0.0,0.0,0.0,0.0,0.0,0.0,0.0,0.0,0.0,0.0,0.0,0.0,0.0,0.0,0.0,0.0,0.0,0.0,0.0,0.0,0.0,0.0,0.0,0.0,0.0,0.0,0.0,0.0,0.0,0.0,0.0,0.0,0.0,0.0,0.0,0.0,0.0,0.0,0.0,0.0,0.0,0.0,0.0,0.0,0.0,0.0,0.0,0.0,0.0,0.0,0.0,0.0,0.0,0.0,0.0,0.0,0.0,0.0,0.0,0.0,0.0,0.0,0.0,0.0,0.0,0.0,0.0,0.0,0.0,0.0,0.0,0.0,0.0,0.0,0.0,0.0,0.0,0.0,0.0,0.0,0.0,0.0,0.0,0.0,0.0,0.0,-0.9307,-0.9307,-0.9312,0.0,0.0,0.0,0.0,0.0,0.0,0.0,0.0,0.0,0.0,0.0,0.0,0.0,0.0,0.0,0.0,0.0,0.0,0.0,0.0,0.0,0.0,0.0,0.0,0.0,0.0,0.0,0.0,0.0,0.0,0.0,0.0,0.0,0.0,0.0,0.0,0.0,0.0,0.0,0.0,0.0,0.0,0.0,0.0,0.0,0.0,0.0,0.0,0.0,0.0,0.0,0.0,0.0,0.0,0.0,0.0,0.0,0.0,0.0,0.0,0.0,0.0,0.0,0.0,0.0,0.0,0.0,0.0,0.0,0.0,0.0,0.0,0.0,0.0,0.0,0.0,0.0,0.0,0.0,0.0,0.0,0.0,0.0,0.0,0.0,0.0,0.0,0.0,0.0,0.0,0.0,0.0,0.0,0.0,0.0,0.0,0.0,0.0,0.0,0.0,0.0,0.0,0.0,0.0,0.0,0.0,0.0,0.0,0.0,0.0,-0.9321,-0.9307,-0.9303,0.0,-0.9307,0.0,0.0,0.0,0.0,0.0,0.0,0.0,0.0,0.0,0.0,0.0,0.0,0.0,0.0,0.0,0.0,0.0,0.0,0.0,0.0,0.0,0.0,0.0,0.0,0.0,0.0,0.0,0.0,0.0,0.0,0.0,0.0,0.0,0.0,0.0,0.0,0.0,0.0,0.0,0.0,0.0,0.0,0.0,0.0,0.0,0.0,0.0,0.0,0.0,0.0,0.0,0.0,0.0,0.0,0.0,0.0,0.0,0.0,0.0,0.0,0.0,0.0,0.0,0.0,0.0,0.0,0.0,0.0,0.0,0.0,0.0,0.0,0.0,0.0,0.0,0.0,0.0,0.0,0.0,0.0,0.0,0.0,0.0,0.0,0.0,0.0,0.0,0.0,0.0,0.0,0.0,0.0,0.0,0.0,0.0,0.0,0.0,0.0,0.0,0.0,0.0,0.0,0.0,0.0,0.0,0.0,0.0,0.0,0.0,0.0,0.0,-0.9075,-0.9075,-0.9111,0.0,0.0,0.0,0.0,0.0,0.0,0.0,0.0,0.0,0.0,0.0,0.0,0.0,0.0,0.0,0.0,0.0,0.0,0.0,0.0,0.0,0.0,0.0,0.0,0.0,0.0,0.0,0.0,0.0,0.0,0.0,0.0,0.0,0.0,0.0,0.0,0.0,0.0,0.0,0.0,0.0,0.0,0.0,0.0,0.0,0.0,0.0,0.0,0.0,0.0,0.0,0.0,0.0,0.0,0.0,0.0,0.0,0.0,0.0,0.0,0.0,0.0,0.0,0.0,0.0,0.0,0.0,0.0,0.0,0.0,0.0,0.0,0.0,0.0,0.0,0.0,0.0,0.0,0.0,0.0,0.0,0.0,0.0,0.0,0.0,0.0,0.0,0.0,0.0,0.0,0.0,0.0,0.0,0.0,0.0,0.0,0.0,0.0,0.0,0.0,0.0,0.0,0.0,0.0,0.0,0.0,0.0,0.0,0.0,0.0,-0.9057,0.0,-0.8908,-0.8919,-0.8946,-0.9036,0.0,0.0,0.0,0.0,0.0,0.0,0.0,0.0,0.0,0.0,0.0,0.0,0.0,0.0,0.0,0.0,0.0,0.0,0.0,0.0,0.0,0.0,0.0,0.0,0.0,0.0,0.0,0.0,0.0,0.0,0.0,0.0,0.0,0.0,0.0,0.0,0.0,0.0,0.0,0.0,0.0,0.0,0.0,0.0,0.0,0.0,0.0,0.0,0.0,0.0,0.0,0.0,0.0,0.0,0.0,0.0,0.0,0.0,0.0,0.0,0.0,0.0,0.0,0.0,0.0,0.0,0.0,0.0,0.0,0.0,0.0,0.0,0.0,0.0,0.0,0.0,0.0,0.0,0.0,0.0,0.0,0.0,0.0,0.0,0.0,0.0,0.0,0.0,0.0,0.0,0.0,0.0,0.0,0.0,0.0,0.0,0.0,0.0,0.0,0.0,0.0,0.0,0.0,0.0,0.0,0.0,0.0,0.0,0.0,-0.8979,-0.8908,-0.8919,-0.8919,-0.8919,0.0,0.0,0.0,0.0,0.0,0.0,0.0,0.0,0.0,0.0,0.0,0.0,0.0,0.0,0.0,0.0,0.0,0.0,0.0,0.0,0.0,0.0,0.0,0.0,0.0,0.0,0.0,0.0,0.0,0.0,0.0,0.0,0.0,0.0,0.0,0.0,0.0,0.0,0.0,0.0,0.0,0.0,0.0,0.0,0.0,0.0,0.0,0.0,0.0,0.0,0.0,0.0,0.0,0.0,0.0,0.0,0.0,0.0,0.0,0.0,0.0,0.0,0.0,0.0,0.0,0.0,0.0,0.0,0.0,0.0,0.0,0.0,0.0,0.0,0.0,0.0,0.0,0.0,0.0,0.0,0.0,0.0,0.0,0.0,0.0,0.0,0.0,0.0,0.0,0.0,0.0,0.0,0.0,0.0,0.0,0.0,0.0,0.0,0.0,0.0,0.0,0.0,0.0,0.0,0.0,0.0,0.0,0.0,0.0,-0.8968,-0.8908,-0.8919,-0.8919,-0.8919,-0.8919,0.0,0.0,0.0,0.0,0.0,0.0,0.0,0.0,0.0,0.0,0.0,0.0,0.0,0.0,0.0,0.0,0.0,0.0,0.0,0.0,0.0,0.0,0.0,0.0,0.0,0.0,0.0,0.0,0.0,0.0,0.0,0.0,0.0,0.0,0.0,0.0,0.0,0.0,0.0,0.0,0.0,0.0,0.0,0.0,0.0,0.0,0.0,0.0,0.0,0.0,0.0,0.0,0.0,0.0,0.0,0.0,0.0,0.0,0.0,0.0,0.0,0.0,0.0,0.0,0.0,0.0,0.0,0.0,0.0,0.0,0.0,0.0,0.0,0.0,0.0,0.0,0.0,0.0,0.0,0.0,0.0,0.0,0.0,0.0,0.0,0.0,0.0,0.0,0.0,0.0,0.0,0.0,0.0,0.0,0.0,0.0,0.0,0.0,0.0,0.0,0.0,0.0,0.0,0.0,0.0,0.0,0.0,0.0,0.0,-0.8919,0.0,-0.8919,0.0,-0.8919,-0.8919,0.0,0.0,0.0,0.0,0.0,0.0,0.0,0.0,0.0,0.0,0.0,0.0,0.0,0.0,0.0,0.0,0.0,0.0,0.0,0.0,0.0,0.0,0.0,0.0,0.0,0.0,0.0,0.0,0.0,0.0,0.0,0.0,0.0,0.0,0.0,0.0,0.0,0.0,0.0,0.0,0.0,0.0,0.0,0.0,0.0,0.0,0.0,0.0,0.0,0.0,0.0,0.0,0.0,0.0,0.0,0.0,0.0,0.0,0.0,0.0,0.0,0.0,0.0,0.0,0.0,0.0,0.0,0.0,0.0,0.0,0.0,0.0,0.0,0.0,0.0,0.0,0.0,0.0,0.0,0.0,0.0,0.0,0.0,0.0,0.0,0.0,0.0,0.0,0.0,0.0,0.0,0.0,0.0,0.0,0.0,0.0,0.0,0.0,0.0,0.0,0.0,0.0,0.0,0.0,0.0,0.0,0.0,0.0,-0.8919,-0.8919,-0.8886,-0.888,-0.8897,-0.8886,-0.8891,0.0,0.0,0.0,0.0,0.0,0.0,0.0,0.0,0.0,0.0,0.0,0.0,0.0,0.0,0.0,0.0,0.0,0.0,0.0,0.0,0.0,0.0,0.0,0.0,0.0,0.0,0.0,0.0,0.0,0.0,0.0,0.0,0.0,0.0,0.0,0.0,0.0,0.0,0.0,0.0,0.0,0.0,0.0,0.0,0.0,0.0,0.0,0.0,0.0,0.0,0.0,0.0,0.0,0.0,0.0,0.0,0.0,0.0,0.0,0.0,0.0,0.0,0.0,0.0,0.0,0.0,0.0,0.0,0.0,0.0,0.0,0.0,0.0,0.0,0.0,0.0,0.0,0.0,0.0,0.0,0.0,0.0,0.0,0.0,0.0,0.0,0.0,0.0,0.0,0.0,0.0,0.0,0.0,0.0,0.0,0.0,0.0,0.0,0.0,0.0,0.0,0.0,0.0,0.0,0.0,0.0,0.0,0.0,0.0,-0.8914,-0.8661,-0.8618,-0.8748,-0.8776,-0.876,0.0,0.0,0.0,0.0,0.0,0.0,0.0,0.0,0.0,0.0,0.0,0.0,0.0,0.0,0.0,0.0,0.0,0.0,0.0,0.0,0.0,0.0,0.0,0.0,0.0,0.0,0.0,0.0,0.0,0.0,0.0,0.0,0.0,0.0,0.0,0.0,0.0,0.0,0.0,0.0,0.0,0.0,0.0,0.0,0.0,0.0,0.0,0.0,0.0,0.0,0.0,0.0,0.0,0.0,0.0,0.0,0.0,0.0,0.0,0.0,0.0,0.0,0.0,0.0,0.0,0.0,0.0,0.0,0.0,0.0,0.0,0.0,0.0,0.0,0.0,0.0,0.0,0.0,0.0,0.0,0.0,0.0,0.0,0.0,0.0,0.0,0.0,0.0,0.0,0.0,0.0,0.0,0.0,0.0,0.0,0.0,0.0,0.0,0.0,0.0,0.0,0.0,0.0,0.0,0.0,0.0,0.0,0.0,0.0,-0.8697,-0.8355,-0.8318,-0.8563,-0.8452,-0.847,-0.8705,0.0,0.0,0.0,0.0,0.0,0.0,0.0,0.0,0.0,0.0,0.0,0.0,0.0,0.0,0.0,0.0,0.0,0.0,0.0,0.0,0.0,0.0,0.0,0.0,0.0,0.0,0.0,0.0,0.0,0.0,0.0,0.0,0.0,0.0,0.0,0.0,0.0,0.0,0.0,0.0,0.0,0.0,0.0,0.0,0.0,0.0,0.0,0.0,0.0,0.0,0.0,0.0,0.0,0.0,0.0,0.0,0.0,0.0,0.0,0.0,0.0,0.0,0.0,0.0,0.0,0.0,0.0,0.0,0.0,0.0,0.0,0.0,0.0,0.0,0.0,0.0,0.0,0.0,0.0,0.0,0.0,0.0,0.0,0.0,0.0,0.0,0.0,0.0,0.0,0.0,0.0,0.0,0.0,0.0,0.0,0.0,0.0,0.0,0.0,0.0,0.0,0.0,0.0,0.0,0.0,0.0,0.0,0.0,-0.8393,-0.8,-0.7956,-0.8313,-0.8006,-0.8076,0.0,0.0,0.0,0.0,0.0,0.0,0.0,0.0,0.0,0.0,0.0,0.0,0.0,0.0,0.0,0.0,0.0,0.0,0.0,0.0,0.0,0.0,0.0,0.0,0.0,0.0,0.0,0.0,0.0,0.0,0.0,0.0,0.0,0.0,0.0,0.0,0.0,0.0,0.0,0.0,0.0,0.0,0.0,0.0,0.0,0.0,0.0,0.0,0.0,0.0,0.0,0.0,0.0,0.0,0.0,0.0,0.0,0.0,0.0,0.0,0.0,0.0,0.0,0.0,0.0,0.0,0.0,0.0,0.0,0.0,0.0,0.0,0.0,0.0,0.0,0.0,0.0,0.0,0.0,0.0,0.0,0.0,0.0,0.0,0.0,0.0,0.0,0.0,0.0,0.0,0.0,0.0,0.0,0.0,0.0,0.0,0.0,0.0,0.0,0.0,0.0,0.0,0.0,0.0,0.0,0.0,0.0,0.0,0.0,-0.839,-0.7867,-0.7568,-0.7535,-0.7844,-0.7929,0.0,0.0,0.0,0.0,0.0,0.0,0.0,0.0,0.0,0.0,0.0,0.0,0.0,0.0,0.0,0.0,0.0,0.0,0.0,0.0,0.0,0.0,0.0,0.0,0.0,0.0,0.0,0.0,0.0,0.0,0.0,0.0,0.0,0.0,0.0,0.0,0.0,0.0,0.0,0.0,0.0,0.0,0.0,0.0,0.0,0.0,0.0,0.0,0.0,0.0,0.0,0.0,0.0,0.0,0.0,0.0,0.0,0.0,0.0,0.0,0.0,0.0,0.0,0.0,0.0,0.0,0.0,0.0,0.0,0.0,0.0,0.0,0.0,0.0,0.0,0.0,0.0,0.0,0.0,0.0,0.0,0.0,0.0,0.0,0.0,0.0,0.0,0.0,0.0,0.0,0.0,0.0,0.0,0.0,0.0,0.0,0.0,0.0,0.0,0.0,0.0,0.0,0.0,0.0,0.0,0.0,0.0,0.0,-0.8532,-0.8205,-0.7856,-0.7474,-0.7083,-0.7785,-0.79,0.0,0.0,0.0,0.0,0.0,0.0,0.0,0.0,0.0,0.0,0.0,0.0,0.0,0.0,0.0,0.0,0.0,0.0,0.0,0.0,0.0,0.0,0.0,0.0,0.0,0.0,0.0,0.0,0.0,0.0,0.0,0.0,0.0,0.0,0.0,0.0,0.0,0.0,0.0,0.0,0.0,0.0,0.0,0.0,0.0,0.0,0.0,0.0,0.0,0.0,0.0,0.0,0.0,0.0,0.0,0.0,0.0,0.0,0.0,0.0,0.0,0.0,0.0,0.0,0.0,0.0,0.0,0.0,0.0,0.0,0.0,0.0,0.0,0.0,0.0,0.0,0.0,0.0,0.0,0.0,0.0,0.0,0.0,0.0,0.0,0.0,0.0,0.0,0.0,0.0,0.0,0.0,0.0,0.0,0.0,0.0,0.0,0.0,0.0,0.0,0.0,0.0,0.0,0.0,0.0,0.0,0.0,0.0,-0.8243,-0.792,-0.7913,-0.7612,-0.698,-0.7796,-0.7925,0.0,0.0,0.0,0.0,0.0,0.0,0.0,0.0,0.0,0.0,0.0,0.0,0.0,0.0,0.0,0.0,0.0,0.0,0.0,0.0,0.0,0.0,0.0,0.0,0.0,0.0,0.0,0.0,0.0,0.0,0.0,0.0,0.0,0.0,0.0,0.0,0.0,0.0,0.0,0.0,0.0,0.0,0.0,0.0,0.0,0.0,0.0,0.0,0.0,0.0,0.0,0.0,0.0,0.0,0.0,0.0,0.0,0.0,0.0,0.0,0.0,0.0,0.0,0.0,0.0,0.0,0.0,0.0,0.0,0.0,0.0,0.0,0.0,0.0,0.0,0.0,0.0,0.0,0.0,0.0,0.0,0.0,0.0,0.0,0.0,0.0,0.0,0.0,0.0,0.0,0.0,0.0,0.0,0.0,0.0,0.0,0.0,0.0,0.0,0.0,0.0,0.0,0.0,0.0,0.0,0.0,0.0,0.0,-0.8289,-0.8056,-0.8056,-0.7777,-0.7143,-0.7682,-0.7756,0.0,0.0,0.0,0.0,0.0,0.0,0.0,0.0,0.0,0.0,0.0,0.0,0.0,0.0,0.0,0.0,0.0,0.0,0.0,0.0,0.0,0.0,0.0,0.0,0.0,0.0,0.0,0.0,0.0,0.0,0.0,0.0,0.0,0.0,0.0,0.0,0.0,0.0,0.0,0.0,0.0,0.0,0.0,0.0,0.0,0.0,0.0,0.0,-0.5946,0.0,0.0,0.0,0.0,0.0,0.0,0.0,0.0,0.0,0.0,0.0,0.0,0.0,0.0,0.0,0.0,0.0,0.0,0.0,0.0,0.0,0.0,0.0,0.0,0.0,0.0,0.0,0.0,0.0,0.0,0.0,0.0,0.0,0.0,0.0,0.0,0.0,0.0,0.0,0.0,0.0,0.0,0.0,0.0,0.0,0.0,0.0,0.0,0.0,0.0,0.0,0.0,0.0,0.0,0.0,0.0,0.0,0.0,0.0,-0.8174,-0.8003,-0.8003,-0.785,-0.7542,-0.7473,-0.7309,0.0,0.0,0.0,0.0,0.0,0.0,0.0,0.0,0.0,0.0,0.0,0.0,0.0,0.0,0.0,0.0,0.0,0.0,0.0,0.0,0.0,0.0,0.0,0.0,0.0,0.0,0.0,0.0,0.0,0.0,0.0,0.0,0.0,0.0,0.0,0.0,0.0,0.0,0.0,0.0,0.0,0.0,0.0,0.0,0.0,0.0,0.0,0.0,0.0,0.0,0.0,0.0,0.0,0.0,0.0,0.0,0.0,0.0,0.0,0.0,0.0,0.0,0.0,0.0,0.0,0.0,0.0,0.0,0.0,0.0,0.0,0.0,0.0,0.0,0.0,0.0,0.0,0.0,0.0,0.0,0.0,0.0,0.0,0.0,0.0,0.0,0.0,0.0,0.0,0.0,0.0,0.0,0.0,0.0,0.0,0.0,0.0,0.0,0.0,0.0,0.0,0.0,0.0,0.0,0.0,0.0,0.0,-0.8016,-0.8009,-0.7906,-0.7906,-0.7906,-0.7899,-0.7353,-0.7047,-0.7055,0.0,0.0,0.0,0.0,0.0,0.0,0.0,0.0,0.0,0.0,0.0,0.0,0.0,0.0,0.0,0.0,0.0,0.0,0.0,0.0,0.0,0.0,0.0,0.0,0.0,0.0,0.0,0.0,0.0,0.0,0.0,0.0,0.0,0.0,0.0,0.0,0.0,0.0,-0.5408,-0.6603,0.0,0.0,0.0,0.0,0.0,0.0,0.0,0.0,-0.6596,0.0,0.0,0.0,0.0,0.0,0.0,0.0,0.0,0.0,0.0,0.0,0.0,0.0,0.0,0.0,0.0,0.0,0.0,0.0,0.0,0.0,0.0,0.0,0.0,0.0,0.0,0.0,0.0,0.0,0.0,0.0,0.0,0.0,0.0,0.0,0.0,0.0,0.0,0.0,0.0,0.0,0.0,0.0,0.0,0.0,0.0,0.0,0.0,0.0,0.0,0.0,0.0,0.0,0.0,0.0,0.0,-0.8056,-0.7976,-0.7928,-0.7906,-0.7906,-0.7906,-0.7906,-0.7794,-0.7742,-0.7719,0.0,0.0,0.0,0.0,0.0,0.0,0.0,0.0,0.0,0.0,0.0,0.0,0.0,0.0,0.0,0.0,0.0,0.0,0.0,0.0,0.0,0.0,0.0,0.0,0.0,0.0,0.0,0.0,0.0,0.0,0.0,0.0,0.0,0.0,0.0,0.0,0.0,0.0,0.0,-0.7235,-0.7966,0.0,0.0,0.0,0.0,0.0,0.0,0.0,0.0,-0.6302,0.0,0.0,0.0,0.0,0.0,0.0,0.0,0.0,0.0,0.0,0.0,0.0,0.0,0.0,0.0,0.0,0.0,0.0,0.0,0.0,0.0,0.0,0.0,0.0,0.0,0.0,0.0,0.0,0.0,0.0,0.0,0.0,0.0,0.0,0.0,0.0,0.0,0.0,0.0,0.0,0.0,0.0,0.0,0.0,0.0,0.0,0.0,0.0,0.0,0.0,0.0,0.0,0.0,0.0,0.0,-0.7958,-0.7581,-0.7541,-0.7884,-0.7906,-0.7906,-0.7891,-0.7563,-0.7548,0.0,0.0,0.0,0.0,0.0,0.0,0.0,0.0,0.0,0.0,0.0,0.0,0.0,0.0,0.0,0.0,0.0,0.0,0.0,0.0,0.0,0.0,0.0,0.0,0.0,0.0,0.0,0.0,0.0,0.0,0.0,0.0,0.0,0.0,0.0,0.0,0.0,0.0,0.0,0.0,-0.6902,-0.7357,-0.6615,0.0,0.0,0.0,0.0,0.0,0.0,-0.6488,-0.6144,0.0,0.0,0.0,0.0,0.0,0.0,0.0,0.0,0.0,0.0,0.0,0.0,0.0,0.0,0.0,0.0,0.0,0.0,0.0,0.0,0.0,0.0,0.0,0.0,0.0,0.0,0.0,0.0,0.0,0.0,0.0,0.0,0.0,0.0,0.0,0.0,0.0,0.0,0.0,0.0,0.0,0.0,0.0,0.0,0.0,0.0,0.0,0.0,0.0,0.0,0.0,0.0,0.0,0.0,0.0,-0.7903,-0.7261,-0.7227,-0.7869,-0.7906,-0.7906,-0.7906,-0.7518,-0.7481,0.0,0.0,0.0,0.0,0.0,0.0,0.0,0.0,0.0,0.0,0.0,0.0,0.0,0.0,0.0,0.0,0.0,0.0,0.0,0.0,0.0,0.0,0.0,0.0,0.0,0.0,0.0,0.0,0.0,0.0,0.0,0.0,0.0,0.0,0.0,0.0,0.0,0.0,0.0,0.0,0.0,-0.681,-0.6022,-0.6586,0.0,0.0,0.0,0.0,-0.7605,-0.69,0.0,0.0,0.0,0.0,0.0,0.0,0.0,0.0,0.0,0.0,0.0,0.0,0.0,0.0,0.0,0.0,0.0,0.0,0.0,0.0,0.0,0.0,0.0,0.0,0.0,0.0,0.0,0.0,0.0,0.0,0.0,0.0,0.0,0.0,0.0,0.0,0.0,0.0,0.0,0.0,0.0,0.0,0.0,0.0,0.0,0.0,0.0,0.0,0.0,0.0,0.0,0.0,0.0,0.0,0.0,0.0,-0.8001,-0.7305,-0.7227,-0.7854,-0.7906,-0.7906,-0.7921,-0.8402,-0.8417,0.0,0.0,0.0,0.0,0.0,0.0,0.0,0.0,0.0,0.0,0.0,0.0,0.0,0.0,0.0,0.0,0.0,0.0,0.0,0.0,0.0,0.0,0.0,0.0,0.0,0.0,0.0,0.0,0.0,0.0,0.0,0.0,0.0,0.0,0.0,0.0,0.0,0.0,0.0,0.0,0.0,-0.7316,-0.6073,-0.6987,-0.7584,0.0,0.0,-0.7383,-0.6316,-0.7,0.0,0.0,0.0,0.0,0.0,0.0,0.0,0.0,0.0,0.0,0.0,0.0,0.0,0.0,0.0,0.0,0.0,0.0,0.0,0.0,0.0,0.0,0.0,0.0,0.0,0.0,0.0,0.0,0.0,0.0,0.0,0.0,0.0,0.0,0.0,0.0,0.0,0.0,0.0,0.0,0.0,0.0,0.0,0.0,0.0,0.0,0.0,0.0,0.0,0.0,0.0,0.0,0.0,0.0,0.0,-0.6869,-0.7892,-0.6884,-0.6852,-0.7854,-0.7906,-0.7712,-0.7338,-0.7982,-0.8019,0.0,0.0,0.0,0.0,0.0,0.0,0.0,0.0,0.0,0.0,0.0,0.0,0.0,0.0,0.0,0.0,0.0,0.0,0.0,0.0,0.0,0.0,0.0,0.0,0.0,0.0,0.0,0.0,0.0,0.0,0.0,0.0,0.0,0.0,0.0,0.0,0.0,0.0,0.0,0.0,0.0,0.0,-0.6541,-0.6972,0.0,0.0,0.0,-0.7391,-0.7578,0.0,0.0,0.0,0.0,0.0,0.0,0.0,0.0,0.0,0.0,0.0,0.0,0.0,0.0,0.0,0.0,0.0,0.0,0.0,0.0,0.0,0.0,0.0,0.0,0.0,0.0,0.0,0.0,0.0,0.0,0.0,0.0,0.0,0.0,0.0,0.0,0.0,0.0,0.0,0.0,0.0,0.0,0.0,0.0,0.0,0.0,0.0,0.0,0.0,0.0,0.0,0.0,0.0,0.0,0.0,0.0,0.0,-0.7832,-0.6571,-0.6541,-0.7839,-0.7906,-0.7584,-0.6936,-0.7376,0.0,0.0,0.0,0.0,0.0,0.0,0.0,0.0,0.0,0.0,0.0,0.0,0.0,0.0,0.0,0.0,0.0,0.0,0.0,0.0,0.0,0.0,0.0,0.0,0.0,0.0,0.0,-0.3913,0.0,0.0,0.0,0.0,0.0,0.0,0.0,0.0,0.0,0.0,0.0,0.0,0.0,0.0,-0.7085,-0.6921,-0.7182,-0.7458,0.0,0.0,-0.7637,-0.8274,-0.7286,-0.6676,0.0,0.0,0.0,0.0,0.0,0.0,0.0,0.0,0.0,0.0,0.0,0.0,0.0,0.0,0.0,0.0,0.0,0.0,0.0,0.0,0.0,0.0,0.0,0.0,0.0,0.0,0.0,0.0,0.0,0.0,0.0,0.0,0.0,0.0,0.0,0.0,0.0,0.0,0.0,0.0,0.0,0.0,0.0,0.0,0.0,0.0,0.0,0.0,0.0,0.0,0.0,0.0,0.0,0.0,0.0,-0.7802,-0.658,-0.655,-0.7839,-0.7906,-0.7578,-0.6921,-0.6964,-0.6951,0.0,0.0,0.0,0.0,0.0,0.0,0.0,0.0,0.0,0.0,0.0,0.0,0.0,0.0,0.0,0.0,0.0,0.0,0.0,0.0,0.0,0.0,0.0,0.0,0.0,0.0,0.0,0.0,0.0,0.0,0.0,0.0,0.0,0.0,0.0,0.0,0.0,0.0,0.0,0.0,0.0,-0.7601,-0.6974,-0.7974,-0.8319,0.0,0.0,-0.8364,-0.7227,-0.7451,-0.7584,-0.7062,0.0,0.0,0.0,0.0,0.0,0.0,0.0,0.0,0.0,0.0,0.0,0.0,0.0,0.0,0.0,0.0,0.0,0.0,0.0,0.0,0.0,0.0,0.0,0.0,0.0,0.0,0.0,0.0,0.0,0.0,0.0,0.0,0.0,0.0,0.0,0.0,0.0,0.0,0.0,0.0,0.0,0.0,0.0,0.0,0.0,0.0,0.0,0.0,0.0,0.0,0.0,0.0,0.0,-0.6556,-0.7862,-0.658,-0.655,-0.7839,-0.7906,-0.7571,-0.6912,-0.6891,-0.6891,0.0,0.0,0.0,0.0,0.0,0.0,0.0,0.0,0.0,0.0,0.0,0.0,0.0,0.0,0.0,0.0,0.0,0.0,0.0,0.0,0.0,0.0,0.0,0.0,0.0,0.0,0.0,0.0,-0.4399,-0.4758,-0.4767,0.0,0.0,0.0,0.0,0.0,0.0,0.0,0.0,0.0,0.0,-0.7816,-0.7541,-0.7959,0.0,0.0,-0.8214,-0.8394,-0.8701,-0.7922,-0.7488,-0.8034,-0.7667,0.0,0.0,0.0,0.0,0.0,0.0,0.0,0.0,0.0,0.0,0.0,0.0,0.0,0.0,0.0,0.0,0.0,0.0,0.0,0.0,0.0,0.0,0.0,0.0,0.0,0.0,0.0,0.0,0.0,0.0,0.0,0.0,0.0,0.0,0.0,0.0,0.0,0.0,0.0,0.0,0.0,0.0,0.0,0.0,0.0,0.0,0.0,0.0,0.0,0.0,0.0,0.0,-0.6757,-0.7891,-0.6765,-0.6763,-0.7877,-0.7906,-0.7584,-0.6942,-0.6891,-0.6816,0.0,0.0,0.0,0.0,0.0,0.0,0.0,0.0,0.0,0.0,0.0,0.0,0.0,0.0,0.0,0.0,0.0,0.0,0.0,0.0,0.0,0.0,0.0,0.0,0.0,0.0,0.0,0.0,-0.4981,-0.531,-0.531,0.0,0.0,0.0,0.0,0.0,0.0,0.0,0.0,0.0,0.0,-0.7974,-0.8177,-0.8372,-0.8664,-0.9128,-0.8955,-0.903,-0.9779,-0.8716,-0.8027,-0.8762,0.0,0.0,0.0,0.0,0.0,0.0,0.0,0.0,0.0,0.0,0.0,0.0,0.0,0.0,0.0,0.0,0.0,0.0,0.0,0.0,0.0,0.0,0.0,0.0,0.0,0.0,0.0,0.0,0.0,0.0,-0.7906,0.0,0.0,0.0,0.0,0.0,0.0,0.0,0.0,0.0,0.0,0.0,0.0,0.0,0.0,0.0,0.0,0.0,0.0,0.0,0.0,0.0,0.0,0.0,-0.7891,-0.7197,-0.7212,-0.7884,-0.7906,-0.7599,-0.6951,-0.6891,-0.6607,-0.5948,0.0,0.0,0.0,0.0,0.0,0.0,0.0,0.0,0.0,0.0,0.0,0.0,0.0,0.0,0.0,0.0,0.0,0.0,0.0,0.0,0.0,0.0,0.0,0.0,0.0,0.0,-0.5754,-0.5531,-0.5325,0.0,0.0,0.0,0.0,0.0,0.0,0.0,0.0,0.0,0.0,-0.7906,-0.8147,-0.88,-0.9443,-0.983,-0.9854,-1.0314,-1.0523,-0.998,-0.9845,-0.9623,0.0,0.0,0.0,0.0,0.0,0.0,0.0,0.0,0.0,0.0,0.0,0.0,0.0,0.0,0.0,0.0,0.0,0.0,0.0,0.0,0.0,0.0,0.0,0.0,0.0,0.0,0.0,-0.8978,-0.8589,0.0,0.0,0.0,0.0,0.0,0.0,0.0,0.0,0.0,0.0,0.0,-0.8935,-0.9764,0.0,0.0,0.0,0.0,0.0,0.0,0.0,0.0,0.0,0.0,0.0,0.0,-0.7233,-0.7839,-0.7248,-0.7218,-0.7869,-0.7906,-0.7809,-0.7563,-0.713,-0.6592,-0.5913,0.0,0.0,0.0,0.0,0.0,0.0,0.0,0.0,0.0,0.0,0.0,0.0,0.0,0.0,0.0,0.0,0.0,0.0,0.0,0.0,0.0,0.0,0.0,0.0,0.0,-0.566,0.0,0.0,0.0,0.0,0.0,0.0,0.0,0.0,0.0,0.0,0.0,-0.8567,-0.8574,-0.8949,-0.93,-0.9524,-1.009,-1.0204,0.0,0.0,0.0,0.0,0.0,0.0,0.0,0.0,0.0,0.0,0.0,0.0,0.0,0.0,-1.0767,-0.9458,-0.8679,-0.8177,-0.7959,0.0,0.0,0.0,0.0,0.0,0.0,0.0,0.0,0.0,0.0,0.0,0.0,0.0,0.0,-0.9527,0.0,-0.9065,0.0,0.0,0.0,0.0,0.0,0.0,0.0,0.0,-1.0,-1.0159,-0.9608,-1.0413,-1.0383,0.0,-0.9812,-0.9797,0.0,0.0,0.0,0.0,0.0,0.0,0.0,0.0,-0.7584,-0.8184,-0.7578,-0.7458,-0.7869,-0.7906,-0.7906,-0.7884,-0.7256,-0.6684,-0.6272,-0.6022,-0.6103,0.0,0.0,0.0,0.0,0.0,0.0,0.0,0.0,0.0,0.0,0.0,0.0,0.0,0.0,0.0,0.0,0.0,0.0,0.0,0.0,0.0,0.0,0.0,-0.6496,0.0,0.0,0.0,0.0,0.0,0.0,0.0,0.0,0.0,-0.7241,-0.8222,-0.8972,-0.9227,-0.9428,-0.9878,-1.0797,0.0,0.0,0.0,0.0,0.0,0.0,0.0,-1.1112,-1.17,-1.1231,-1.0723,-1.0538,-1.0852,-1.1077,-1.0842,0.0,0.0,-1.0088,-0.936,-0.8887,-0.891,-0.891,-0.9037,-0.9473,-0.9743,-1.0043,0.0,0.0,0.0,0.0,0.0,0.0,0.0,0.0,-0.9084,-0.9649,0.0,-0.9467,0.0,0.0,0.0,0.0,0.0,0.0,0.0,0.0,-1.0279,-1.0284,-1.0798,-1.0867,-1.0842,-1.0842,-1.1416,-1.1361,-1.0693,-0.9548,0.0,0.0,0.0,0.0,0.0,0.0,-0.8282,-0.8845,-0.8304,-0.7959,-0.7944,-0.7944,-0.7936,-0.7877,-0.7241,-0.6891,-0.6861,-0.6282,-0.5927,-0.5892,-0.5933,0.0,0.0,0.0,0.0,0.0,0.0,0.0,0.0,0.0,0.0,0.0,0.0,0.0,0.0,0.0,0.0,0.0,0.0,0.0,0.0,-0.7511,0.0,0.0,0.0,0.0,0.0,0.0,0.0,0.0,0.0,0.0,-0.7989,-0.8612,-0.9242,-0.9884,0.0,0.0,0.0,0.0,-1.1585,-1.3379,-1.3735,-1.3707,-1.3645,-1.3133,-1.2519,-1.1925,0.0,0.0,-1.0114,-1.0997,-1.1585,-1.0947,-1.0872,-1.1032,-1.163,-1.1091,-1.0658,-1.0663,-1.0588,-1.0723,-1.0812,-1.1091,-1.1595,-1.1679,0.0,0.0,0.0,0.0,-1.1699,-1.1743,-1.1475,-1.1462,-1.115,-1.0663,-1.0592,0.0,0.0,0.0,0.0,0.0,0.0,-1.0618,-1.0852,-1.1595,-1.179,-1.1525,-1.1995,-1.173,-1.0827,-1.1007,-1.0772,-1.0165,-1.0234,-0.9695,-0.8649,0.0,0.0,0.0,0.0,-0.9188,-0.8942,-0.9188,-0.9098,-0.8627,-0.8604,-0.8379,-0.7921,-0.7241,-0.6891,-0.6891,-0.6712,-0.6368,-0.5867,-0.6333,0.0,0.0,0.0,0.0,0.0,0.0,0.0,0.0,0.0,0.0,0.0,0.0,0.0,0.0,0.0,0.0,0.0,0.0,0.0,-0.7533,-0.7787,-0.7809,0.0,0.0,0.0,0.0,0.0,0.0,0.0,0.0,0.0,-0.927,-1.0288,-1.1037,0.0,0.0,-1.2643,-1.3406,-1.3196,-1.281,-1.2433,0.0,0.0,0.0,-1.191,-1.219,-1.246,-1.2355,-1.2175,-1.1995,-1.1891,-1.1745,-1.155,-1.151,-1.158,-1.1685,-1.0907,-1.0224,-1.0159,-1.0159,-1.0299,-1.0718,-1.0972,-1.1231,-1.3306,-1.2653,-1.3261,-1.308,-1.243,-1.2969,-1.2997,-1.2623,-1.2623,-1.2458,-1.2183,-1.1949,-1.1745,-1.1605,-1.1494,0.0,0.0,0.0,-1.1988,-1.2022,-1.2834,-1.2984,-1.2628,-1.3002,-1.2777,-1.1977,-1.1719,-1.1416,-1.1052,-1.1151,-1.0673,-0.9689,0.0,0.0,-0.9082,-0.962,-0.9815,-0.9659,-0.9824,-0.9719,-0.9317,-0.9032,-0.871,-0.8297,-0.7652,-0.7286,-0.7286,-0.7032,-0.6693,-0.6259,-0.6413,-0.6419,0.0,0.0,0.0,0.0,0.0,0.0,0.0,0.0,0.0,0.0,0.0,-0.4971,0.0,0.0,0.0,0.0,-0.6312,-0.7375,-0.7855,-0.8042,0.0,0.0,0.0,0.0,0.0,0.0,0.0,-0.886,-0.9338,-0.9809,-1.0224,-1.1386,-1.21,-1.1835,-1.2284,-1.29,-1.3692,0.0,-1.2912,-1.2643,-1.2942,-1.2912,-1.2123,-1.2119,-1.225,-1.2385,-1.2411,-1.2426,-1.2385,-1.2055,-1.1816,-1.1816,-1.1816,-1.1816,-1.1816,-1.1161,-1.0663,-1.0653,-1.0653,-1.0787,-1.1136,-1.1206,-1.1331,-1.4922,-1.493,-1.5079,-1.4631,-1.384,-1.414,-1.3771,-1.2983,-1.2886,-1.3409,-1.4296,-1.3273,-1.3558,-1.48,-1.4121,0.0,-1.3797,-1.3797,-1.3797,-1.3885,-1.3872,-1.3872,-1.3872,-1.3872,-1.3842,-1.3782,-1.3178,-1.2876,-1.2834,-1.2265,-1.1685,-1.1126,-1.1066,-1.0962,-1.0773,-1.0344,-1.0383,-1.0867,-1.0398,-1.0084,-0.9955,-0.9317,-0.895,-0.8905,-0.8312,-0.7937,-0.7891,-0.7308,-0.6944,-0.6859,-0.6255,-0.616,-0.6719,0.0,0.0,0.0,0.0,0.0,0.0,0.0,0.0,0.0,0.0,0.0,0.0,0.0,0.0,0.0,-0.7236,0.0,-0.7878,-0.8229,0.0,0.0,0.0,-0.8679,-0.8124,-0.8597,-0.9002,-0.9032,0.0,0.0,-1.0872,0.0,-1.2501,-1.188,-1.1361,-1.1694,-1.3555,-1.2747,-1.2314,-1.3423,-1.363,-1.3618,-1.3289,-1.2954,-1.243,-1.1939,-1.1816,-1.1846,-1.1846,-1.1831,-1.1816,-1.1816,-1.1816,-1.1816,-1.1816,-1.1756,-1.1816,-1.1741,-1.1756,-1.1771,-1.1771,-1.1745,-1.1756,-1.5178,-1.4967,-1.5604,-1.5367,-1.4603,-1.4258,-1.4245,-1.4328,-1.3475,-1.3253,-1.3479,-1.3069,-1.3155,-1.3625,-1.3736,-1.3797,-1.3797,-1.3797,-1.4079,-1.4543,-1.4558,-1.4558,-1.4558,-1.4558,-1.4303,-1.3812,-1.3645,-1.357,-1.3543,-1.3393,-1.351,-1.381,-1.3349,-1.2332,-1.0872,-1.1681,-1.1935,-1.1565,-1.192,-1.1621,-1.0613,-0.998,-0.9413,-0.8913,-0.874,-0.8417,-0.7914,-0.7742,-0.7303,-0.6558,-0.6117,-0.5853,-0.576,-0.5846,0.0,0.0,0.0,0.0,0.0,0.0,0.0,0.0,0.0,-0.6353,-0.565,0.0,-0.7437,0.0,-0.7456,-0.7863,-0.7906,-0.799,0.0,0.0,-0.8921,-0.9032,-0.9375,-0.9561,-0.9839,-1.0299,-1.0618,-1.1002,-1.1506,-1.1835,-1.198,-1.1835,-1.2541,-1.3247,-1.3722,-1.3118,-1.2666,-1.2924,-1.2639,-1.2284,-1.2314,-1.2164,-1.201,-1.1835,-1.1816,-1.1816,-1.1816,-1.1816,-1.1816,-1.1816,-1.1816,-1.1816,-1.1805,-1.1816,-1.1816,-1.1816,-1.1816,-1.1816,-1.1816,-1.1816,-1.1816,-1.6323,-1.6368,-1.6797,-1.6753,-1.6277,-1.563,-1.5515,-1.5756,-1.5356,-1.5067,-1.4849,-1.4743,-1.4878,-1.5199,-1.5431,-1.5546,-1.5516,-1.5232,-1.5293,-1.5621,-1.538,-1.5245,-1.5259,-1.5259,-1.505,-1.4677,-1.4393,-1.4244,-1.4214,-1.3932,-1.3976,-1.4333,-1.3976,-1.3379,-1.2631,-1.3032,-1.3062,-1.2703,-1.2759,-1.2295,-1.1271,-1.0613,-1.0114,-0.9764,-0.9473,-0.9165,-0.8799,-0.8791,-0.8391,-0.7548,-0.7044,-0.6771,-0.6737,-0.6766,-0.7012,0.0,0.0,0.0,0.0,0.0,0.0,0.0,0.0,0.0,0.0,0.0,-0.7468,0.0,-0.7708,-0.825,-0.8745,-0.8956,-0.925,-0.9695,-0.9758,-0.9794,-0.989,-1.0129,-1.0424,-1.0753,-1.1062,-1.139,-1.1745,-1.1816,-1.1925,-1.2194,-1.2894,-1.3241,-1.2942,-1.2556,-1.2355,-1.234,-1.2029,-1.1816,-1.1816,-1.1816,-1.1816,-1.1816,-1.1816,-1.1816,-1.1816,-1.207,-1.2149,-1.1895,-1.204,-1.2145,-1.188,-1.1816,-1.1891,-1.2175,-1.2239,-1.2235,-1.225,-1.225,-1.2284,-1.7565,-1.8007,-1.7993,-1.8046,-1.8029,-1.734,-1.7046,-1.7081,-1.7397,-1.7274,-1.687,-1.6904,-1.7173,-1.7617,-1.7666,-1.7699,-1.7652,-1.7084,-1.6846,-1.6801,-1.6278,-1.5994,-1.5919,-1.5919,-1.5873,-1.5784,-1.52,-1.4917,-1.4916,-1.4333,-1.4094,-1.4171,-1.4096,-1.4393,-1.4977,-1.4393,-1.3974,-1.3797,-1.3148,-1.2519,-1.1939,-1.1435,-1.1151,-1.1032,-1.0464,-1.0108,-1.0024,-0.9935,-0.9605,-0.8999,-0.8356,-0.81,-0.8279,-0.8048,-0.7982,0.0,-0.8254,0.0,0.0,0.0,0.0,0.0,0.0,0.0,0.0,-0.7079,-0.7517,-0.7736,-0.8154,-0.8789,-0.9703,-1.0098,-1.0369,-1.0594,-1.0688,-1.0549,-1.0114,-1.0553,-1.0932,-1.0927,-1.151,-1.1925,-1.1965,-1.1999,-1.2299,-1.2831,-1.2984,-1.2879,-1.2254,-1.2194,-1.2209,-1.2059,-1.2059,-1.2209,-1.2179,-1.2134,-1.2145,-1.2104,-1.2164,-1.2059,-1.2145,-1.2553,-1.2771,-1.231,-1.2579,-1.2729,-1.2149,-1.2089,-1.2295,-1.2834,-1.2939,-1.2924,-1.2924,-1.2924,-1.3118,-1.7353,-1.7442,-1.7463,-1.7706,-1.8078,-1.7935,-1.7876,-1.7807,-1.705,-1.6666,-1.6596,-1.6921,-1.7122,-1.724,-1.7537,-1.7699,-1.7699,-1.7563,-1.7519,-1.7503,-1.74,-1.704,-1.6547,-1.6532,-1.6263,-1.5814,-1.5679,-1.5619,-1.5604,-1.5485,-1.5665,-1.6129,-1.5665,-1.5725,-1.6278,0.0,0.0,0.0,-1.3148,-1.2729,-1.2651,-1.3017,-1.296,-1.243,-1.1786,0.0,-1.0633,-1.0159,-0.9743,-0.9388,-0.8947,0.0,0.0,0.0,0.0,0.0,0.0,0.0,0.0,0.0,0.0,0.0,-0.8013,-0.7978,-0.7426,-0.8212,-0.8733,-0.8681,-0.9213,-0.945,-0.9131,-0.9166,-0.9322,-0.9648,-1.0159,-1.0516,-1.0634,-1.1211,-1.161,-1.1625,-1.222,-1.2594,-1.2639,-1.3077,-1.3451,-1.357,-1.3615,-1.3558,-1.3466,-1.3391,-1.3408,-1.3408,-1.3304,-1.3379,-1.3423,-1.3364,-1.3289,-1.3408,-1.3423,-1.3379,-1.3376,-1.3481,-1.36,-1.3376,-1.3525,-1.3573,-1.3406,-1.3421,-1.3379,-1.3585,-1.3615,-1.3615,-1.3615,-1.3618,-1.3645,-1.847,0.0,-1.899,-1.9312,0.0,-1.9883,-1.9897,-1.9811,-1.8614,-1.8085,-1.8067,-1.8014,-1.8135,-1.8381,-1.8601,-1.8702,-1.8672,-1.8341,-1.8192,-1.8177,-1.7863,-1.7518,-1.7204,-1.7189,-1.7041,-1.6727,-1.6413,-1.6248,-1.6234,-1.5949,-1.5949,-1.6263,-1.5963,-1.5949,-1.6219,-1.5619,-1.4811,-1.3825,-1.3466,-1.2984,-1.2355,-1.2628,-1.2643,-1.2325,0.0,0.0,0.0,0.0,0.0,0.0,0.0,0.0,0.0,0.0,0.0,-0.8919,-0.9245,-0.9177,-0.8608,-0.8967,-0.9015,-0.8542,-0.8847,-0.8784,-0.8185,-0.8609,-0.897,-0.9197,-0.9795,-1.0108,-0.9895,-1.014,-1.0413,-1.0572,-1.0885,-1.1258,-1.1723,-1.2085,-1.2418,-1.2762,-1.3089,-1.3286,-1.3313,-1.3555,-1.3944,-1.4229,-1.4288,-1.4408,-1.4661,-1.4214,-1.3797,-1.3797,-1.3797,-1.3782,-1.3797,-1.3797,-1.3812,-1.3797,-1.3797,-1.3797,-1.3797,-1.4079,-1.4212,-1.3929,-1.4064,-1.4214,-1.3857,-1.3797,-1.3887,-1.4214,-1.4303,-1.4423,-1.4676,-1.4541,-1.4393,-1.9885,-2.0737,-2.0723,-2.1082,-2.1695,-2.16,-2.1615,-2.162,0.0,0.0,0.0,-1.9284,-1.9281,-1.969,-1.9723,-1.9723,-1.9678,-1.9106,-1.8882,-1.8852,-1.8328,-1.7997,-1.7861,-1.7878,-1.7802,-1.7684,-1.7145,-1.6801,-1.6681,-1.6189,-1.5918,-1.5814,-1.5814,-1.5814,-1.5769,-1.5259,-1.4646,-1.3991,-1.3976,-1.3379,-1.2194,-1.228,-1.228,-1.2153,-1.204,-1.1969,-1.1969,-1.1839,-1.1311,-1.0294,-1.0234,-1.0041,-0.9677,-0.9919,-1.0323,-1.0912,-1.0987,-1.0608,-0.977,-1.005,-0.9968,-0.9253,-0.959,-0.96,-0.9059,-0.8999,-0.9263,-0.9856,-1.0449,-1.0901,-1.1137,-1.1626,-1.2,-1.2056,-1.2056,-1.2317,-1.2867,-1.2984,-1.3178,-1.3705,-1.3872,-1.3989,-1.3989,-1.4124,-1.4348,-1.4841,-1.4975,-1.5169,-1.5529,-1.4886,-1.4274,-1.4288,-1.4333,-1.4229,-1.4184,-1.4229,-1.4141,-1.4259,-1.4229,-1.4154,-1.4244,-1.4603,-1.4706,-1.4348,-1.4633,-1.4692,-1.4303,-1.4244,-1.4348,-1.4857,-1.499,-1.514,-1.5604,-1.5365,-1.514,-2.0718,-2.0864,-2.087,-2.1202,-2.166,-2.1208,-2.1283,-2.1635,-2.0902,-2.0554,-2.0509,-1.9871,-1.9621,-1.9708,-1.9723,-1.9723,-1.9693,-1.9603,-1.9573,0.0,-1.9468,-1.9106,-1.8583,-1.8553,-1.8252,-1.7712,-1.7593,-1.7264,-1.6741,-1.6622,-1.6308,-1.5859,-1.5814,-1.5814,-1.5799,-1.5709,-1.532,-1.4663,-1.4661,-1.4288,-1.3543,-1.4079,-1.4094,-1.3528,-1.2954,-1.2666,-1.2654,-1.2104,-1.173,-1.155,-1.1521,-1.126,-1.0659,-1.0634,-1.0402,-0.9807,-0.9768,-0.9483,-0.8961,-0.9408,-0.9921,-1.0418,-1.0872,-1.0847,-1.0222,-1.0158,-1.0539,-1.1451,-1.1813,-1.2116,-1.2478,-1.2583,-1.2769,-1.3018,-1.3085,-1.3247,-1.3608,-1.3663,-1.3722,-1.3899,-1.4318,-1.4648,-1.4692,-1.511,-1.5425,-1.5604,-1.5545,-1.5679,-1.5724,-1.5649,-1.5529,-1.5529,-1.5529,-1.5515,-1.5379,-1.5514,-1.541,-1.5514,-1.5425,-1.5365,-1.535,-1.5455,-1.5529,-1.55,-1.5514,-1.553,-1.5439,-1.5514,-1.5455,-1.5589,-1.5589,-1.5664,-1.5784,-1.5679,-1.5649,-2.1552,-2.1866,-2.1888,-2.2191,-2.2706,-2.2461,-2.2488,-2.2667,-2.2054,-2.1575,-2.1216,-2.0902,-2.0782,-2.0737,-2.0408,-2.0243,-2.0228,-1.9872,-1.9723,-1.9723,-1.9723,-1.9543,-1.9271,-1.9258,-1.9091,-1.8777,-1.8418,-1.8087,-1.7772,-1.7428,-1.6921,-1.6293,-1.5964,-1.5814,-1.5814,-1.5814,-1.5664,-1.535,-1.499,-1.4483,-1.3812,-1.4109,-1.4109,-1.3797,-1.3496,-1.3178,-1.2816,-1.2516,-1.2164,-1.182,-1.1435,-1.1271,-1.1331,-1.1002,-1.0946,-1.126,-1.1289,-1.1355,-1.1468,-1.1723,-1.2025,-1.2368,-1.2569,-1.2587,-1.2276,-1.2086,-1.2244,-1.2865,-1.3011,-1.3141,-1.3326,-1.3353,-1.3391,-1.3548,-1.3561,-1.3775,-1.4219,-1.4348,-1.4468,-1.4841,-1.514,-1.5349,-1.5335,-1.5619,-1.5814,-1.5814,-1.5814,-1.5814,-1.5814,-1.5814,-1.5814,-1.5814,-1.5814,-1.5814,-1.5814,-1.5814,-1.5814,-1.5814,-1.5814,-1.5814,-1.5814,-1.5814,-1.5814,-1.5814,-1.5814,-1.5814,-1.5814,-1.5814,-1.5814,-1.5814,-1.5814,-1.5814,-1.5814,-1.5814,-1.5814,-2.2423,-2.2897,-2.2897,-2.3165,-2.3573,-2.3595,-2.3595,-2.3535,-2.3107,-2.2613,-2.2128,-2.1829,-2.1695,-2.1635,-2.1156,-2.0912,-2.0853,-2.0393,-2.0097,-1.9947,-1.9932,-1.9857,-1.9723,-1.9723,-1.9723,-1.9648,-1.9166,-1.8852,-1.8657,-1.8177,-1.7578,-1.695,-1.6458,-1.6159,-1.6023,-1.6009,-1.5934,-1.5784,-1.529,-1.4677,-1.4064,-1.4021,-1.3961,-1.381,-1.3782,-1.3555,-1.3059,-1.3029,-1.2789,-1.2284,-1.1753,-1.173,-1.2179,-1.1779,-1.1944,-1.2894,-1.3029,-1.3217,-1.3606,-1.3524,-1.3479,-1.3624,-1.3731,-1.3816,-1.3937,-1.3923,-1.3889,-1.4012,-1.4053,-1.4129,-1.4266,-1.4275,-1.4244,-1.4259,-1.4259,-1.4498,-1.4931,-1.502,-1.5214,-1.5724,-1.5814,-1.5799,-1.5814,-1.5814,-1.5814,-1.5814,-1.5814,-1.5814,-1.5814,-1.5814,-1.5814,-1.5814,-1.5814,-1.5814,-1.5814,-1.5814,-1.5814,-1.5814,-1.5814,-1.5814,-1.5814,-1.5814,-1.5814,-1.5814,-1.5814,-1.5814,-1.5814,-1.5814,-1.5814,-1.5814,-1.5814,-1.5814,-1.5814,-1.5814,-1.5814,-2.3428,-2.3508,-2.3486,-2.3551,-2.3595,-2.3595,-2.3595,-2.3595,-2.3535,-2.3475,-2.3251,-2.2218,-2.1739,-2.1695,-2.165,-2.1625,-2.1605,-2.1545,-2.1171,-2.0643,-2.0598,-2.0288,-1.9783,-1.9705,-1.9723,-1.9708,-1.9618,-1.9271,-1.8777,-1.8625,-1.8267,-1.7667,-1.7533,-1.719,-1.6697,-1.6622,-1.6368,-1.5829,-1.5739,-1.538,-1.4766,-1.4721,-1.4421,-1.3812,-1.3812,-1.3782,-1.3707,-1.3705,-1.369,-1.363,-1.3525,-1.354,-1.3588,-1.3528,-1.3558,-1.3677,-1.3707,-1.3621,-1.3365,-1.272,-1.2697,-1.3039,-1.358,-1.3965,-1.4427,-1.5125,-1.5307,-1.4876,-1.4862,-1.5111,-1.5547,-1.5545,-1.547,-1.544,-1.5485,-1.5664,-1.5649,-1.5694,-1.5739,-1.5784,-1.5814,-1.5814,-1.5814,-1.5814,-1.5814,-1.5814,-1.5814,-1.5814,-1.5814,-1.5814,-1.5814,-1.5814,-1.5814,-1.5814,-1.5814,-1.5814,-1.5814,-1.5814,-1.5814,-1.5814,-1.5814,-1.5814,-1.5814,-1.5814,-1.5814,-1.5814,-1.5814,-1.5814,-1.5814,-1.5814,-1.5814,-1.5814,-1.5814,-1.5814,-1.5814,-2.3595,-2.3595,-2.3595,-2.3595,-2.3595,-2.3595,-2.3595,-2.3595,-2.3595,-2.3595,-2.3535,-2.3041,-2.2817,-2.2802,-2.2463,-2.2278,-2.2269,-2.1894,-2.156,-2.1306,-2.1291,-2.0912,-2.0348,-2.0288,-2.0094,-1.9723,-1.9723,-1.9573,-1.9256,-1.8882,-1.8553,-1.8267,-1.7908,-1.7548,-1.7309,-1.7279,-1.6965,-1.6368,-1.6323,-1.6024,-1.547,-1.5394,-1.5274,-1.502,-1.5004,-1.4781,-1.4438,-1.4393,-1.4393,-1.4363,-1.4006,-1.3989,-1.435,-1.4021,-1.3976,-1.4363,-1.4766,-1.4921,-1.478,-1.4485,-1.4428,-1.4629,-1.4834,-1.5038,-1.5241,-1.561,-1.5679,-1.547,-1.5447,-1.561,-1.5785,-1.5814,-1.5814,-1.5814,-1.5814,-1.5814,-1.5814,-1.5814,-1.5814,-1.5814,-1.5814,-1.5814,-1.5814,-1.5814,-1.5814,-1.5814,-1.5814,-1.5814,-1.5814,-1.5814,-1.5814,-1.5814,-1.5814,-1.5814,-1.5814,-1.5814,-1.5814,-1.5814,-1.5814,-1.5814,-1.5814,-1.5814,-1.5814,-1.5814,-1.5814,-1.5814,-1.5814,-1.5814,-1.5814,-1.5814,-1.5814,-1.5814,-1.5814,-1.5814,-1.5814,-2.3595,-2.3595,-2.3595,-2.3595,-2.3595,-2.3595,-2.3595,-2.3595,-2.3595,-2.3595,-2.3595,-2.3595,-2.3595,-2.3535,-2.3137,-2.2942,-2.2882,-2.2443,-2.2113,-2.1979,-2.1964,-2.1605,-2.1017,-2.0976,-2.0722,-2.0292,-2.0064,-1.9869,-1.9678,-1.9226,-1.8972,-1.8897,-1.8476,-1.8147,-1.7997,-1.7983,-1.7637,-1.704,-1.6965,-1.6682,-1.6129,-1.6039,-1.5979,-1.5829,-1.5814,-1.5574,-1.5096,-1.5079,-1.5065,-1.505,-1.4603,-1.4571,-1.5005,-1.4603,-1.4573,-1.5035,-1.55,-1.5814,-1.5814,-1.5697,-1.561,-1.561,-1.561,-1.561,-1.5624,-1.5711,-1.5874,-1.6024,-1.5904,-1.5799,-1.5814,-1.5814,-1.5814,-1.5814,-1.5814,-1.5814,-1.5814,-1.5814,-1.5814,-1.5814,-1.5814,-1.5814,-1.5814,-1.5814,-1.5814,-1.5814,-1.5814,-1.5814,-1.5814,-1.5814,-1.5814,-1.5814,-1.5814,-1.5814,-1.5814,-1.5814,-1.5814,-1.5814,-1.5814,-1.5814,-1.5814,-1.5814,-1.5814,-1.5814,-1.5814,-1.5814,-1.5814,-1.5814,-1.5814,-1.5814,-1.5814,-1.5814,-1.5814,-1.5814,-1.5814,-2.3595,-2.3595,-2.3595,-2.3595,-2.3595,-2.3595,-2.3595,-2.3595,-2.3595,-2.3595,-2.3595,-2.3595,-2.3595,-2.3595,-2.352,-2.3535,-2.352,-2.3445,-2.3131,-2.2688,-2.2658,-2.2313,-2.168,-2.165,-2.162,-2.1395,-2.0902,-2.0348,-1.9765,-1.9693,-1.9663,-1.9633,-1.9543,-1.9256,-1.8747,-1.8642,-1.8328,-1.7727,-1.7669,-1.7324,-1.6756,-1.6667,-1.6398,-1.5964,-1.5814,-1.5769,-1.5724,-1.5739,-1.5739,-1.5754,-1.5649,-1.5694,-1.5739,-1.5694,-1.5664,-1.5739,-1.5784,-1.5814,-1.5755,-1.5448,-1.521,-1.518,-1.524,-1.5194,-1.5386,-1.5669,-1.6114,-1.6622,-1.6248,-1.5948,-1.5933,-1.5888,-1.5814,-1.5814,-1.5814,-1.5814,-1.5814,-1.5814,-1.5814,-1.5814,-1.5814,-1.5814,-1.5814,-1.5814,-1.5814,-1.5814,-1.5814,-1.5814,-1.5814,-1.5814,-1.5814,-1.5814,-1.5814,-1.5814,-1.5814,-1.5814,-1.5814,-1.5814,-1.5814,-1.5814,-1.5814,-1.5814,-1.5814,-1.5814,-1.5814,-1.5814,-1.5814,-1.5814,-1.5814,-1.5814,-1.5814,-1.5814,-1.5814,-1.5814,-1.5814,-2.3595,-2.3595,-2.3595,-2.3595,-2.3595,-2.3595,-2.3595,-2.3595,-2.3595,-2.3595,-2.3595,-2.3595,-2.3595,-2.3595,-2.3595,-2.3595,-2.3595,-2.3595,-2.3475,-2.3266,-2.3251,-2.2957,-2.2403,-2.2328,-2.2084,-2.1695,-2.144,-2.0991,-2.0408,-2.0333,-2.0109,-1.9753,-1.9723,-1.9558,-1.9393,-1.9331,-1.9001,-1.8401,-1.8326,-1.8012,-1.7399,-1.7339,-1.7219,-1.6997,-1.6203,-1.5814,-1.5814,-1.5814,-1.5814,-1.5814,-1.5814,-1.5814,-1.5814,-1.5814,-1.5814,-1.5814,-1.5814,-1.5814,-1.577,-1.5653,-1.5551,-1.5551,-1.5551,-1.5743,-1.6068,-1.6293,-1.6652,-1.7115,-1.7175,-1.7026,-1.6847,-1.6308,-1.5814,-1.5814,-1.5814,-1.5829,-1.5814,-1.5814,-1.5814,-1.5814,-1.5814,-1.5814,-1.5814,-1.5814,-1.5814,-1.5814,-1.5814,-1.5844,-1.5829,-1.5814,-1.5888,-1.5829,-1.5814,-1.5814,-1.5814,-1.5814,-1.5814,-1.5814,-1.5814,-1.5814,-1.5814,-1.5814,-1.5814,-1.5814,-1.5814,-1.5814,-1.5814,-1.5814,-1.5814,-1.5814,-1.5814,-1.5814,-1.5814,-1.5814,-1.5814,-2.3595,-2.3595,-2.3595,-2.3595,-2.3595,-2.3595,-2.3595,-2.3595,-2.3595,-2.3595,-2.3595,-2.3595,-2.3595,-2.3595,-2.3595,-2.3595,-2.3595,-2.3595,-2.3595,-2.3595,-2.3595,-2.337,-2.3026,-2.2987,-2.2763,-2.2338,-2.2099,-2.1665,-2.1092,-2.1002,-2.0658,-2.0064,-2.0019,-1.9917,-1.9753,-1.9723,-1.9438,-1.9076,-1.9034,-1.8687,-1.8117,-1.8027,-1.7908,-1.7624,-1.6862,-1.6413,-1.6413,-1.6413,-1.6428,-1.6398,-1.6204,-1.6009,-1.5844,-1.5814,-1.5814,-1.5829,-1.5994,-1.6099,-1.6129,-1.6278,-1.6428,-1.6428,-1.6443,-1.6623,-1.6965,-1.7009,-1.7354,-1.7787,-1.7772,-1.7743,-1.7758,-1.7056,-1.6428,-1.6368,-1.6233,-1.6084,-1.6084,-1.5933,-1.5829,-1.5814,-1.5814,-1.5814,-1.5814,-1.5814,-1.5904,-1.6024,-1.6084,-1.6144,-1.6353,-1.6413,-1.6428,-1.6398,-1.6263,-1.6189,-1.6189,-1.6219,-1.5994,-1.5934,-1.5978,-1.5933,-1.5963,-1.5933,-1.5904,-1.5873,-1.5829,-1.5814,-1.5814,-1.5814,-1.5814,-1.5814,-1.5814,-1.5814,-1.5814,-1.5814,-1.5844,-2.3595,-2.3595,-2.3595,-2.3595,-2.3595,-2.3595,-2.3595,-2.3595,-2.3595,-2.3595,-2.3595,-2.3595,-2.3595,-2.3595,-2.3595,-2.3595,-2.3595,-2.3595,-2.3595,-2.3595,-2.3595,-2.3595,-2.352,-2.349,-2.349,-2.3385,-2.2957,-2.2358,-2.1724,-2.168,-2.1365,-2.0827,-2.0613,-2.0318,-1.9753,-1.9753,-1.9693,-1.9633,-1.9603,-1.9301,-1.8807,-1.8702,-1.8463,-1.7923,-1.7758,-1.7713,-1.7713,-1.7639,-1.7519,-1.7519,-1.701,-1.6443,-1.6054,-1.5979,-1.5888,-1.6054,-1.6413,-1.6666,-1.6771,-1.7234,-1.7489,-1.7489,-1.7593,-1.7549,-1.7684,-1.7728,-1.7997,-1.8493,-1.8252,-1.8057,-1.8491,-1.8117,-1.7654,-1.7609,-1.7056,-1.6741,-1.6607,-1.6189,-1.5829,-1.5859,-1.5904,-1.5844,-1.5844,-1.6009,-1.6248,-1.6607,-1.6726,-1.6876,-1.728,-1.737,-1.7579,-1.7489,-1.7101,-1.6757,-1.6726,-1.6681,-1.6353,-1.6114,-1.6159,-1.6173,-1.6323,-1.6353,-1.6383,-1.6338,-1.6144,-1.6114,-1.6039,-1.6024,-1.5844,-1.5814,-1.5814,-1.5844,-1.5829,-1.5858,-1.5949,-2.3595,-2.3595,-2.3595,-2.3595,-2.3595,-2.3595,-2.3595,-2.3595,-2.3595,-2.3595,-2.3595,-2.3595,-2.3595,-2.3595,-2.3595,-2.3595,-2.3595,-2.3595,-2.3595,-2.3595,-2.3595,-2.3595,-2.3595,-2.3595,-2.3595,-2.358,-2.3415,-2.3002,-2.2493,-2.2388,-2.2059,-2.144,-2.0927,-2.0598,-2.0393,-1.9944,-1.9723,-1.9723,-1.9723,-1.9588,-1.939,-1.9375,-1.9256,-1.9106,-1.9061,-1.9076,-1.9016,-1.8192,-1.7728,-1.7743,-1.7503,-1.7279,-1.7146,-1.7101,-1.7101,-1.713,-1.728,-1.7384,-1.7399,-1.7578,-1.7758,-1.7728,-1.7728,-1.7953,-1.8311,-1.8403,-1.8687,-1.9271,-1.9181,-1.9181,-1.9286,-1.9211,-1.8687,-1.7787,-1.7503,-1.7384,-1.7264,-1.6817,-1.6473,-1.6428,-1.6428,-1.6428,-1.6518,-1.6712,-1.7086,-1.7325,-1.7399,-1.7549,-1.7684,-1.7848,-1.7699,-1.7654,-1.7429,-1.7399,-1.7384,-1.7399,-1.722,-1.6937,-1.6847,-1.6697,-1.6787,-1.6832,-1.6877,-1.6802,-1.6593,-1.6458,-1.6353,-1.6263,-1.6144,-1.5949,-1.5979,-1.5963,-1.5888,-1.6053,-1.6323,-2.3595,-2.3595,-2.3595,-2.3595,-2.3595,-2.3595,-2.3595,-2.3595,-2.3595,-2.3595,-2.3595,-2.3595,-2.3595,-2.3595,-2.3595,-2.3595,-2.3595,-2.3595,-2.3595,-2.3595,-2.3595,-2.3595,-2.3595,-2.3595,-2.3595,-2.3595,-2.3595,-2.34,-2.3062,-2.3017,-2.2718,-2.2074,-2.1635,-2.1306,-2.1081,-2.0647,-2.0348,-2.0124,-2.0079,-1.9962,-1.9768,-1.9723,-1.9723,-1.9708,-1.9708,-1.9723,-1.9633,-1.8867,-1.8448,-1.8386,-1.8222,-1.8057,-1.7969,-1.7788,-1.7699,-1.7743,-1.7923,-1.8057,-1.8087,-1.8341,-1.8431,-1.8431,-1.8431,-1.8612,-1.8986,-1.9061,-1.9301,-1.96,-1.9678,-1.9723,-1.9708,-1.9708,-1.9288,-1.8583,-1.8222,-1.7983,-1.7727,-1.7339,-1.7115,-1.707,-1.707,-1.707,-1.7189,-1.7354,-1.7833,-1.7983,-1.8072,-1.8253,-1.8328,-1.8493,-1.8433,-1.8311,-1.8192,-1.8162,-1.8087,-1.8072,-1.8072,-1.7894,-1.7715,-1.7489,-1.74,-1.7385,-1.7414,-1.7355,-1.719,-1.713,-1.7041,-1.6891,-1.6757,-1.6533,-1.6398,-1.6637,-1.6817,-1.6892,-1.7086,-2.3714,-2.3699,-2.367,-2.3699,-2.3699,-2.364,-2.3595,-2.3595,-2.3595,-2.3595,-2.3595,-2.3595,-2.3595,-2.3595,-2.3595,-2.3595,-2.3595,-2.3595,-2.3595,-2.3595,-2.3595,-2.3595,-2.3595,-2.3595,-2.3595,-2.3595,-2.3595,-2.358,-2.349,-2.349,-2.3332,-2.2778,-2.2583,-2.2373,-2.1799,-2.171,-2.1276,-2.0827,-2.0767,-2.0483,-1.9992,-1.9932,-1.9872,-1.9857,-1.9842,-1.9813,-1.9678,-1.9558,-1.9588,-1.9588,-1.9016,-1.8687,-1.845,-1.8059,-1.7953,-1.7997,-1.8448,-1.8687,-1.8882,-1.9184,-1.9513,-1.948,-1.948,-1.9708,-1.9618,-1.9588,-1.9603,-1.9693,-1.9723,-1.9723,-1.9723,-1.9723,-1.9648,-1.9603,-1.9061,-1.8553,-1.7953,-1.7817,-1.7773,-1.7773,-1.7773,-1.7758,-1.7788,-1.7861,-1.8237,-1.8583,-1.8762,-1.8986,-1.9273,-1.9378,-1.9603,-1.9393,-1.8942,-1.8867,-1.8762,-1.8745,-1.8762,-1.8702,-1.8538,-1.8373,-1.8177,-1.8162,-1.8177,-1.8087,-1.7832,-1.7772,-1.7669,-1.7489,-1.7401,-1.7235,-1.734,-1.7639,-1.7684,-1.7624,-1.7758,-2.5076,-2.5031,-2.4545,-2.4335,-2.4261,-2.3834,-2.361,-2.3595,-2.3595,-2.3595,-2.3595,-2.3595,-2.3595,-2.3595,-2.3595,-2.3595,-2.3595,-2.3595,-2.3595,-2.3595,-2.3595,-2.3595,-2.3595,-2.3595,-2.3595,-2.3595,-2.3595,-2.3595,-2.3595,-2.3595,-2.3505,-2.3355,-2.2927,-2.2658,-2.2418,-2.1994,-2.165,-2.147,-2.144,-2.1365,-2.1171,-2.1111,-2.0917,-2.0468,-2.0434,-2.0183,-1.9783,-1.9723,-1.9723,-1.9708,-1.9558,-1.9423,-1.9303,-1.9169,-1.9046,-1.9106,-1.9256,-1.9405,-1.9435,-1.9588,-1.9708,-1.9723,-1.9723,-1.9723,-1.9723,-1.9723,-1.9723,-1.9723,-1.9723,-1.9723,-1.9723,-1.9723,-1.9723,-1.9693,-1.9498,-1.9286,-1.9076,-1.8715,-1.8448,-1.8446,-1.8431,-1.8448,-1.8523,-1.8807,-1.9121,-1.9333,-1.9408,-1.9438,-1.9648,-1.9723,-1.9723,-1.9723,-1.9483,-1.9468,-1.9453,-1.942,-1.942,-1.942,-1.9361,-1.9303,-1.9181,-1.9166,-1.9211,-1.9226,-1.864,-1.8431,-1.8222,-1.8044,-1.7968,-1.7997,-1.7938,-1.8042,-1.8012,-1.7983,-1.8311,-2.56,-2.557,-2.5173,-2.4859,-2.4575,-2.4171,-2.3864,-2.364,-2.3595,-2.3595,-2.3595,-2.3595,-2.3595,-2.3595,-2.3595,-2.3595,-2.3595,-2.3595,-2.3595,-2.3595,-2.3595,-2.3595,-2.3595,-2.3595,-2.3595,-2.3595,-2.3595,-2.3595,-2.3595,-2.3595,-2.3595,-2.3535,-2.3257,-2.3071,-2.3062,-2.2727,-2.2338,-2.2158,-2.2119,-2.2009,-2.1724,-2.1695,-2.153,-2.1171,-2.1111,-2.0812,-2.0228,-2.0124,-2.0004,-1.9779,-1.9708,-1.9723,-1.9723,-1.9723,-1.9723,-1.9723,-1.9723,-1.9708,-1.9723,-1.9723,-1.9723,-1.9723,-1.9723,-1.9723,-1.9723,-1.9723,-1.9723,-1.9723,-1.9723,-1.9723,-1.9723,-1.9723,-1.9723,-1.9708,-1.9723,-1.9723,-1.9723,-1.9331,-1.9169,-1.9121,-1.9121,-1.9121,-1.9121,-1.9483,-1.9648,-1.9693,-1.9648,-1.9663,-1.9723,-1.9723,-1.9723,-1.9723,-1.9723,-1.9648,-1.9618,-1.9603,-1.9585,-1.9648,-1.9663,-1.9708,-1.9723,-1.9723,-1.9678,-1.9558,-1.9271,-1.9046,-1.8837,-1.8732,-1.8837,-1.8792,-1.8568,-1.8538,-1.8627,-1.8523,-1.8852,-2.5794,-2.5809,-2.5749,-2.5337,-2.4874,-2.4649,-2.4231,-2.3789,-2.364,-2.3595,-2.3595,-2.3595,-2.3595,-2.3595,-2.3595,-2.3595,-2.3595,-2.3595,-2.3595,-2.3595,-2.3595,-2.3595,-2.3595,-2.3595,-2.3595,-2.3625,-2.364,-2.3759,-2.3819,-2.3774,-2.3729,-2.3729,-2.3655,-2.3565,-2.3475,-2.349,-2.3266,-2.2882,-2.2778,-2.2583,-2.2218,-2.2113,-2.2024,-2.1829,-2.1605,-2.1365,-2.0946,-2.0782,-2.0572,-1.9962,-1.9813,-1.9723,-1.9723,-1.9723,-1.9723,-1.9723,-1.9723,-1.9723,-1.9723,-1.9723,-1.9723,-1.9723,-1.9723,-1.9723,-1.9723,-1.9723,-1.9723,-1.9723,-1.9723,-1.9723,-1.9723,-1.9723,-1.9723,-1.9723,-1.9723,-1.9723,-1.9723,-1.9723,-1.9723,-1.9723,-1.9693,-1.9708,-1.9723,-1.9723,-1.9723,-1.9723,-1.9723,-1.9723,-1.9723,-1.9723,-1.9723,-1.9723,-1.9723,-1.9723,-1.9708,-1.9708,-1.9693,-1.9708,-1.9693,-1.9723,-1.9723,-1.9723,-1.9723,-1.9618,-1.9435,-1.9435,-1.9483,-1.9498,-1.9513,-1.9468,-1.9166,-1.9378,-1.9603,-1.9333,-1.9423,-2.7165,-2.7136,-2.6602,-2.6303,-2.6019,-2.5053,-2.453,-2.4335,-2.3819,-2.3655,-2.3595,-2.3595,-2.3595,-2.3595,-2.3595,-2.3595,-2.3595,-2.3595,-2.3595,-2.3595,-2.3595,-2.3595,-2.3595,-2.3595,-2.3595,-2.3714,-2.4178,-2.435,-2.435,-2.4291,-2.4365,-2.4291,-2.3819,-2.3595,-2.3595,-2.3595,-2.3565,-2.3415,-2.337,-2.3281,-2.3146,-2.3056,-2.2877,-2.2508,-2.2044,-2.1695,-2.1545,-2.1485,-2.141,-2.1066,-2.0348,-1.9872,-1.9813,-1.9738,-1.9723,-1.9723,-1.9723,-1.9723,-1.9723,-1.9723,-1.9723,-1.9723,-1.9783,-1.9723,-1.9723,-1.9798,-1.9768,-1.9723,-1.9723,-1.9783,-1.9798,-1.9738,-1.9783,-1.9813,-1.9783,-1.9753,-1.9723,-1.9723,-1.9723,-1.9723,-1.9723,-1.9723,-1.9723,-1.9723,-1.9723,-1.9723,-1.9723,-1.9723,-1.9723,-1.9723,-1.9723,-1.9723,-1.9723,-1.9723,-1.9723,-1.9723,-1.9723,-1.9723,-1.9723,-1.9723,-1.9723,-1.9723,-1.9723,-1.9723,-1.9693,-1.9723,-1.9723,-1.9708,-1.9633,-1.9678,-1.9723,-1.9723,-1.9723,-1.9723,-1.9723,-2.7585,-2.7555,-2.7225,-2.6896,-2.6497,-2.5854,-2.5173,-2.4619,-2.4246,-2.3894,-2.364,-2.3595,-2.3595,-2.3595,-2.3595,-2.3595,-2.3595,-2.3595,-2.3595,-2.3595,-2.3595,-2.3595,-2.3595,-2.3595,-2.361,-2.3699,-2.4261,-2.4575,-2.4605,-2.4605,-2.456,-2.4545,-2.3939,-2.3625,-2.3595,-2.3595,-2.3595,-2.358,-2.3595,-2.3595,-2.3595,-2.3595,-2.3505,-2.3161,-2.2742,-2.2473,-2.2209,-2.2179,-2.1979,-2.1625,-2.1041,-2.0468,-2.0157,-1.9869,-1.9738,-1.9723,-1.9723,-1.9723,-1.9723,-1.9723,-1.9723,-1.9753,-1.9977,-2.0124,-2.0273,-2.0423,-2.0438,-2.0258,-2.0183,-2.0168,-2.0168,-2.0168,-2.0168,-2.0168,-2.0154,-2.0034,-1.9798,-1.9723,-1.9723,-1.9723,-1.9723,-1.9723,-1.9723,-1.9798,-1.9768,-1.9798,-1.9798,-1.9798,-1.9723,-1.9723,-1.9723,-1.9723,-1.9723,-1.9723,-1.9723,-1.9723,-1.9723,-1.9723,-1.9723,-1.9723,-1.9723,-1.9723,-1.9723,-1.9723,-1.9723,-1.9723,-1.9723,-1.9723,-1.9723,-1.9723,-1.9723,-1.9723,-1.9723,-1.9723,-1.9723,-2.7585,-2.7585,-2.7585,-2.7255,-2.6791,-2.6602,-2.5869,-2.4859,-2.4649,-2.4171,-2.3684,-2.3595,-2.3595,-2.3595,-2.3595,-2.3595,-2.3595,-2.3595,-2.3595,-2.3595,-2.3595,-2.3595,-2.3595,-2.3595,-2.361,-2.367,-2.4276,-2.4575,-2.4605,-2.4605,-2.4605,-2.4485,-2.3939,-2.3625,-2.3595,-2.3595,-2.3595,-2.3595,-2.3595,-2.3595,-2.3595,-2.3595,-2.3565,-2.3505,-2.3445,-2.3221,-2.2912,-2.2808,-2.2613,-2.2039,-2.1924,-2.156,-2.1036,-2.0408,-2.0007,-2.0067,-2.0187,-2.0232,-2.0262,-2.0172,-2.0142,-2.0019,-2.0498,-2.0827,-2.0972,-2.1201,-2.1216,-2.1036,-2.0857,-2.0857,-2.0853,-2.0857,-2.0782,-2.0673,-2.0658,-2.0378,-1.9902,-1.9723,-1.9723,-1.9738,-1.9902,-2.0004,-1.9974,-2.0004,-1.9932,-1.9887,-1.9902,-1.9932,-1.9902,-1.9962,-2.0127,-2.0157,-2.0232,-2.0124,-2.0109,-2.0094,-2.0049,-2.0187,-2.0097,-2.0052,-2.0037,-2.0064,-2.0094,-1.9768,-1.9723,-1.9768,-1.9753,-1.9723,-1.9723,-1.9723,-1.9723,-1.9723,-1.9723,-1.9723,-1.9768,-2.7585,-2.7585,-2.7585,-2.7525,-2.7345,-2.6826,-2.6168,-2.5412,-2.4859,-2.4216,-2.3655,-2.3595,-2.3595,-2.3595,-2.3595,-2.3595,-2.3595,-2.3595,-2.3595,-2.3595,-2.3595,-2.3595,-2.3595,-2.3595,-2.3595,-2.3789,-2.4216,-2.4515,-2.459,-2.4605,-2.4605,-2.4455,-2.3939,-2.361,-2.3595,-2.3595,-2.3595,-2.3595,-2.3595,-2.3595,-2.3595,-2.3595,-2.3595,-2.3595,-2.3595,-2.352,-2.346,-2.3415,-2.3385,-2.3251,-2.2793,-2.2523,-2.2224,-2.1684,-2.137,-2.119,-2.1141,-2.1115,-2.113,-2.1265,-2.1321,-2.14,-2.1455,-2.1515,-2.1575,-2.1665,-2.1784,-2.162,-2.15,-2.15,-2.153,-2.1455,-2.1216,-2.0932,-2.0658,-2.0419,-1.9899,-1.9723,-1.9723,-1.9738,-2.0034,-2.0348,-2.0273,-2.0303,-2.0408,-2.0363,-2.0318,-2.0546,-2.0711,-2.0812,-2.0991,-2.0961,-2.0902,-2.0752,-2.0569,-2.0587,-2.0617,-2.0917,-2.0932,-2.0857,-2.0812,-2.0707,-2.0543,-2.0318,-2.0052,-1.9977,-1.9917,-1.9842,-1.9738,-1.9753,-1.9738,-1.9753,-1.9753,-1.9813,-2.0019,-2.7585,-2.7585,-2.7585,-2.7585,-2.754,-2.727,-2.6512,-2.5644,-2.5232,-2.4552,-2.3834,-2.3595,-2.3595,-2.3595,-2.3595,-2.3595,-2.3595,-2.3595,-2.3595,-2.3595,-2.3595,-2.3595,-2.3595,-2.3595,-2.3595,-2.3684,-2.3954,-2.4306,-2.4575,-2.4605,-2.4575,-2.444,-2.3939,-2.3595,-2.3595,-2.3595,-2.3595,-2.3595,-2.3595,-2.3595,-2.3595,-2.3595,-2.3595,-2.3595,-2.3595,-2.3595,-2.3595,-2.3595,-2.3595,-2.352,-2.3332,-2.3212,-2.3062,-2.2838,-2.2368,-2.1874,-2.1739,-2.171,-2.171,-2.1695,-2.165,-2.171,-2.1994,-2.2224,-2.2328,-2.2443,-2.2488,-2.2218,-2.1814,-2.1859,-2.2164,-2.1939,-2.156,-2.1261,-2.0932,-2.0393,-1.9899,-1.9753,-1.9723,-1.9783,-2.0213,-2.0468,-2.0498,-2.0602,-2.0838,-2.0853,-2.0752,-2.0991,-2.1306,-2.1261,-2.1261,-2.1051,-2.0857,-2.0827,-2.0752,-2.0902,-2.1231,-2.1605,-2.156,-2.15,-2.147,-2.1321,-2.1186,-2.1021,-2.0756,-2.0681,-2.0318,-2.0333,-2.0064,-1.9887,-2.0094,-2.0198,-1.9962,-1.9947,-2.0198,-2.7585,-2.7585,-2.7585,-2.7585,-2.7585,-2.7585,-2.6836,-2.5779,-2.5585,-2.4822,-2.3714,-2.3595,-2.3595,-2.3595,-2.3595,-2.3595,-2.3595,-2.3595,-2.3595,-2.3595,-2.3595,-2.3595,-2.3595,-2.3595,-2.3595,-2.361,-2.3655,-2.3879,-2.4216,-2.4306,-2.438,-2.4201,-2.3789,-2.3595,-2.3595,-2.3595,-2.3595,-2.3595,-2.3595,-2.3595,-2.3595,-2.3595,-2.3595,-2.3595,-2.3595,-2.3595,-2.3595,-2.3595,-2.3595,-2.3595,-2.3565,-2.3565,-2.358,-2.3595,-2.3116,-2.2293,-2.2084,-2.2069,-2.2113,-2.2158,-2.2278,-2.2308,-2.2643,-2.2823,-2.2957,-2.3131,-2.3325,-2.2862,-2.2517,-2.2353,-2.2718,-2.2278,-2.1889,-2.1545,-2.1066,-2.0464,-1.9944,-1.9723,-1.9723,-1.9929,-2.0374,-2.0434,-2.0333,-2.0917,-2.1166,-2.1006,-2.0887,-2.1111,-2.1335,-2.1021,-2.0917,-2.0703,-2.0598,-2.0662,-2.0782,-2.1096,-2.165,-2.2368,-2.2069,-2.1769,-2.1844,-2.1874,-2.1769,-2.1724,-2.2069,-2.1934,-2.1391,-2.0778,-2.0617,-2.0543,-2.0707,-2.0752,-2.0696,-2.0516,-2.0543,-2.7585,-2.7585,-2.7585,-2.7585,-2.7585,-2.7585,-2.6836,-2.5689,-2.56,-2.4837,-2.361,-2.3595,-2.3595,-2.3595,-2.3595,-2.3595,-2.3595,-2.3595,-2.3595,-2.3595,-2.3595,-2.3595,-2.3595,-2.3595,-2.3595,-2.3595,-2.3595,-2.3625,-2.3797,-2.3812,-2.3774,-2.3729,-2.3729,-2.3595,-2.3595,-2.3595,-2.3595,-2.3595,-2.3595,-2.3595,-2.3595,-2.3595,-2.3595,-2.3595,-2.3595,-2.3595,-2.3595,-2.3595,-2.3595,-2.3595,-2.3595,-2.3595,-2.3595,-2.3595,-2.358,-2.3415,-2.3385,-2.3377,-2.3251,-2.3146,-2.3131,-2.3101,-2.3355,-2.346,-2.3445,-2.3445,-2.3535,-2.3535,-2.3281,-2.3086,-2.3032,-2.2763,-2.2313,-2.1635,-2.0961,-2.0344,-1.9854,-1.9723,-1.9723,-1.9809,-2.0183,-2.0079,-1.9944,-2.0782,-2.144,-2.1201,-2.1066,-2.1216,-2.1291,-2.0961,-2.0587,-2.0393,-2.0378,-2.0438,-2.0857,-2.1156,-2.1814,-2.2787,-2.2517,-2.2069,-2.2203,-2.2323,-2.2443,-2.2503,-2.2847,-2.2547,-2.151,-2.1017,-2.1062,-2.1152,-2.1261,-2.141,-2.1545,-2.1306,-2.0932,-2.7585,-2.7585,-2.7585,-2.7585,-2.7585,-2.7585,-2.6851,-2.5794,-2.5585,-2.4852,-2.3774,-2.3595,-2.3595,-2.3595,-2.3595,-2.3595,-2.3595,-2.3595,-2.3595,-2.3595,-2.3595,-2.3595,-2.3595,-2.3595,-2.3595,-2.3595,-2.3595,-2.3595,-2.3595,-2.3595,-2.3595,-2.3595,-2.3595,-2.3595,-2.3595,-2.3595,-2.3595,-2.3595,-2.3595,-2.3595,-2.3595,-2.3595,-2.3595,-2.3595,-2.3595,-2.3595,-2.3595,-2.3595,-2.3595,-2.3595,-2.3595,-2.3595,-2.3595,-2.3595,-2.3595,-2.358,-2.358,-2.3565,-2.3565,-2.3595,-2.3595,-2.3595,-2.3595,-2.3565,-2.3595,-2.3565,-2.3407,-2.3107,-2.3071,-2.2936,-2.2547,-2.1934,-2.1545,-2.1032,-2.0632,-2.0243,-1.9824,-1.9783,-1.9738,-1.9839,-1.9914,-1.9824,-1.9839,-2.0408,-2.0946,-2.0827,-2.0602,-2.0572,-2.0797,-2.0872,-2.0468,-2.0082,-2.0124,-2.0228,-2.0782,-2.1246,-2.1799,-2.2517,-2.2688,-2.2418,-2.2592,-2.2727,-2.2532,-2.2652,-2.2877,-2.2338,-2.1436,-2.159,-2.1904,-2.1889,-2.1799,-2.1904,-2.1984,-2.1605,-2.1156,-2.7585,-2.7585,-2.7585,-2.7585,-2.7585,-2.7585,-2.6956,-2.5914,-2.5674,-2.4941,-2.4044,-2.3699,-2.3595,-2.3595,-2.3595,-2.3595,-2.3595,-2.3595,-2.3595,-2.3595,-2.3595,-2.3595,-2.3595,-2.3595,-2.3595,-2.3595,-2.3595,-2.3595,-2.3595,-2.3595,-2.3595,-2.3595,-2.3595,-2.3595,-2.3595,-2.3595,-2.3595,-2.3595,-2.3595,-2.3595,-2.3595,-2.3595,-2.3595,-2.3595,-2.3595,-2.3595,-2.3595,-2.3595,-2.3595,-2.3595,-2.3595,-2.3595,-2.3595,-2.3595,-2.3595,-2.3595,-2.3595,-2.3595,-2.3595,-2.3595,-2.3595,-2.3595,-2.3595,-2.3595,-2.3565,-2.3505,-2.3272,-2.2793,-2.2508,-2.2209,-2.1724,-2.1186,-2.0912,-2.0632,-2.0183,-1.9899,-1.9723,-1.9723,-1.9723,-1.9768,-1.9794,-1.9783,-1.9872,-2.0154,-2.0363,-2.0363,-2.0213,-2.0034,-2.0213,-2.0513,-2.0288,-1.9887,-1.9917,-2.0112,-2.0647,-2.1246,-2.1829,-2.2128,-2.2298,-2.2388,-2.2338,-2.2173,-2.1904,-2.2203,-2.2607,-2.2308,-2.153,-2.2158,-2.2763,-2.2523,-2.2343,-2.2358,-2.2283,-2.1844,-2.1186,-2.7585,-2.7585,-2.7585,-2.7585,-2.7585,-2.7585,-2.718,-2.6303,-2.5824,-2.5166,-2.4306,-2.3909,-2.3595,-2.3595,-2.3595,-2.3595,-2.3595,-2.3595,-2.3595,-2.3595,-2.3595,-2.3595,-2.3595,-2.3595,-2.3595,-2.3595,-2.3595,-2.3595,-2.3595,-2.3595,-2.3595,-2.3595,-2.3595,-2.3595,-2.3595,-2.3595,-2.3595,-2.3595,-2.3595,-2.3595,-2.3595,-2.3595,-2.3595,-2.3595,-2.3595,-2.3595,-2.3595,-2.3595,-2.3595,-2.3595,-2.3595,-2.3595,-2.3595,-2.3595,-2.3595,-2.3595,-2.3595,-2.3595,-2.3595,-2.3595,-2.3595,-2.3595,-2.3595,-2.355,-2.343,-2.3017,-2.2763,-2.2508,-2.1979,-2.1714,-2.1395,-2.1141,-2.0583,-2.0363,-2.0019,-1.9857,-1.9723,-1.9723,-1.9723,-1.9723,-1.9723,-1.9723,-1.9723,-1.9974,-2.0034,-2.0034,-2.0019,-1.9872,-1.9842,-2.0019,-1.9962,-1.9753,-1.9753,-1.9989,-2.0513,-2.1006,-2.1335,-2.144,-2.153,-2.1635,-2.1695,-2.1485,-2.135,-2.147,-2.1769,-2.171,-2.1814,-2.2203,-2.2553,-2.2778,-2.2748,-2.2388,-2.1984,-2.147,-2.0767,-2.7585,-2.7585,-2.7585,-2.7585,-2.7585,-2.7585,-2.6961,-2.6063,-2.5704,-2.4948,-2.3999,-2.3729,-2.3595,-2.3595,-2.3595,-2.3595,-2.3595,-2.3595,-2.3595,-2.3595,-2.3595,-2.3595,-2.3595,-2.3595,-2.3595,-2.3595,-2.3595,-2.3595,-2.3595,-2.3595,-2.3595,-2.3595,-2.3595,-2.3595,-2.3595,-2.3595,-2.3595,-2.3595,-2.3595,-2.3595,-2.3595,-2.3595,-2.3595,-2.3595,-2.3595,-2.3595,-2.3595,-2.3595,-2.3595,-2.3595,-2.3595,-2.3595,-2.3595,-2.3595,-2.3595,-2.3595,-2.3595,-2.3595,-2.3595,-2.3595,-2.3595,-2.3595,-2.358,-2.3467,-2.3182,-2.2778,-2.2158,-2.1724,-2.1271,-2.1021,-2.0468,-2.0243,-2.0019,-2.0004,-1.9989,-1.9902,-1.9902,-2.0007,-1.9872,-1.9947,-1.9813,-1.9723,-1.9723,-1.9738,-1.9753,-1.9753,-1.9723,-1.9723,-1.9723,-1.9723,-1.9723,-1.9723,-1.9723,-1.9723,-2.0168,-2.0483,-2.0763,-2.0793,-2.0808,-2.0932,-2.1036,-2.1051,-2.0946,-2.0991,-2.1051,-2.1186,-2.1485,-2.1964,-2.2218,-2.2293,-2.2188,-2.1934,-2.1515,-2.1081,-2.0453,-2.7585,-2.7585,-2.7585,-2.7585,-2.7585,-2.7585,-2.6971,-2.6004,-2.5689,-2.4852,-2.3625,-2.3595,-2.3595,-2.3595,-2.3595,-2.3595,-2.3595,-2.3595,-2.3595,-2.3595,-2.3595,-2.3595,-2.3595,-2.3595,-2.3595,-2.3595,-2.3595,-2.3595,-2.3595,-2.3595,-2.3595,-2.3595,-2.3595,-2.3595,-2.3595,-2.3595,-2.3595,-2.3595,-2.3595,-2.3595,-2.3595,-2.3595,-2.3595,-2.3595,-2.3595,-2.3595,-2.3595,-2.3595,-2.3595,-2.3595,-2.3595,-2.3595,-2.3595,-2.3595,-2.3595,-2.3595,-2.3595,-2.3595,-2.3595,-2.3595,-2.3595,-2.3595,-2.334,-2.3107,-2.2793,-2.2388,-2.15,-2.0972,-2.0583,-2.0288,-1.9899,-2.0154,-2.0438,-2.0617,-2.0707,-2.0647,-2.0636,-2.0666,-2.0363,-2.0183,-2.0064,-2.0019,-1.9753,-1.9768,-1.9798,-1.9768,-1.9723,-1.9723,-1.9723,-1.9723,-1.9723,-1.9723,-1.9723,-1.9723,-1.9768,-2.0049,-2.0288,-2.0258,-2.0273,-2.0318,-2.0393,-2.0453,-2.0408,-2.0303,-2.0441,-2.0722,-2.0872,-2.0991,-2.1335,-2.171,-2.153,-2.1321,-2.1096,-2.0662,-2.0273,-2.7585,-2.7585,-2.7585,-2.7585,-2.7585,-2.7585,-2.7165,-2.6288,-2.5674,-2.4762,-2.367,-2.3595,-2.3595,-2.3595,-2.3595,-2.367,-2.3759,-2.3729,-2.3774,-2.3894,-2.3849,-2.3714,-2.3699,-2.3744,-2.367,-2.3625,-2.361,-2.3595,-2.3595,-2.3759,-2.3714,-2.3714,-2.3767,-2.3684,-2.3625,-2.3595,-2.3595,-2.3595,-2.3595,-2.3595,-2.3595,-2.3595,-2.3595,-2.3595,-2.3595,-2.3595,-2.3595,-2.3595,-2.3595,-2.3595,-2.3595,-2.3595,-2.3595,-2.3595,-2.3595,-2.3595,-2.3595,-2.3595,-2.3595,-2.3595,-2.3595,-2.3565,-2.3295,-2.2942,-2.2508,-2.1804,-2.1141,-2.0972,-2.0498,-2.0363,-2.0438,-2.0718,-2.1021,-2.1186,-2.1276,-2.1306,-2.128,-2.134,-2.1051,-2.0767,-2.0632,-2.0498,-2.0064,-1.9828,-1.9872,-1.9842,-1.9753,-1.9723,-1.9723,-1.9723,-1.9723,-1.9723,-1.9723,-1.9723,-1.9723,-1.9723,-1.9813,-1.9768,-1.9828,-1.9929,-1.9944,-1.9989,-1.9902,-1.9723,-1.9887,-2.0247,-2.0052,-1.9842,-2.0412,-2.0917,-2.0842,-2.0643,-2.0464,-2.0303,-1.9974,-2.7585,-2.7585,-2.7585,-2.7585,-2.7585,-2.7585,-2.6986,-2.5869,-2.4807,-2.4014,-2.367,-2.3595,-2.3595,-2.3595,-2.3684,-2.3864,-2.4216,-2.4291,-2.4365,-2.4822,-2.4477,-2.4634,-2.456,-2.4148,-2.3909,-2.4044,-2.3917,-2.3699,-2.3595,-2.4029,-2.4268,-2.4261,-2.4216,-2.4014,-2.3729,-2.3595,-2.3595,-2.3595,-2.3595,-2.3595,-2.3595,-2.3595,-2.3595,-2.3595,-2.3595,-2.3595,-2.3595,-2.3595,-2.3595,-2.3595,-2.3595,-2.3595,-2.3595,-2.3595,-2.3595,-2.3595,-2.3595,-2.3595,-2.3595,-2.3595,-2.3595,-2.3505,-2.334,-2.3017,-2.2658,-2.2373,-2.1859,-2.1425,-2.1036,-2.1051,-2.1321,-2.1365,-2.1545,-2.1605,-2.1665,-2.1724,-2.1739,-2.1924,-2.1864,-2.153,-2.1321,-2.1261,-2.0961,-2.0587,-2.0513,-2.0288,-2.0213,-1.9842,-1.9738,-1.9723,-1.9723,-1.9723,-1.9723,-1.9723,-1.9723,-1.9723,-1.9723,-1.9738,-1.9738,-1.9783,-1.9753,-1.9723,-1.9723,-1.9723,-1.9723,-1.9723,-1.9723,-1.9738,-1.9857,-2.0064,-2.0168,-2.0198,-2.0094,-1.9989,-1.9842,-2.7585,-2.7585,-2.7585,-2.7585,-2.7555,-2.736,-2.6507,-2.5187,-2.4081,-2.3595,-2.3595,-2.3595,-2.3774,-2.3872,-2.4014,-2.4313,-2.4903,-2.4963,-2.5038,-2.554,-2.5173,-2.5187,-2.5106,-2.4807,-2.4732,-2.4724,-2.4575,-2.4343,-2.4433,-2.4739,-2.4903,-2.4948,-2.4933,-2.4754,-2.4358,-2.4044,-2.3595,-2.3595,-2.3595,-2.3595,-2.3595,-2.3595,-2.3595,-2.3595,-2.3595,-2.3595,-2.3595,-2.3595,-2.3595,-2.3595,-2.3595,-2.3595,-2.3595,-2.3595,-2.3595,-2.3595,-2.3595,-2.3595,-2.3595,-2.3595,-2.3595,-2.358,-2.343,-2.3122,-2.2703,-2.2343,-2.2059,-2.1754,-2.1754,-2.1909,-2.1999,-2.2014,-2.2128,-2.2203,-2.2383,-2.2443,-2.2488,-2.2667,-2.2553,-2.2218,-2.2024,-2.1964,-2.1814,-2.159,-2.1321,-2.1021,-2.0707,-2.0288,-1.9872,-1.9813,-1.9813,-1.9798,-1.9753,-1.9723,-1.9723,-1.9723,-1.9723,-1.9723,-1.9723,-1.9723,-1.9723,-1.9723,-1.9723,-1.9723,-1.9723,-1.9723,-1.9723,-1.9768,-1.9828,-1.9828,-1.9842,-1.9813,-1.9723,-1.9723,-1.9723,-2.7585,-2.7585,-2.7585,-2.7585,-2.748,-2.6896,-2.5839,-2.4605,-2.3872,-2.3595,-2.3595,-2.3595,-2.3909,-2.4455,-2.456,-2.4963,-2.554,-2.563,-2.5779,-2.5779,-2.5749,-2.5794,-2.5749,-2.5555,-2.5435,-2.5501,-2.5412,-2.5151,-2.551,-2.56,-2.563,-2.5644,-2.563,-2.545,-2.5046,-2.4522,-2.4029,-2.4059,-2.3879,-2.3879,-2.3849,-2.3655,-2.361,-2.3595,-2.3595,-2.3595,-2.3595,-2.3595,-2.3595,-2.3595,-2.3595,-2.3595,-2.3595,-2.3595,-2.3595,-2.3595,-2.3595,-2.3595,-2.3595,-2.3595,-2.3595,-2.3535,-2.3161,-2.2853,-2.2703,-2.2553,-2.2353,-2.2239,-2.2209,-2.2418,-2.2583,-2.2748,-2.2897,-2.3086,-2.3325,-2.3385,-2.3385,-2.334,-2.3146,-2.2936,-2.2778,-2.2598,-2.2263,-2.2054,-2.2084,-2.1784,-2.1455,-2.1041,-2.0576,-2.0037,-2.0022,-1.9929,-1.9872,-1.9738,-1.9723,-1.9738,-1.9723,-1.9723,-1.9723,-1.9723,-1.9723,-1.9753,-1.9723,-1.9723,-1.9723,-1.9723,-1.9723,-1.9723,-1.9738,-1.9723,-1.9738,-1.9723,-1.9723,-1.9723,-1.9723,-2.7585,-2.7585,-2.7585,-2.7585,-2.742,-2.6378,-2.5382,-2.4575,-2.3887,-2.3595,-2.3595,-2.3595,-2.3962,-2.4575,-2.4605,-2.5307,-2.5929,-2.6378,-2.6677,-2.6662,-2.6467,-2.6662,-2.6527,-2.6183,-2.6048,-2.6019,-2.5944,-2.5779,-2.5779,-2.6019,-2.6303,-2.6318,-2.6303,-2.6078,-2.5704,-2.5226,-2.5106,-2.4881,-2.4597,-2.4335,-2.4148,-2.3924,-2.3789,-2.3699,-2.3625,-2.361,-2.3595,-2.3595,-2.3595,-2.3595,-2.3595,-2.3595,-2.3595,-2.3595,-2.3595,-2.3595,-2.3595,-2.3595,-2.3595,-2.3595,-2.3595,-2.3595,-2.3385,-2.3385,-2.3266,-2.3071,-2.2892,-2.2802,-2.2772,-2.2981,-2.3071,-2.3206,-2.3295,-2.343,-2.3595,-2.3595,-2.3595,-2.355,-2.337,-2.334,-2.3176,-2.3101,-2.2787,-2.2832,-2.2832,-2.2547,-2.2239,-2.1834,-2.1325,-2.0786,-2.0423,-2.0378,-2.0064,-1.9962,-1.9813,-1.9783,-1.9753,-1.9723,-1.9872,-1.9977,-1.9962,-1.9962,-1.9798,-1.9857,-2.0082,-1.9947,-1.9723,-1.9828,-2.0142,-1.9828,-1.9783,-1.9753,-1.9723,-1.9768,-1.9828,-2.7585,-2.7585,-2.7585,-2.7315,-2.6692,-2.5944,-2.5083,-2.4268,-2.3774,-2.3595,-2.3595,-2.3595,-2.3962,-2.459,-2.4933,-2.5561,-2.6497,-2.6896,-2.7195,-2.724,-2.7165,-2.7255,-2.7091,-2.6866,-2.6791,-2.6716,-2.6647,-2.6557,-2.6437,-2.6662,-2.6976,-2.6976,-2.6976,-2.6761,-2.6537,-2.6422,-2.6422,-2.6048,-2.5615,-2.5128,-2.4739,-2.4373,-2.4096,-2.3954,-2.3849,-2.364,-2.3625,-2.3625,-2.3595,-2.3595,-2.3595,-2.3595,-2.3595,-2.3595,-2.3595,-2.3595,-2.3595,-2.3595,-2.3595,-2.3595,-2.3595,-2.3595,-2.3595,-2.3565,-2.3565,-2.343,-2.343,-2.3415,-2.349,-2.3565,-2.358,-2.3595,-2.358,-2.3595,-2.3595,-2.3595,-2.3595,-2.3595,-2.358,-2.358,-2.355,-2.355,-2.3535,-2.3595,-2.3535,-2.3206,-2.3026,-2.2868,-2.2263,-2.162,-2.1261,-2.1081,-2.0602,-2.0213,-2.0094,-2.0079,-2.0154,-2.0333,-2.0666,-2.0681,-2.0456,-2.0516,-2.0666,-2.0651,-2.0621,-2.0501,-2.0441,-2.0546,-2.0692,-2.0408,-2.0318,-2.0546,-2.0397,-1.9977,-2.0022,-2.7585,-2.7585,-2.7585,-2.6881,-2.5704,-2.56,-2.4866,-2.3655,-2.361,-2.3595,-2.3595,-2.3595,-2.3962,-2.4605,-2.5173,-2.583,-2.6602,-2.7165,-2.7435,-2.7585,-2.7495,-2.754,-2.754,-2.7555,-2.7315,-2.748,-2.748,-2.7195,-2.7435,-2.7465,-2.742,-2.7585,-2.7525,-2.736,-2.7285,-2.727,-2.721,-2.7046,-2.6422,-2.5869,-2.554,-2.5113,-2.4679,-2.4575,-2.4178,-2.3729,-2.3714,-2.367,-2.3595,-2.3595,-2.3595,-2.3595,-2.3595,-2.3595,-2.3595,-2.3595,-2.3595,-2.3595,-2.3595,-2.3595,-2.3595,-2.3595,-2.3595,-2.3595,-2.3595,-2.3595,-2.3595,-2.3595,-2.3595,-2.3595,-2.3595,-2.3595,-2.3595,-2.3595,-2.3595,-2.3595,-2.3595,-2.3595,-2.3595,-2.3595,-2.3595,-2.3595,-2.3595,-2.3595,-2.3595,-2.3535,-2.349,-2.343,-2.3131,-2.2413,-2.2069,-2.1769,-2.1231,-2.0797,-2.0782,-2.0767,-2.0782,-2.0991,-2.1291,-2.137,-2.113,-2.1325,-2.1635,-2.138,-2.113,-2.135,-2.141,-2.1335,-2.1261,-2.1276,-2.1276,-2.1515,-2.125,-2.0636,-2.0516,-2.7585,-2.7585,-2.7585,-2.6836,-2.5674,-2.56,-2.4852,-2.3625,-2.3595,-2.3595,-2.3595,-2.364,-2.3939,-2.456,-2.5277,-2.5959,-2.6557,-2.7225,-2.7525,-2.7585,-2.7585,-2.7585,-2.7585,-2.7585,-2.7585,-2.7585,-2.7585,-2.7585,-2.7585,-2.7585,-2.7585,-2.7585,-2.7585,-2.7585,-2.7585,-2.7585,-2.757,-2.754,-2.724,-2.6647,-2.6303,-2.5794,-2.536,-2.5166,-2.4754,-2.4395,-2.4246,-2.3909,-2.3729,-2.3595,-2.3595,-2.3595,-2.3595,-2.3595,-2.3595,-2.3595,-2.3595,-2.3595,-2.3595,-2.3595,-2.3595,-2.3595,-2.3595,-2.3595,-2.3595,-2.3595,-2.3595,-2.3595,-2.3595,-2.3595,-2.3595,-2.3595,-2.3595,-2.3595,-2.3595,-2.3595,-2.3595,-2.3595,-2.3595,-2.3595,-2.3595,-2.3595,-2.3595,-2.3595,-2.3595,-2.3595,-2.358,-2.355,-2.3535,-2.3101,-2.2787,-2.2428,-2.1859,-2.1515,-2.147,-2.1455,-2.147,-2.1515,-2.1754,-2.1769,-2.1784,-2.1964,-2.2128,-2.1814,-2.162,-2.1934,-2.2009,-2.171,-2.168,-2.1934,-2.1994,-2.2128,-2.1994,-2.1485,-2.141,-2.7585,-2.7585,-2.7585,-2.6811,-2.5749,-2.56,-2.4837,-2.3759,-2.3595,-2.3595,-2.3595,-2.3625,-2.3834,-2.435,-2.5128,-2.5734,-2.6333,-2.7195,-2.7495,-2.7585,-2.7585,-2.7585,-2.7585,-2.7585,-2.7585,-2.7585,-2.7585,-2.7585,-2.7585,-2.7585,-2.7585,-2.7585,-2.7585,-2.7585,-2.7585,-2.7585,-2.7585,-2.7585,-2.7585,-2.736,-2.6956,-2.6437,-2.6063,-2.5854,-2.5472,-2.5128,-2.4948,-2.4657,-2.4582,-2.4358,-2.4298,-2.3834,-2.3729,-2.3595,-2.3595,-2.3595,-2.3595,-2.3595,-2.3595,-2.3573,-2.3551,-2.353,-2.3573,-2.3573,-2.3595,-2.3595,-2.3595,-2.3595,-2.3595,-2.3595,-2.3595,-2.3595,-2.3595,-2.3595,-2.3595,-2.3595,-2.3595,-2.3595,-2.3595,-2.3595,-2.3595,-2.3595,-2.3595,-2.3595,-2.3595,-2.3595,-2.3595,-2.3595,-2.3595,-2.3595,-2.334,-2.3092,-2.2473,-2.2209,-2.2164,-2.2149,-2.2149,-2.2224,-2.2263,-2.2517,-2.2697,-2.2637,-2.2577,-2.2443,-2.2443,-2.2652,-2.2607,-2.2353,-2.2488,-2.2802,-2.2757,-2.2667,-2.2488,-2.2383,-2.2398,-2.7585,-2.7585,-2.7495,-2.6761,-2.5689,-2.5495,-2.4762,-2.3729,-2.3595,-2.3595,-2.3595,-2.3595,-2.3595,-2.4044,-2.4941,-2.536,-2.6019,-2.7106,-2.7495,-2.7585,-2.7585,-2.7585,-2.7585,-2.7585,-2.7585,-2.7585,-2.7585,-2.7585,-2.7585,-2.7585,-2.7585,-2.7585,-2.7585,-2.7585,-2.7585,-2.7585,-2.7585,-2.7585,-2.7585,-2.7585,-2.733,-2.7061,-2.6836,-2.6497,-2.6123,-2.5764,-2.5719,-2.5615,-2.56,-2.5352,-2.4948,-2.4522,-2.4103,-2.3939,-2.3864,-2.3842,-2.3459,-2.3494,-2.353,-2.3443,-2.3443,-2.3443,-2.3501,-2.3486,-2.3443,-2.3341,-2.3341,-2.3465,-2.3465,-2.3573,-2.3573,-2.3595,-2.3595,-2.3595,-2.3595,-2.3595,-2.3595,-2.3595,-2.3595,-2.3595,-2.3595,-2.3595,-2.3595,-2.3595,-2.3595,-2.3595,-2.3595,-2.3595,-2.3595,-2.3595,-2.349,-2.334,-2.3041,-2.2847,-2.2808,-2.2763,-2.2748,-2.2853,-2.2936,-2.3325,-2.352,-2.3251,-2.3176,-2.334,-2.3385,-2.3266,-2.331,-2.3191,-2.34,-2.343,-2.3295,-2.3116,-2.3161,-2.3101,-2.331,-2.7585,-2.754,-2.7006,-2.6318,-2.5576,-2.5038,-2.4321,-2.3684,-2.3595,-2.3595,-2.361,-2.361,-2.3595,-2.3684,-2.5001,-2.5644,-2.5974,-2.7046,-2.748,-2.7585,-2.7585,-2.7585,-2.7585,-2.7585,-2.7585,-2.7585,-2.7585,-2.7585,-2.7585,-2.7585,-2.7585,-2.7585,-2.7585,-2.7585,-2.7585,-2.7585,-2.7585,-2.7585,-2.7585,-2.7585,-2.7585,-2.7435,-2.745,-2.7151,-2.6752,-2.6512,-2.6288,-2.5854,-2.5674,-2.5555,-2.5448,-2.5105,-2.4685,-2.435,-2.4208,-2.3731,-2.3368,-2.3164,-2.3157,-2.3091,-2.3054,-2.3024,-2.3001,-2.286,-2.2711,-2.24,-2.2552,-2.2942,-2.3076,-2.3486,-2.3551,-2.3573,-2.3595,-2.3595,-2.3595,-2.3595,-2.3595,-2.3595,-2.3595,-2.3595,-2.3595,-2.3595,-2.3595,-2.3595,-2.3595,-2.3595,-2.3595,-2.3595,-2.3595,-2.3595,-2.3595,-2.3505,-2.3415,-2.3475,-2.3415,-2.3295,-2.3281,-2.34,-2.346,-2.355,-2.3595,-2.3595,-2.3595,-2.3595,-2.3595,-2.349,-2.358,-2.3595,-2.358,-2.3535,-2.355,-2.352,-2.3595,-2.3595,-2.3595]},{"header":{"parameterUnit":"m.s-1","parameterCategory":1,"la1":31.0,"la2":29.5877,"lo1":-88.7671,"lo2":-86.6584,"dy":0.0162,"dx":0.0185,"nx":115,"ny":88,"refTime":"2026-03-04T12:00:00:Z","depth":0,"parameterNumber":3,"parameterNumberName":"V-component_of_WINDS"},"data":[0.0,0.0,0.0,0.0,0.0,0.0,0.0,0.0,0.0,0.0,0.0,0.0,0.0,0.0,0.0,0.0,0.0,0.0,0.0,0.0,0.0,0.0,0.0,0.0,0.0,0.0,0.0,0.0,0.0,0.0,0.0,0.0,0.0,0.0,0.0,0.0,0.0,0.0,0.0,0.0,0.0,0.0,0.0,0.0,0.0,0.0,0.0,0.0,0.0,0.0,0.0,0.0,0.0,0.0,0.0,0.0,0.0,0.0,0.0,0.0,0.0,0.0,0.0,0.0,0.0,0.0,0.0,0.0,0.0,0.0,0.0,0.0,0.0,0.0,0.0,0.0,0.0,0.0,0.0,0.0,0.0,0.0,0.0,0.0,0.0,0.0,0.0,0.0,0.0,0.0,0.0,0.0,0.0,0.0,0.0,0.0,0.0,0.0,0.0,0.0,0.0,0.0,0.0,0.0,0.0,0.0,0.0,0.0,0.0,0.0,0.0,0.0,0.0,0.0,0.0,0.0,0.0,0.0,0.0,0.0,0.0,0.0,0.0,0.0,0.0,0.0,0.0,0.0,0.0,0.0,0.0,0.0,0.0,0.0,0.0,0.0,0.0,0.0,0.0,0.0,0.0,0.0,0.0,0.0,0.0,0.0,0.0,0.0,0.0,0.0,0.0,0.0,0.0,0.0,0.0,0.0,0.0,0.0,0.0,0.0,0.0,0.0,0.0,0.0,0.0,0.0,0.0,0.0,0.0,0.0,0.0,0.0,0.0,0.0,0.0,0.0,0.0,0.0,0.0,0.0,0.0,0.0,0.0,0.0,0.0,0.0,0.0,0.0,0.0,0.0,0.0,0.0,0.0,0.0,0.0,0.0,0.0,0.0,0.0,0.0,0.0,0.0,0.0,0.0,0.0,0.0,0.0,0.0,0.0,0.0,0.0,0.0,0.0,0.0,0.0,0.0,0.0,0.0,0.0,0.0,0.0,0.0,0.0,0.0,0.0,0.0,0.0,0.0,0.0,0.0,0.0,0.0,0.0,0.0,0.0,0.0,0.0,0.0,0.0,0.0,0.0,0.0,0.0,0.0,0.0,0.0,0.0,0.0,0.0,0.0,0.0,0.0,0.0,0.0,0.0,0.0,0.0,0.0,0.0,0.0,0.0,0.0,0.0,0.0,0.0,0.0,0.0,0.0,0.0,0.0,0.0,0.0,0.0,0.0,0.0,0.0,0.0,0.0,0.0,0.0,0.0,0.0,0.0,0.0,0.0,0.0,0.0,0.0,0.0,0.0,0.0,0.0,0.0,0.0,0.0,0.0,0.0,0.0,0.0,0.0,0.0,0.0,0.0,0.0,0.0,0.0,0.0,0.0,0.0,0.0,0.0,0.0,0.0,0.0,0.0,0.0,0.0,0.0,0.0,0.0,0.0,0.0,0.0,0.0,0.0,0.0,0.0,0.0,0.0,0.0,0.0,0.0,0.0,0.0,0.0,0.0,0.0,0.0,0.0,0.0,0.0,0.0,0.0,0.0,0.0,0.0,0.0,0.0,0.0,0.0,0.0,0.0,0.0,0.0,0.0,0.0,0.0,0.0,0.0,0.0,0.0,0.0,0.0,0.0,0.0,0.0,0.0,0.0,0.0,0.0,0.0,0.0,0.0,0.0,0.0,0.0,0.0,0.0,0.0,0.0,0.0,0.0,0.0,0.0,0.0,0.0,0.0,0.0,0.0,0.0,0.0,0.0,0.0,0.0,0.0,0.0,0.0,0.0,0.0,0.0,0.0,0.0,0.0,0.0,0.0,0.0,0.0,0.0,0.0,0.0,0.0,0.0,0.0,0.0,0.0,0.0,0.0,0.0,0.0,0.0,0.0,0.0,0.0,0.0,0.0,0.0,0.0,0.0,0.0,0.0,0.0,0.0,0.0,0.0,0.0,0.0,0.0,0.0,0.0,0.0,0.0,0.0,0.0,0.0,0.0,0.0,0.0,0.0,0.0,0.0,0.0,0.0,0.0,0.0,0.0,0.0,0.0,0.0,0.0,0.0,0.0,0.0,0.0,0.0,0.0,0.0,0.0,0.0,0.0,0.0,0.0,0.0,0.0,0.0,0.0,0.0,0.0,0.0,0.0,0.0,0.0,0.0,0.0,0.0,0.0,0.0,0.0,0.0,0.0,0.0,0.0,0.0,0.0,0.0,0.0,0.0,0.0,0.0,0.0,0.0,0.0,0.0,0.0,0.0,0.0,0.0,0.0,0.0,0.0,0.0,0.0,0.0,0.0,0.0,0.0,0.0,0.0,0.0,0.0,0.0,0.0,0.0,0.0,0.0,0.0,0.0,0.0,0.0,0.0,0.0,0.0,0.0,0.0,0.0,0.0,0.0,0.0,0.0,0.0,0.0,0.0,0.0,0.0,0.0,0.0,0.0,0.0,0.0,0.0,0.0,0.0,0.0,0.0,0.0,0.0,0.0,0.0,0.0,0.0,0.0,0.0,0.0,0.0,0.0,0.0,0.0,0.0,0.0,0.0,0.0,0.0,0.0,0.0,0.0,0.0,0.0,0.0,0.0,0.0,0.0,0.0,0.0,0.0,0.0,0.0,0.0,0.0,0.0,0.0,0.0,0.0,0.0,0.0,0.0,0.0,0.0,0.0,0.0,0.0,0.0,0.0,0.0,0.0,0.0,0.0,0.0,0.0,0.0,0.0,0.0,0.0,0.0,0.0,0.0,0.0,0.0,0.0,0.0,0.0,0.0,0.0,0.0,0.0,0.0,0.0,0.0,0.0,0.0,0.0,0.0,0.0,0.0,0.0,0.0,0.0,0.0,0.0,0.0,0.0,0.0,0.0,0.0,0.0,0.0,0.0,0.0,0.0,0.0,0.0,0.0,0.0,0.0,0.0,0.0,0.0,0.0,0.0,0.0,0.0,0.0,0.0,0.0,0.0,0.0,0.0,0.0,0.0,0.0,0.0,0.0,0.0,0.0,0.0,0.0,0.0,0.0,0.0,0.0,0.0,0.0,0.0,0.0,0.0,0.0,0.0,0.0,0.0,0.0,0.0,0.0,0.0,0.0,0.0,0.0,0.0,0.0,0.0,0.0,0.0,0.0,0.0,0.0,0.0,0.0,0.0,0.0,0.0,0.0,0.0,0.0,0.0,0.0,0.0,0.0,0.0,0.0,0.0,0.0,0.0,0.0,0.0,0.0,0.0,0.0,0.0,0.0,0.0,0.0,0.0,0.0,0.0,0.0,0.0,0.0,0.0,0.0,0.0,0.0,0.0,0.0,0.0,0.0,0.0,0.0,0.0,0.0,0.0,0.0,0.0,0.0,0.0,0.0,0.0,0.0,0.0,0.0,0.0,0.0,0.0,0.0,0.0,0.0,0.0,0.0,0.0,0.0,0.0,0.0,0.0,0.0,0.0,0.0,0.0,0.0,0.0,0.0,0.0,0.0,0.0,0.0,0.0,0.0,0.0,0.0,0.0,0.0,0.0,0.0,0.0,0.0,0.0,0.0,0.0,0.0,0.0,0.0,0.0,0.0,0.0,0.0,0.0,0.0,0.0,0.0,0.0,0.0,0.0,0.0,0.0,0.0,0.0,0.0,0.0,0.0,0.0,0.0,0.0,0.0,0.0,0.0,0.0,0.0,0.0,0.0,0.0,0.0,0.0,0.0,0.0,0.0,0.0,0.0,0.0,0.0,0.0,0.0,0.0,0.0,0.0,0.0,0.0,0.0,0.0,0.0,0.0,0.0,0.0,0.0,0.0,0.0,0.0,0.0,0.0,0.0,0.0,0.0,0.0,0.0,0.0,0.0,0.0,0.0,0.0,0.0,0.0,0.0,0.0,0.0,0.0,0.0,0.0,0.0,0.0,0.0,0.0,0.0,0.0,0.0,0.0,0.0,0.0,0.0,0.0,0.0,0.0,0.0,0.0,0.0,0.0,0.0,0.0,0.0,0.0,0.0,0.0,0.0,0.0,0.0,0.0,0.0,0.0,0.0,0.0,0.0,0.0,0.0,0.0,0.0,0.0,0.0,0.0,0.0,0.0,0.0,0.0,0.0,0.0,0.0,0.0,0.0,0.0,0.0,0.0,0.0,0.0,0.0,0.0,0.0,0.0,0.0,0.0,0.0,0.0,0.0,0.0,0.0,0.0,0.0,0.0,0.0,0.0,0.0,0.0,0.0,0.0,0.0,0.0,0.0,0.0,0.0,0.0,0.0,0.0,0.0,0.0,0.0,0.0,0.0,0.0,0.0,0.0,0.0,0.0,0.0,0.0,0.0,0.3506,0.0,0.0,0.0,0.0,0.0,0.0,0.0,0.0,0.0,0.0,0.0,0.0,0.0,0.0,0.0,0.0,0.0,0.0,0.0,0.0,0.0,0.0,0.0,0.0,0.0,0.0,0.0,0.0,0.0,0.0,0.0,0.0,0.0,0.0,0.0,0.0,0.0,0.0,0.0,0.0,0.0,0.0,0.0,0.0,0.0,0.0,0.0,0.0,0.0,0.0,0.0,0.0,0.0,0.0,0.0,0.0,0.0,0.0,0.0,0.0,0.0,0.0,0.0,0.0,0.0,0.0,0.0,0.0,0.0,0.0,0.0,0.0,0.0,0.0,0.0,0.0,0.0,0.0,0.0,0.0,0.0,0.0,0.0,0.0,0.0,0.0,0.0,0.0,0.0,0.0,0.0,0.0,0.0,0.0,0.0,0.0,0.0,0.0,0.0,0.0,0.0,0.0,0.0,0.0,0.0,0.0,0.0,0.0,0.0,0.0,0.3793,0.3924,0.3952,0.3942,0.3942,0.0,0.0,0.0,0.0,0.0,0.0,0.0,0.0,0.0,0.0,0.0,0.0,0.0,0.0,0.0,0.0,0.0,0.0,0.0,0.0,0.0,0.0,0.0,0.0,0.0,0.0,0.0,0.0,0.0,0.0,0.0,0.0,0.0,0.0,0.0,0.0,0.0,0.0,0.0,0.0,0.0,0.0,0.0,0.0,0.0,0.0,0.0,0.0,0.0,0.0,0.0,0.0,0.0,0.0,0.0,0.0,0.0,0.0,0.0,0.0,0.0,0.0,0.0,0.0,0.0,0.0,0.0,0.0,0.0,0.0,0.0,0.0,0.0,0.0,0.0,0.0,0.0,0.0,0.0,0.0,0.0,0.0,0.0,0.0,0.0,0.0,0.0,0.0,0.0,0.0,0.0,0.0,0.0,0.0,0.0,0.0,0.0,0.0,0.0,0.0,0.0,0.0,0.0,0.0,0.0,0.0,0.0,0.0,0.0,0.0,0.0,0.0,0.4303,0.4303,0.4293,0.0,0.0,0.0,0.0,0.0,0.0,0.0,0.0,0.0,0.0,0.0,0.0,0.0,0.0,0.0,0.0,0.0,0.0,0.0,0.0,0.0,0.0,0.0,0.0,0.0,0.0,0.0,0.0,0.0,0.0,0.0,0.0,0.0,0.0,0.0,0.0,0.0,0.0,0.0,0.0,0.0,0.0,0.0,0.0,0.0,0.0,0.0,0.0,0.0,0.0,0.0,0.0,0.0,0.0,0.0,0.0,0.0,0.0,0.0,0.0,0.0,0.0,0.0,0.0,0.0,0.0,0.0,0.0,0.0,0.0,0.0,0.0,0.0,0.0,0.0,0.0,0.0,0.0,0.0,0.0,0.0,0.0,0.0,0.0,0.0,0.0,0.0,0.0,0.0,0.0,0.0,0.0,0.0,0.0,0.0,0.0,0.0,0.0,0.0,0.0,0.0,0.0,0.0,0.0,0.0,0.0,0.0,0.0,0.0,0.0,0.4273,0.4303,0.4313,0.0,0.4303,0.0,0.0,0.0,0.0,0.0,0.0,0.0,0.0,0.0,0.0,0.0,0.0,0.0,0.0,0.0,0.0,0.0,0.0,0.0,0.0,0.0,0.0,0.0,0.0,0.0,0.0,0.0,0.0,0.0,0.0,0.0,0.0,0.0,0.0,0.0,0.0,0.0,0.0,0.0,0.0,0.0,0.0,0.0,0.0,0.0,0.0,0.0,0.0,0.0,0.0,0.0,0.0,0.0,0.0,0.0,0.0,0.0,0.0,0.0,0.0,0.0,0.0,0.0,0.0,0.0,0.0,0.0,0.0,0.0,0.0,0.0,0.0,0.0,0.0,0.0,0.0,0.0,0.0,0.0,0.0,0.0,0.0,0.0,0.0,0.0,0.0,0.0,0.0,0.0,0.0,0.0,0.0,0.0,0.0,0.0,0.0,0.0,0.0,0.0,0.0,0.0,0.0,0.0,0.0,0.0,0.0,0.0,0.0,0.0,0.0,0.0,0.4774,0.4774,0.4705,0.0,0.0,0.0,0.0,0.0,0.0,0.0,0.0,0.0,0.0,0.0,0.0,0.0,0.0,0.0,0.0,0.0,0.0,0.0,0.0,0.0,0.0,0.0,0.0,0.0,0.0,0.0,0.0,0.0,0.0,0.0,0.0,0.0,0.0,0.0,0.0,0.0,0.0,0.0,0.0,0.0,0.0,0.0,0.0,0.0,0.0,0.0,0.0,0.0,0.0,0.0,0.0,0.0,0.0,0.0,0.0,0.0,0.0,0.0,0.0,0.0,0.0,0.0,0.0,0.0,0.0,0.0,0.0,0.0,0.0,0.0,0.0,0.0,0.0,0.0,0.0,0.0,0.0,0.0,0.0,0.0,0.0,0.0,0.0,0.0,0.0,0.0,0.0,0.0,0.0,0.0,0.0,0.0,0.0,0.0,0.0,0.0,0.0,0.0,0.0,0.0,0.0,0.0,0.0,0.0,0.0,0.0,0.0,0.0,0.0,0.4765,0.0,0.5078,0.5098,0.501,0.4805,0.0,0.0,0.0,0.0,0.0,0.0,0.0,0.0,0.0,0.0,0.0,0.0,0.0,0.0,0.0,0.0,0.0,0.0,0.0,0.0,0.0,0.0,0.0,0.0,0.0,0.0,0.0,0.0,0.0,0.0,0.0,0.0,0.0,0.0,0.0,0.0,0.0,0.0,0.0,0.0,0.0,0.0,0.0,0.0,0.0,0.0,0.0,0.0,0.0,0.0,0.0,0.0,0.0,0.0,0.0,0.0,0.0,0.0,0.0,0.0,0.0,0.0,0.0,0.0,0.0,0.0,0.0,0.0,0.0,0.0,0.0,0.0,0.0,0.0,0.0,0.0,0.0,0.0,0.0,0.0,0.0,0.0,0.0,0.0,0.0,0.0,0.0,0.0,0.0,0.0,0.0,0.0,0.0,0.0,0.0,0.0,0.0,0.0,0.0,0.0,0.0,0.0,0.0,0.0,0.0,0.0,0.0,0.0,0.0,0.4952,0.5078,0.5098,0.5098,0.5098,0.0,0.0,0.0,0.0,0.0,0.0,0.0,0.0,0.0,0.0,0.0,0.0,0.0,0.0,0.0,0.0,0.0,0.0,0.0,0.0,0.0,0.0,0.0,0.0,0.0,0.0,0.0,0.0,0.0,0.0,0.0,0.0,0.0,0.0,0.0,0.0,0.0,0.0,0.0,0.0,0.0,0.0,0.0,0.0,0.0,0.0,0.0,0.0,0.0,0.0,0.0,0.0,0.0,0.0,0.0,0.0,0.0,0.0,0.0,0.0,0.0,0.0,0.0,0.0,0.0,0.0,0.0,0.0,0.0,0.0,0.0,0.0,0.0,0.0,0.0,0.0,0.0,0.0,0.0,0.0,0.0,0.0,0.0,0.0,0.0,0.0,0.0,0.0,0.0,0.0,0.0,0.0,0.0,0.0,0.0,0.0,0.0,0.0,0.0,0.0,0.0,0.0,0.0,0.0,0.0,0.0,0.0,0.0,0.0,0.4971,0.504,0.5098,0.5098,0.5098,0.5098,0.0,0.0,0.0,0.0,0.0,0.0,0.0,0.0,0.0,0.0,0.0,0.0,0.0,0.0,0.0,0.0,0.0,0.0,0.0,0.0,0.0,0.0,0.0,0.0,0.0,0.0,0.0,0.0,0.0,0.0,0.0,0.0,0.0,0.0,0.0,0.0,0.0,0.0,0.0,0.0,0.0,0.0,0.0,0.0,0.0,0.0,0.0,0.0,0.0,0.0,0.0,0.0,0.0,0.0,0.0,0.0,0.0,0.0,0.0,0.0,0.0,0.0,0.0,0.0,0.0,0.0,0.0,0.0,0.0,0.0,0.0,0.0,0.0,0.0,0.0,0.0,0.0,0.0,0.0,0.0,0.0,0.0,0.0,0.0,0.0,0.0,0.0,0.0,0.0,0.0,0.0,0.0,0.0,0.0,0.0,0.0,0.0,0.0,0.0,0.0,0.0,0.0,0.0,0.0,0.0,0.0,0.0,0.0,0.0,0.5098,0.0,0.5098,0.0,0.5098,0.5098,0.0,0.0,0.0,0.0,0.0,0.0,0.0,0.0,0.0,0.0,0.0,0.0,0.0,0.0,0.0,0.0,0.0,0.0,0.0,0.0,0.0,0.0,0.0,0.0,0.0,0.0,0.0,0.0,0.0,0.0,0.0,0.0,0.0,0.0,0.0,0.0,0.0,0.0,0.0,0.0,0.0,0.0,0.0,0.0,0.0,0.0,0.0,0.0,0.0,0.0,0.0,0.0,0.0,0.0,0.0,0.0,0.0,0.0,0.0,0.0,0.0,0.0,0.0,0.0,0.0,0.0,0.0,0.0,0.0,0.0,0.0,0.0,0.0,0.0,0.0,0.0,0.0,0.0,0.0,0.0,0.0,0.0,0.0,0.0,0.0,0.0,0.0,0.0,0.0,0.0,0.0,0.0,0.0,0.0,0.0,0.0,0.0,0.0,0.0,0.0,0.0,0.0,0.0,0.0,0.0,0.0,0.0,0.0,0.5098,0.5098,0.5117,0.5127,0.5098,0.5117,0.5108,0.0,0.0,0.0,0.0,0.0,0.0,0.0,0.0,0.0,0.0,0.0,0.0,0.0,0.0,0.0,0.0,0.0,0.0,0.0,0.0,0.0,0.0,0.0,0.0,0.0,0.0,0.0,0.0,0.0,0.0,0.0,0.0,0.0,0.0,0.0,0.0,0.0,0.0,0.0,0.0,0.0,0.0,0.0,0.0,0.0,0.0,0.0,0.0,0.0,0.0,0.0,0.0,0.0,0.0,0.0,0.0,0.0,0.0,0.0,0.0,0.0,0.0,0.0,0.0,0.0,0.0,0.0,0.0,0.0,0.0,0.0,0.0,0.0,0.0,0.0,0.0,0.0,0.0,0.0,0.0,0.0,0.0,0.0,0.0,0.0,0.0,0.0,0.0,0.0,0.0,0.0,0.0,0.0,0.0,0.0,0.0,0.0,0.0,0.0,0.0,0.0,0.0,0.0,0.0,0.0,0.0,0.0,0.0,0.0,0.5108,0.5452,0.5556,0.5387,0.5378,0.5368,0.0,0.0,0.0,0.0,0.0,0.0,0.0,0.0,0.0,0.0,0.0,0.0,0.0,0.0,0.0,0.0,0.0,0.0,0.0,0.0,0.0,0.0,0.0,0.0,0.0,0.0,0.0,0.0,0.0,0.0,0.0,0.0,0.0,0.0,0.0,0.0,0.0,0.0,0.0,0.0,0.0,0.0,0.0,0.0,0.0,0.0,0.0,0.0,0.0,0.0,0.0,0.0,0.0,0.0,0.0,0.0,0.0,0.0,0.0,0.0,0.0,0.0,0.0,0.0,0.0,0.0,0.0,0.0,0.0,0.0,0.0,0.0,0.0,0.0,0.0,0.0,0.0,0.0,0.0,0.0,0.0,0.0,0.0,0.0,0.0,0.0,0.0,0.0,0.0,0.0,0.0,0.0,0.0,0.0,0.0,0.0,0.0,0.0,0.0,0.0,0.0,0.0,0.0,0.0,0.0,0.0,0.0,0.0,0.0,0.5395,0.5387,0.548,0.5641,0.5307,0.5242,0.5492,0.0,0.0,0.0,0.0,0.0,0.0,0.0,0.0,0.0,0.0,0.0,0.0,0.0,0.0,0.0,0.0,0.0,0.0,0.0,0.0,0.0,0.0,0.0,0.0,0.0,0.0,0.0,0.0,0.0,0.0,0.0,0.0,0.0,0.0,0.0,0.0,0.0,0.0,0.0,0.0,0.0,0.0,0.0,0.0,0.0,0.0,0.0,0.0,0.0,0.0,0.0,0.0,0.0,0.0,0.0,0.0,0.0,0.0,0.0,0.0,0.0,0.0,0.0,0.0,0.0,0.0,0.0,0.0,0.0,0.0,0.0,0.0,0.0,0.0,0.0,0.0,0.0,0.0,0.0,0.0,0.0,0.0,0.0,0.0,0.0,0.0,0.0,0.0,0.0,0.0,0.0,0.0,0.0,0.0,0.0,0.0,0.0,0.0,0.0,0.0,0.0,0.0,0.0,0.0,0.0,0.0,0.0,0.0,0.5891,0.4999,0.4959,0.5834,0.5063,0.4876,0.0,0.0,0.0,0.0,0.0,0.0,0.0,0.0,0.0,0.0,0.0,0.0,0.0,0.0,0.0,0.0,0.0,0.0,0.0,0.0,0.0,0.0,0.0,0.0,0.0,0.0,0.0,0.0,0.0,0.0,0.0,0.0,0.0,0.0,0.0,0.0,0.0,0.0,0.0,0.0,0.0,0.0,0.0,0.0,0.0,0.0,0.0,0.0,0.0,0.0,0.0,0.0,0.0,0.0,0.0,0.0,0.0,0.0,0.0,0.0,0.0,0.0,0.0,0.0,0.0,0.0,0.0,0.0,0.0,0.0,0.0,0.0,0.0,0.0,0.0,0.0,0.0,0.0,0.0,0.0,0.0,0.0,0.0,0.0,0.0,0.0,0.0,0.0,0.0,0.0,0.0,0.0,0.0,0.0,0.0,0.0,0.0,0.0,0.0,0.0,0.0,0.0,0.0,0.0,0.0,0.0,0.0,0.0,0.0,0.5861,0.517,0.5021,0.5512,0.5686,0.5565,0.0,0.0,0.0,0.0,0.0,0.0,0.0,0.0,0.0,0.0,0.0,0.0,0.0,0.0,0.0,0.0,0.0,0.0,0.0,0.0,0.0,0.0,0.0,0.0,0.0,0.0,0.0,0.0,0.0,0.0,0.0,0.0,0.0,0.0,0.0,0.0,0.0,0.0,0.0,0.0,0.0,0.0,0.0,0.0,0.0,0.0,0.0,0.0,0.0,0.0,0.0,0.0,0.0,0.0,0.0,0.0,0.0,0.0,0.0,0.0,0.0,0.0,0.0,0.0,0.0,0.0,0.0,0.0,0.0,0.0,0.0,0.0,0.0,0.0,0.0,0.0,0.0,0.0,0.0,0.0,0.0,0.0,0.0,0.0,0.0,0.0,0.0,0.0,0.0,0.0,0.0,0.0,0.0,0.0,0.0,0.0,0.0,0.0,0.0,0.0,0.0,0.0,0.0,0.0,0.0,0.0,0.0,0.0,0.5687,0.6183,0.58,0.5594,0.5559,0.596,0.5873,0.0,0.0,0.0,0.0,0.0,0.0,0.0,0.0,0.0,0.0,0.0,0.0,0.0,0.0,0.0,0.0,0.0,0.0,0.0,0.0,0.0,0.0,0.0,0.0,0.0,0.0,0.0,0.0,0.0,0.0,0.0,0.0,0.0,0.0,0.0,0.0,0.0,0.0,0.0,0.0,0.0,0.0,0.0,0.0,0.0,0.0,0.0,0.0,0.0,0.0,0.0,0.0,0.0,0.0,0.0,0.0,0.0,0.0,0.0,0.0,0.0,0.0,0.0,0.0,0.0,0.0,0.0,0.0,0.0,0.0,0.0,0.0,0.0,0.0,0.0,0.0,0.0,0.0,0.0,0.0,0.0,0.0,0.0,0.0,0.0,0.0,0.0,0.0,0.0,0.0,0.0,0.0,0.0,0.0,0.0,0.0,0.0,0.0,0.0,0.0,0.0,0.0,0.0,0.0,0.0,0.0,0.0,0.0,0.6099,0.6543,0.6552,0.6303,0.578,0.601,0.5904,0.0,0.0,0.0,0.0,0.0,0.0,0.0,0.0,0.0,0.0,0.0,0.0,0.0,0.0,0.0,0.0,0.0,0.0,0.0,0.0,0.0,0.0,0.0,0.0,0.0,0.0,0.0,0.0,0.0,0.0,0.0,0.0,0.0,0.0,0.0,0.0,0.0,0.0,0.0,0.0,0.0,0.0,0.0,0.0,0.0,0.0,0.0,0.0,0.0,0.0,0.0,0.0,0.0,0.0,0.0,0.0,0.0,0.0,0.0,0.0,0.0,0.0,0.0,0.0,0.0,0.0,0.0,0.0,0.0,0.0,0.0,0.0,0.0,0.0,0.0,0.0,0.0,0.0,0.0,0.0,0.0,0.0,0.0,0.0,0.0,0.0,0.0,0.0,0.0,0.0,0.0,0.0,0.0,0.0,0.0,0.0,0.0,0.0,0.0,0.0,0.0,0.0,0.0,0.0,0.0,0.0,0.0,0.0,0.6036,0.628,0.628,0.6035,0.5481,0.6124,0.6156,0.0,0.0,0.0,0.0,0.0,0.0,0.0,0.0,0.0,0.0,0.0,0.0,0.0,0.0,0.0,0.0,0.0,0.0,0.0,0.0,0.0,0.0,0.0,0.0,0.0,0.0,0.0,0.0,0.0,0.0,0.0,0.0,0.0,0.0,0.0,0.0,0.0,0.0,0.0,0.0,0.0,0.0,0.0,0.0,0.0,0.0,0.0,0.0,0.3825,0.0,0.0,0.0,0.0,0.0,0.0,0.0,0.0,0.0,0.0,0.0,0.0,0.0,0.0,0.0,0.0,0.0,0.0,0.0,0.0,0.0,0.0,0.0,0.0,0.0,0.0,0.0,0.0,0.0,0.0,0.0,0.0,0.0,0.0,0.0,0.0,0.0,0.0,0.0,0.0,0.0,0.0,0.0,0.0,0.0,0.0,0.0,0.0,0.0,0.0,0.0,0.0,0.0,0.0,0.0,0.0,0.0,0.0,0.0,0.6159,0.638,0.638,0.6258,0.5986,0.6133,0.6025,0.0,0.0,0.0,0.0,0.0,0.0,0.0,0.0,0.0,0.0,0.0,0.0,0.0,0.0,0.0,0.0,0.0,0.0,0.0,0.0,0.0,0.0,0.0,0.0,0.0,0.0,0.0,0.0,0.0,0.0,0.0,0.0,0.0,0.0,0.0,0.0,0.0,0.0,0.0,0.0,0.0,0.0,0.0,0.0,0.0,0.0,0.0,0.0,0.0,0.0,0.0,0.0,0.0,0.0,0.0,0.0,0.0,0.0,0.0,0.0,0.0,0.0,0.0,0.0,0.0,0.0,0.0,0.0,0.0,0.0,0.0,0.0,0.0,0.0,0.0,0.0,0.0,0.0,0.0,0.0,0.0,0.0,0.0,0.0,0.0,0.0,0.0,0.0,0.0,0.0,0.0,0.0,0.0,0.0,0.0,0.0,0.0,0.0,0.0,0.0,0.0,0.0,0.0,0.0,0.0,0.0,0.0,0.6362,0.6371,0.659,0.659,0.659,0.6599,0.6156,0.5913,0.5933,0.0,0.0,0.0,0.0,0.0,0.0,0.0,0.0,0.0,0.0,0.0,0.0,0.0,0.0,0.0,0.0,0.0,0.0,0.0,0.0,0.0,0.0,0.0,0.0,0.0,0.0,0.0,0.0,0.0,0.0,0.0,0.0,0.0,0.0,0.0,0.0,0.0,0.0,0.3786,0.4667,0.0,0.0,0.0,0.0,0.0,0.0,0.0,0.0,0.5039,0.0,0.0,0.0,0.0,0.0,0.0,0.0,0.0,0.0,0.0,0.0,0.0,0.0,0.0,0.0,0.0,0.0,0.0,0.0,0.0,0.0,0.0,0.0,0.0,0.0,0.0,0.0,0.0,0.0,0.0,0.0,0.0,0.0,0.0,0.0,0.0,0.0,0.0,0.0,0.0,0.0,0.0,0.0,0.0,0.0,0.0,0.0,0.0,0.0,0.0,0.0,0.0,0.0,0.0,0.0,0.0,0.628,0.6444,0.6564,0.659,0.659,0.659,0.659,0.6511,0.6482,0.6449,0.0,0.0,0.0,0.0,0.0,0.0,0.0,0.0,0.0,0.0,0.0,0.0,0.0,0.0,0.0,0.0,0.0,0.0,0.0,0.0,0.0,0.0,0.0,0.0,0.0,0.0,0.0,0.0,0.0,0.0,0.0,0.0,0.0,0.0,0.0,0.0,0.0,0.0,0.0,0.5293,0.5682,0.0,0.0,0.0,0.0,0.0,0.0,0.0,0.0,0.4814,0.0,0.0,0.0,0.0,0.0,0.0,0.0,0.0,0.0,0.0,0.0,0.0,0.0,0.0,0.0,0.0,0.0,0.0,0.0,0.0,0.0,0.0,0.0,0.0,0.0,0.0,0.0,0.0,0.0,0.0,0.0,0.0,0.0,0.0,0.0,0.0,0.0,0.0,0.0,0.0,0.0,0.0,0.0,0.0,0.0,0.0,0.0,0.0,0.0,0.0,0.0,0.0,0.0,0.0,0.0,0.6373,0.6249,0.6327,0.6586,0.659,0.659,0.6578,0.6332,0.6319,0.0,0.0,0.0,0.0,0.0,0.0,0.0,0.0,0.0,0.0,0.0,0.0,0.0,0.0,0.0,0.0,0.0,0.0,0.0,0.0,0.0,0.0,0.0,0.0,0.0,0.0,0.0,0.0,0.0,0.0,0.0,0.0,0.0,0.0,0.0,0.0,0.0,0.0,0.0,0.0,0.5441,0.5684,0.5238,0.0,0.0,0.0,0.0,0.0,0.0,0.5115,0.492,0.0,0.0,0.0,0.0,0.0,0.0,0.0,0.0,0.0,0.0,0.0,0.0,0.0,0.0,0.0,0.0,0.0,0.0,0.0,0.0,0.0,0.0,0.0,0.0,0.0,0.0,0.0,0.0,0.0,0.0,0.0,0.0,0.0,0.0,0.0,0.0,0.0,0.0,0.0,0.0,0.0,0.0,0.0,0.0,0.0,0.0,0.0,0.0,0.0,0.0,0.0,0.0,0.0,0.0,0.0,0.6472,0.6053,0.6064,0.6574,0.659,0.659,0.659,0.6294,0.6277,0.0,0.0,0.0,0.0,0.0,0.0,0.0,0.0,0.0,0.0,0.0,0.0,0.0,0.0,0.0,0.0,0.0,0.0,0.0,0.0,0.0,0.0,0.0,0.0,0.0,0.0,0.0,0.0,0.0,0.0,0.0,0.0,0.0,0.0,0.0,0.0,0.0,0.0,0.0,0.0,0.0,0.574,0.5098,0.5551,0.0,0.0,0.0,0.0,0.5969,0.56,0.0,0.0,0.0,0.0,0.0,0.0,0.0,0.0,0.0,0.0,0.0,0.0,0.0,0.0,0.0,0.0,0.0,0.0,0.0,0.0,0.0,0.0,0.0,0.0,0.0,0.0,0.0,0.0,0.0,0.0,0.0,0.0,0.0,0.0,0.0,0.0,0.0,0.0,0.0,0.0,0.0,0.0,0.0,0.0,0.0,0.0,0.0,0.0,0.0,0.0,0.0,0.0,0.0,0.0,0.0,0.0,0.6223,0.5969,0.6064,0.6561,0.659,0.659,0.6603,0.7003,0.7016,0.0,0.0,0.0,0.0,0.0,0.0,0.0,0.0,0.0,0.0,0.0,0.0,0.0,0.0,0.0,0.0,0.0,0.0,0.0,0.0,0.0,0.0,0.0,0.0,0.0,0.0,0.0,0.0,0.0,0.0,0.0,0.0,0.0,0.0,0.0,0.0,0.0,0.0,0.0,0.0,0.0,0.6139,0.513,0.5863,0.6336,0.0,0.0,0.6181,0.5265,0.5848,0.0,0.0,0.0,0.0,0.0,0.0,0.0,0.0,0.0,0.0,0.0,0.0,0.0,0.0,0.0,0.0,0.0,0.0,0.0,0.0,0.0,0.0,0.0,0.0,0.0,0.0,0.0,0.0,0.0,0.0,0.0,0.0,0.0,0.0,0.0,0.0,0.0,0.0,0.0,0.0,0.0,0.0,0.0,0.0,0.0,0.0,0.0,0.0,0.0,0.0,0.0,0.0,0.0,0.0,0.0,0.57,0.6362,0.5712,0.575,0.6561,0.659,0.6457,0.6144,0.6683,0.6699,0.0,0.0,0.0,0.0,0.0,0.0,0.0,0.0,0.0,0.0,0.0,0.0,0.0,0.0,0.0,0.0,0.0,0.0,0.0,0.0,0.0,0.0,0.0,0.0,0.0,0.0,0.0,0.0,0.0,0.0,0.0,0.0,0.0,0.0,0.0,0.0,0.0,0.0,0.0,0.0,0.0,0.0,0.5513,0.585,0.0,0.0,0.0,0.6202,0.6344,0.0,0.0,0.0,0.0,0.0,0.0,0.0,0.0,0.0,0.0,0.0,0.0,0.0,0.0,0.0,0.0,0.0,0.0,0.0,0.0,0.0,0.0,0.0,0.0,0.0,0.0,0.0,0.0,0.0,0.0,0.0,0.0,0.0,0.0,0.0,0.0,0.0,0.0,0.0,0.0,0.0,0.0,0.0,0.0,0.0,0.0,0.0,0.0,0.0,0.0,0.0,0.0,0.0,0.0,0.0,0.0,0.0,0.6557,0.5538,0.5513,0.6549,0.659,0.6336,0.5833,0.6189,0.0,0.0,0.0,0.0,0.0,0.0,0.0,0.0,0.0,0.0,0.0,0.0,0.0,0.0,0.0,0.0,0.0,0.0,0.0,0.0,0.0,0.0,0.0,0.0,0.0,0.0,0.0,0.3298,0.0,0.0,0.0,0.0,0.0,0.0,0.0,0.0,0.0,0.0,0.0,0.0,0.0,0.0,0.5959,0.582,0.6026,0.6244,0.0,0.0,0.6394,0.6912,0.6114,0.5626,0.0,0.0,0.0,0.0,0.0,0.0,0.0,0.0,0.0,0.0,0.0,0.0,0.0,0.0,0.0,0.0,0.0,0.0,0.0,0.0,0.0,0.0,0.0,0.0,0.0,0.0,0.0,0.0,0.0,0.0,0.0,0.0,0.0,0.0,0.0,0.0,0.0,0.0,0.0,0.0,0.0,0.0,0.0,0.0,0.0,0.0,0.0,0.0,0.0,0.0,0.0,0.0,0.0,0.0,0.0,0.6532,0.5558,0.5533,0.6549,0.659,0.6344,0.582,0.583,0.5845,0.0,0.0,0.0,0.0,0.0,0.0,0.0,0.0,0.0,0.0,0.0,0.0,0.0,0.0,0.0,0.0,0.0,0.0,0.0,0.0,0.0,0.0,0.0,0.0,0.0,0.0,0.0,0.0,0.0,0.0,0.0,0.0,0.0,0.0,0.0,0.0,0.0,0.0,0.0,0.0,0.0,0.6378,0.5878,0.6662,0.695,0.0,0.0,0.6987,0.6064,0.6252,0.6336,0.5926,0.0,0.0,0.0,0.0,0.0,0.0,0.0,0.0,0.0,0.0,0.0,0.0,0.0,0.0,0.0,0.0,0.0,0.0,0.0,0.0,0.0,0.0,0.0,0.0,0.0,0.0,0.0,0.0,0.0,0.0,0.0,0.0,0.0,0.0,0.0,0.0,0.0,0.0,0.0,0.0,0.0,0.0,0.0,0.0,0.0,0.0,0.0,0.0,0.0,0.0,0.0,0.0,0.0,0.5526,0.6582,0.5558,0.5533,0.6549,0.659,0.6353,0.58,0.5795,0.5795,0.0,0.0,0.0,0.0,0.0,0.0,0.0,0.0,0.0,0.0,0.0,0.0,0.0,0.0,0.0,0.0,0.0,0.0,0.0,0.0,0.0,0.0,0.0,0.0,0.0,0.0,0.0,0.0,0.3691,0.3992,0.3982,0.0,0.0,0.0,0.0,0.0,0.0,0.0,0.0,0.0,0.0,0.6515,0.6327,0.6649,0.0,0.0,0.6862,0.7012,0.7285,0.6633,0.6269,0.6712,0.642,0.0,0.0,0.0,0.0,0.0,0.0,0.0,0.0,0.0,0.0,0.0,0.0,0.0,0.0,0.0,0.0,0.0,0.0,0.0,0.0,0.0,0.0,0.0,0.0,0.0,0.0,0.0,0.0,0.0,0.0,0.0,0.0,0.0,0.0,0.0,0.0,0.0,0.0,0.0,0.0,0.0,0.0,0.0,0.0,0.0,0.0,0.0,0.0,0.0,0.0,0.0,0.0,0.5682,0.6578,0.5702,0.5675,0.6595,0.659,0.6336,0.5825,0.5795,0.5732,0.0,0.0,0.0,0.0,0.0,0.0,0.0,0.0,0.0,0.0,0.0,0.0,0.0,0.0,0.0,0.0,0.0,0.0,0.0,0.0,0.0,0.0,0.0,0.0,0.0,0.0,0.0,0.0,0.4152,0.4397,0.4397,0.0,0.0,0.0,0.0,0.0,0.0,0.0,0.0,0.0,0.0,0.6662,0.6815,0.6978,0.7238,0.7626,0.7498,0.756,0.8187,0.7297,0.675,0.7303,0.0,0.0,0.0,0.0,0.0,0.0,0.0,0.0,0.0,0.0,0.0,0.0,0.0,0.0,0.0,0.0,0.0,0.0,0.0,0.0,0.0,0.0,0.0,0.0,0.0,0.0,0.0,0.0,0.0,0.0,0.659,0.0,0.0,0.0,0.0,0.0,0.0,0.0,0.0,0.0,0.0,0.0,0.0,0.0,0.0,0.0,0.0,0.0,0.0,0.0,0.0,0.0,0.0,0.0,0.6578,0.6039,0.6051,0.6586,0.659,0.6349,0.5845,0.5795,0.5556,0.5035,0.0,0.0,0.0,0.0,0.0,0.0,0.0,0.0,0.0,0.0,0.0,0.0,0.0,0.0,0.0,0.0,0.0,0.0,0.0,0.0,0.0,0.0,0.0,0.0,0.0,0.0,0.4871,0.4621,0.441,0.0,0.0,0.0,0.0,0.0,0.0,0.0,0.0,0.0,0.0,0.659,0.679,0.7319,0.7889,0.8248,0.825,0.8674,0.885,0.8374,0.8261,0.8039,0.0,0.0,0.0,0.0,0.0,0.0,0.0,0.0,0.0,0.0,0.0,0.0,0.0,0.0,0.0,0.0,0.0,0.0,0.0,0.0,0.0,0.0,0.0,0.0,0.0,0.0,0.0,0.7501,0.7144,0.0,0.0,0.0,0.0,0.0,0.0,0.0,0.0,0.0,0.0,0.0,0.7431,0.8175,0.0,0.0,0.0,0.0,0.0,0.0,0.0,0.0,0.0,0.0,0.0,0.0,0.6056,0.6549,0.6068,0.6043,0.6574,0.659,0.6524,0.6332,0.5996,0.5544,0.5016,0.0,0.0,0.0,0.0,0.0,0.0,0.0,0.0,0.0,0.0,0.0,0.0,0.0,0.0,0.0,0.0,0.0,0.0,0.0,0.0,0.0,0.0,0.0,0.0,0.0,0.477,0.0,0.0,0.0,0.0,0.0,0.0,0.0,0.0,0.0,0.0,0.0,0.7141,0.7131,0.7475,0.7786,0.7974,0.8485,0.8562,0.0,0.0,0.0,0.0,0.0,0.0,0.0,0.0,0.0,0.0,0.0,0.0,0.0,0.0,0.9015,0.7901,0.725,0.6815,0.6649,0.0,0.0,0.0,0.0,0.0,0.0,0.0,0.0,0.0,0.0,0.0,0.0,0.0,0.0,0.8654,0.0,0.8234,0.0,0.0,0.0,0.0,0.0,0.0,0.0,0.0,0.841,0.8524,0.8026,0.8738,0.8713,0.0,0.8179,0.8166,0.0,0.0,0.0,0.0,0.0,0.0,0.0,0.0,0.6336,0.6837,0.6344,0.6244,0.6574,0.659,0.659,0.6586,0.6089,0.5646,0.5287,0.5098,0.5155,0.0,0.0,0.0,0.0,0.0,0.0,0.0,0.0,0.0,0.0,0.0,0.0,0.0,0.0,0.0,0.0,0.0,0.0,0.0,0.0,0.0,0.0,0.0,0.5475,0.0,0.0,0.0,0.0,0.0,0.0,0.0,0.0,0.0,0.6076,0.6853,0.7478,0.7691,0.7876,0.8252,0.904,0.0,0.0,0.0,0.0,0.0,0.0,0.0,0.9303,0.9818,0.9465,0.9037,0.8862,0.9126,0.9315,0.9138,0.0,0.0,0.8427,0.7836,0.7457,0.746,0.746,0.7583,0.7914,0.8139,0.839,0.0,0.0,0.0,0.0,0.0,0.0,0.0,0.0,0.9365,1.0014,0.0,0.9782,0.0,0.0,0.0,0.0,0.0,0.0,0.0,0.0,0.8625,0.8649,0.91,0.9139,0.9138,0.9138,0.9579,0.9554,0.9012,0.7976,0.0,0.0,0.0,0.0,0.0,0.0,0.6903,0.7356,0.6906,0.6649,0.6637,0.6637,0.6615,0.6595,0.6076,0.5795,0.577,0.5306,0.5029,0.501,0.5023,0.0,0.0,0.0,0.0,0.0,0.0,0.0,0.0,0.0,0.0,0.0,0.0,0.0,0.0,0.0,0.0,0.0,0.0,0.0,0.0,0.6302,0.0,0.0,0.0,0.0,0.0,0.0,0.0,0.0,0.0,0.0,0.6674,0.7178,0.7703,0.8275,0.0,0.0,0.0,0.0,0.9742,1.1251,1.1525,1.1527,1.145,1.0996,1.0482,1.0006,0.0,0.0,0.8487,0.9227,0.9742,0.9226,0.9163,0.9277,0.978,0.9327,0.8963,0.8987,0.8924,0.9037,0.9113,0.9327,0.973,1.269,0.0,0.0,0.0,0.0,1.1724,1.1846,1.178,1.1766,1.1496,1.1017,1.0455,0.0,0.0,0.0,0.0,0.0,0.0,0.8949,0.9126,0.973,0.9893,0.9692,1.0043,0.9843,0.9126,0.9277,0.9039,0.8548,0.8587,0.8135,0.7194,0.0,0.0,0.0,0.0,0.7676,0.7453,0.7676,0.7601,0.7191,0.7156,0.7,0.6603,0.6076,0.5795,0.5795,0.5644,0.5415,0.51,0.5397,0.0,0.0,0.0,0.0,0.0,0.0,0.0,0.0,0.0,0.0,0.0,0.0,0.0,0.0,0.0,0.0,0.0,0.0,0.0,0.6307,0.652,0.6524,0.0,0.0,0.0,0.0,0.0,0.0,0.0,0.0,0.0,0.7761,0.8614,0.9241,0.0,0.0,1.0608,1.1249,1.1073,1.0773,1.0433,0.0,0.0,0.0,0.9993,1.0206,1.0432,1.0344,1.0193,1.0043,0.9955,0.9855,0.9692,0.9679,0.9717,0.9805,0.9152,0.8598,0.8524,0.8524,0.8661,0.9013,0.9227,0.9465,1.514,1.4492,1.3613,1.2995,1.2622,1.2773,1.2772,1.2678,1.2678,1.2567,1.2344,1.1666,1.1145,1.0751,0.9969,0.0,0.0,0.0,1.0082,1.0133,1.0745,1.0871,1.0596,1.091,1.0721,1.0095,0.9855,0.9579,0.9253,0.9378,0.8976,0.8112,0.0,0.0,0.7621,0.8072,0.8236,0.8087,0.8225,0.8137,0.7766,0.7528,0.7244,0.6915,0.6407,0.6114,0.6114,0.5901,0.5666,0.5393,0.5453,0.5446,0.0,0.0,0.0,0.0,0.0,0.0,0.0,0.0,0.0,0.0,0.0,0.4255,0.0,0.0,0.0,0.0,0.5511,0.6341,0.6591,0.6884,0.0,0.0,0.0,0.0,0.0,0.0,0.0,0.7369,0.7801,0.8212,0.8598,0.9554,1.0131,0.9931,1.0307,1.0849,1.1515,0.0,1.0834,1.0608,1.086,1.0834,1.0195,1.0169,1.0256,1.0369,1.0368,1.0381,1.0369,1.0093,0.9893,0.9893,0.9893,0.9893,0.9893,0.9366,0.8927,0.8939,0.8939,0.9052,0.9365,0.9403,0.9529,1.7666,1.748,1.5111,1.4006,1.3809,1.3389,1.3096,1.2898,1.283,1.3439,1.4485,1.3244,1.3093,1.3741,1.2275,0.0,1.1603,1.1603,1.1603,1.165,1.1666,1.1666,1.1666,1.1666,1.164,1.159,1.1034,1.0756,1.0745,1.0269,0.9805,0.9377,0.9327,0.9239,0.91,0.8699,0.8713,0.9139,0.8725,0.8462,0.8372,0.7766,0.7443,0.7406,0.6928,0.6645,0.6578,0.6119,0.5853,0.5833,0.5307,0.5238,0.5726,0.0,0.0,0.0,0.0,0.0,0.0,0.0,0.0,0.0,0.0,0.0,0.0,0.0,0.0,0.0,0.6558,0.0,0.6625,0.7264,0.0,0.0,0.0,0.7219,0.6787,0.7166,0.7503,0.7528,0.0,0.0,0.9163,0.0,1.0443,0.9968,0.9554,0.9856,1.1374,1.0696,1.0332,1.1289,1.1437,1.1452,1.1175,1.0845,1.0407,1.0018,0.9893,0.9918,0.9918,0.9905,0.9893,0.9893,0.9893,0.9893,0.9893,0.9842,0.9893,0.983,0.9842,0.9855,0.9855,0.9855,0.9842,1.7421,1.7602,1.6372,1.6193,1.6652,1.6045,1.6031,1.6374,1.5433,1.5212,1.5404,1.4356,1.3416,1.2595,1.1915,1.1603,1.1603,1.1603,1.1814,1.2203,1.2215,1.2215,1.2215,1.2215,1.2002,1.1615,1.145,1.1387,1.1389,1.1263,1.1337,1.1588,1.1226,1.0371,0.9163,0.978,0.9993,0.9705,0.998,0.973,0.8925,0.8374,0.7864,0.7396,0.7269,0.7016,0.6611,0.6482,0.6335,0.6169,0.5436,0.5145,0.5478,0.5183,0.0,0.0,0.0,0.0,0.0,0.0,0.0,0.0,0.0,0.5402,0.4933,0.0,0.6268,0.0,0.6368,0.6642,0.659,0.6764,0.0,0.0,0.7387,0.7528,0.7849,0.8022,0.8238,0.8661,0.8949,0.9252,0.9654,0.9931,1.003,0.9931,1.0547,1.1165,1.154,1.0983,1.0581,1.082,1.0582,1.0307,1.0332,1.0207,1.0056,0.9931,0.9893,0.9893,0.9893,0.9893,0.9893,0.9893,0.9893,0.9893,0.9905,0.9893,0.9893,0.9893,0.9893,0.9893,0.9893,0.9893,0.9893,1.7892,1.7824,1.7393,1.7462,1.7802,1.6724,1.6457,1.6713,1.5798,1.5534,1.5716,1.5168,1.4368,1.3417,1.3179,1.3074,1.3048,1.281,1.2889,1.3136,1.2877,1.2764,1.2747,1.2747,1.2601,1.2316,1.2077,1.1952,1.1927,1.1716,1.1754,1.2027,1.1754,1.1251,1.0622,1.0935,1.096,1.0659,1.0682,1.0294,0.9478,0.8925,0.8487,0.8175,0.7914,0.7673,0.735,0.736,0.7167,0.6796,0.6097,0.5964,0.6463,0.5999,0.6015,0.0,0.0,0.0,0.0,0.0,0.0,0.0,0.0,0.0,0.0,0.0,0.6709,0.0,0.688,0.7299,0.7354,0.7649,0.7935,0.8135,0.8152,0.82,0.8298,0.8499,0.8786,0.9063,0.9302,0.9579,0.9855,0.9893,1.0006,1.0232,1.0795,1.1111,1.086,1.0559,1.0344,1.0331,1.0094,0.9893,0.9893,0.9893,0.9893,0.9893,0.9893,0.9893,0.9893,1.0106,1.0194,0.9981,1.0081,1.0168,0.9968,0.9893,0.9955,1.0193,1.027,1.0244,1.0256,1.0256,1.0307,1.8631,1.8204,1.819,1.8165,1.7989,1.6599,1.6,1.5963,1.5324,1.5316,1.5731,1.5694,1.5429,1.498,1.4922,1.4884,1.4878,1.4431,1.4198,1.416,1.3659,1.3391,1.3328,1.3328,1.3261,1.3185,1.2726,1.2517,1.2488,1.2027,1.1826,1.1917,1.1854,1.2077,1.2567,1.2077,1.1726,1.1603,1.1008,1.0482,1.0018,0.9617,0.9378,0.9277,0.88,0.8463,0.8411,0.8336,0.806,0.7568,0.6996,0.7026,0.7703,0.7027,0.6923,0.0,0.773,0.0,0.0,0.0,0.0,0.0,0.0,0.0,0.0,0.7063,0.7371,0.7198,0.7892,0.8359,0.8397,0.9013,0.9296,0.9068,0.9109,0.897,0.8487,0.8875,0.9214,0.9189,0.9679,1.0006,1.0018,1.0069,1.032,1.0719,1.0871,1.0783,1.0282,1.0232,1.0244,1.0119,1.0119,1.0244,1.0219,1.0182,1.0168,1.0157,1.0207,1.0119,1.0168,1.0533,1.0669,1.0306,1.0532,1.0657,1.0194,1.0144,1.0294,1.0745,1.0833,1.082,1.082,1.082,1.0983,1.8855,1.8746,1.8727,1.8496,1.8078,1.7779,1.7644,1.7575,1.6393,1.5919,1.5992,1.5676,1.5485,1.5354,1.5044,1.4884,1.4884,1.4802,1.4733,1.4752,1.4632,1.4362,1.3946,1.3934,1.3677,1.321,1.3098,1.3048,1.3065,1.2964,1.3144,1.3594,1.3144,1.3195,1.372,0.0,0.0,0.0,1.1008,1.0657,1.0568,1.0922,1.0899,1.0407,0.9867,0.0,0.8962,0.8524,0.8321,0.8342,0.7659,0.0,0.0,0.0,0.0,0.0,0.0,0.0,0.0,0.0,0.0,0.0,0.8389,0.8261,0.6986,0.8,0.8752,0.8776,0.9293,0.9471,0.9071,0.9146,0.9101,0.8841,0.9208,0.9365,0.9022,0.9428,0.9742,0.9755,1.0231,1.0545,1.0582,1.0973,1.1286,1.1387,1.1425,1.1402,1.1299,1.1236,1.1276,1.1276,1.1188,1.1251,1.1289,1.1238,1.1175,1.1276,1.1289,1.1251,1.1224,1.1312,1.1412,1.1224,1.1349,1.1414,1.1249,1.1261,1.1251,1.1399,1.1425,1.1425,1.1425,1.1452,1.145,1.9549,0.0,1.899,1.869,0.0,1.814,1.8153,1.8074,1.6834,1.6284,1.6304,1.6363,1.6257,1.5979,1.5782,1.5693,1.5668,1.5424,1.5299,1.5286,1.5022,1.4765,1.45,1.4488,1.4331,1.4036,1.3772,1.3634,1.3622,1.3353,1.3353,1.3647,1.3336,1.3353,1.3639,1.3077,1.24,1.16,1.1299,1.0871,1.0344,1.0596,1.0608,1.0319,0.0,0.0,0.0,0.0,0.0,0.0,0.0,0.0,0.0,0.0,0.0,0.8191,0.8471,0.8372,0.7836,0.8454,0.8574,0.7879,0.858,0.8784,0.8167,0.8818,0.9148,0.892,0.9397,0.955,0.9207,0.9373,0.948,0.9332,0.9567,0.9765,0.9881,1.0118,1.042,1.0709,1.0958,1.1148,1.1146,1.1374,1.1701,1.1939,1.1989,1.209,1.2275,1.1927,1.1603,1.1603,1.1603,1.159,1.1603,1.1603,1.1615,1.1603,1.1603,1.1603,1.1603,1.1814,1.1899,1.1688,1.1801,1.1927,1.1653,1.1603,1.1678,1.1927,1.2002,1.2102,1.2287,1.2174,1.2077,1.9972,1.9086,1.9073,1.8734,1.8204,1.8286,1.8298,1.8141,0.0,0.0,0.0,1.7023,1.6909,1.6522,1.6513,1.6513,1.6475,1.6032,1.5844,1.5819,1.5379,1.5135,1.5054,1.5035,1.5004,1.4871,1.445,1.4191,1.4091,1.3584,1.3298,1.321,1.321,1.321,1.3173,1.2747,1.2262,1.1766,1.1754,1.1251,1.0232,1.0281,1.0281,1.022,1.0081,1.0044,1.0044,0.9956,0.9491,0.8637,0.8587,0.8633,0.8751,0.8566,0.8934,0.9977,1.0068,0.9614,0.8587,0.927,0.9357,0.8405,0.8904,0.9291,0.9443,0.9608,0.9572,0.9191,0.9701,0.9989,0.9724,1.0084,1.034,1.0274,1.0274,1.045,1.0797,1.0871,1.1034,1.15,1.1666,1.1738,1.1738,1.1851,1.204,1.2425,1.2538,1.2672,1.2973,1.2463,1.1977,1.1989,1.2027,1.1939,1.1902,1.1939,1.1892,1.1964,1.1939,1.1876,1.1952,1.2253,1.2312,1.204,1.2278,1.2328,1.2002,1.1952,1.204,1.2467,1.2551,1.2676,1.3035,1.2864,1.2676,1.9193,1.9035,1.8999,1.8717,1.8215,1.8681,1.8624,1.8154,1.7539,1.7285,1.7247,1.6822,1.6573,1.65,1.6513,1.6513,1.6488,1.6412,1.6387,0.0,1.63,1.6032,1.5593,1.5567,1.5349,1.4928,1.4828,1.4551,1.4141,1.404,1.3715,1.3278,1.321,1.321,1.3198,1.3123,1.2826,1.2303,1.2275,1.1989,1.1389,1.1814,1.1826,1.1377,1.0845,1.0581,1.0595,1.0157,0.9843,0.9692,0.9667,0.9491,0.9083,0.9022,0.8963,0.8869,0.8854,0.896,0.9239,0.9893,1.0804,1.188,1.1839,1.111,0.9743,1.0473,1.1082,1.1253,1.1969,1.2492,1.2102,1.1993,1.1881,1.1696,1.1679,1.1643,1.1494,1.149,1.154,1.1663,1.2015,1.2291,1.2328,1.2651,1.2914,1.3035,1.3015,1.3098,1.3135,1.3073,1.2973,1.2973,1.2973,1.2989,1.2847,1.296,1.2902,1.296,1.2914,1.2864,1.2852,1.2939,1.2973,1.2977,1.296,1.3002,1.2897,1.296,1.2939,1.3023,1.3023,1.3085,1.3185,1.3098,1.3073,2.0274,1.9993,1.9969,1.9633,1.9095,1.9353,1.9291,1.902,1.8505,1.8103,1.7802,1.7539,1.7438,1.74,1.7124,1.6986,1.6974,1.6638,1.6513,1.6513,1.6513,1.6362,1.617,1.6124,1.6019,1.5756,1.5454,1.5211,1.4979,1.4689,1.423,1.3702,1.3366,1.321,1.321,1.321,1.3085,1.2852,1.2551,1.2153,1.1615,1.1839,1.1839,1.1603,1.1324,1.1034,1.0706,1.0456,1.0207,0.9918,0.9617,0.9478,0.9529,0.9252,0.9287,0.9702,0.9728,0.998,1.0555,1.0884,1.1361,1.2075,1.198,1.1559,1.0766,1.1295,1.167,1.166,1.208,1.2255,1.2025,1.2023,1.1952,1.1803,1.1789,1.1869,1.2011,1.204,1.214,1.2425,1.2676,1.2822,1.2839,1.3048,1.321,1.321,1.321,1.321,1.321,1.321,1.321,1.321,1.321,1.321,1.321,1.321,1.321,1.321,1.321,1.321,1.321,1.321,1.321,1.321,1.321,1.321,1.321,1.321,1.321,1.321,1.321,1.321,1.321,1.321,1.321,2.1002,2.0572,2.0572,2.027,1.9824,1.9798,1.9798,1.9748,1.9346,1.8933,1.8568,1.8317,1.8204,1.8154,1.7752,1.7586,1.7536,1.7112,1.6826,1.6701,1.6688,1.6626,1.6513,1.6513,1.6513,1.645,1.6082,1.5819,1.5655,1.5286,1.4815,1.4286,1.381,1.3529,1.3386,1.3403,1.3341,1.3185,1.2801,1.2316,1.1801,1.1791,1.1741,1.1588,1.159,1.1374,1.0933,1.0908,1.0708,1.0307,0.9906,0.9843,1.0219,0.9906,1.0044,1.0795,1.0908,1.114,1.1647,1.186,1.203,1.216,1.2069,1.209,1.2249,1.2264,1.2126,1.1862,1.2056,1.2147,1.2077,1.2005,1.1952,1.1964,1.1964,1.2165,1.25,1.2576,1.271,1.3135,1.321,1.3198,1.321,1.321,1.321,1.321,1.321,1.321,1.321,1.321,1.321,1.321,1.321,1.321,1.321,1.321,1.321,1.321,1.321,1.321,1.321,1.321,1.321,1.321,1.321,1.321,1.321,1.321,1.321,1.321,1.321,1.321,1.321,1.321,1.321,1.9965,1.9901,1.9927,1.985,1.9798,1.9798,1.9798,1.9798,1.9748,1.9698,1.951,1.8643,1.8242,1.8204,1.8166,1.8105,1.8129,1.8078,1.7765,1.736,1.7322,1.7024,1.6563,1.6534,1.6513,1.65,1.6425,1.617,1.5756,1.5663,1.5361,1.489,1.4777,1.4456,1.4072,1.4009,1.3735,1.3223,1.3148,1.2877,1.2363,1.2325,1.2074,1.1615,1.1615,1.159,1.1527,1.15,1.1487,1.1437,1.1349,1.1362,1.1427,1.1377,1.1402,1.1502,1.1527,1.1659,1.1981,1.2637,1.3234,1.3771,1.3433,1.3486,1.3992,1.347,1.2872,1.2566,1.3149,1.3339,1.3133,1.3015,1.2952,1.2927,1.2964,1.3085,1.3073,1.311,1.3148,1.3185,1.321,1.321,1.321,1.321,1.321,1.321,1.321,1.321,1.321,1.321,1.321,1.321,1.321,1.321,1.321,1.321,1.321,1.321,1.321,1.321,1.321,1.321,1.321,1.321,1.321,1.321,1.321,1.321,1.321,1.321,1.321,1.321,1.321,1.321,1.321,1.9798,1.9798,1.9798,1.9798,1.9798,1.9798,1.9798,1.9798,1.9798,1.9798,1.9748,1.9334,1.9145,1.9133,1.8807,1.8694,1.8644,1.8331,1.8091,1.7877,1.7865,1.7586,1.7074,1.7024,1.6861,1.6513,1.6513,1.6387,1.6158,1.5844,1.5567,1.5361,1.506,1.479,1.4588,1.4563,1.4299,1.3765,1.3727,1.3446,1.2952,1.286,1.276,1.2576,1.2534,1.2375,1.2115,1.2077,1.2077,1.2052,1.1779,1.1738,1.2068,1.1791,1.1754,1.2052,1.2363,1.2603,1.2708,1.3014,1.3308,1.3552,1.3415,1.3451,1.3693,1.3391,1.3098,1.2981,1.3251,1.3391,1.3245,1.321,1.321,1.321,1.321,1.321,1.321,1.321,1.321,1.321,1.321,1.321,1.321,1.321,1.321,1.321,1.321,1.321,1.321,1.321,1.321,1.321,1.321,1.321,1.321,1.321,1.321,1.321,1.321,1.321,1.321,1.321,1.321,1.321,1.321,1.321,1.321,1.321,1.321,1.321,1.321,1.321,1.321,1.321,1.321,1.9798,1.9798,1.9798,1.9798,1.9798,1.9798,1.9798,1.9798,1.9798,1.9798,1.9798,1.9798,1.9798,1.9748,1.9371,1.9208,1.9158,1.8832,1.8555,1.8442,1.843,1.8129,1.7674,1.7601,1.7388,1.6989,1.6835,1.6672,1.6475,1.6132,1.5919,1.5856,1.5537,1.5261,1.5135,1.5123,1.4865,1.4362,1.433,1.4029,1.3534,1.3458,1.3378,1.3223,1.321,1.301,1.2667,1.2597,1.2613,1.2601,1.2253,1.22,1.2563,1.2253,1.2228,1.2588,1.2977,1.321,1.321,1.3318,1.3391,1.3391,1.3391,1.3391,1.3374,1.3271,1.329,1.3446,1.3315,1.3228,1.321,1.321,1.321,1.321,1.321,1.321,1.321,1.321,1.321,1.321,1.321,1.321,1.321,1.321,1.321,1.321,1.321,1.321,1.321,1.321,1.321,1.321,1.321,1.321,1.321,1.321,1.321,1.321,1.321,1.321,1.321,1.321,1.321,1.321,1.321,1.321,1.321,1.321,1.321,1.321,1.321,1.321,1.321,1.321,1.321,1.9798,1.9798,1.9798,1.9798,1.9798,1.9798,1.9798,1.9798,1.9798,1.9798,1.9798,1.9798,1.9798,1.9798,1.9736,1.9748,1.9736,1.9673,1.9409,1.8995,1.897,1.8682,1.8191,1.8166,1.8141,1.7953,1.7539,1.7074,1.6584,1.6488,1.6463,1.6437,1.6362,1.6158,1.5731,1.5643,1.5379,1.4941,1.4859,1.4601,1.4123,1.4047,1.379,1.3366,1.321,1.3173,1.3135,1.3148,1.3148,1.316,1.3102,1.311,1.3148,1.311,1.3085,1.3148,1.3185,1.321,1.325,1.3547,1.3785,1.3818,1.3752,1.3832,1.3793,1.3501,1.3521,1.4009,1.3604,1.3323,1.3311,1.3273,1.321,1.321,1.321,1.321,1.321,1.321,1.321,1.321,1.321,1.321,1.321,1.321,1.321,1.321,1.321,1.321,1.321,1.321,1.321,1.321,1.321,1.321,1.321,1.321,1.321,1.321,1.321,1.321,1.321,1.321,1.321,1.321,1.321,1.321,1.321,1.321,1.321,1.321,1.321,1.321,1.321,1.321,1.321,1.9798,1.9798,1.9798,1.9798,1.9798,1.9798,1.9798,1.9798,1.9798,1.9798,1.9798,1.9798,1.9798,1.9798,1.9798,1.9798,1.9798,1.9798,1.9698,1.9522,1.951,1.9221,1.8757,1.8694,1.853,1.8204,1.799,1.7614,1.7124,1.7061,1.6873,1.6538,1.6513,1.6375,1.6237,1.622,1.5944,1.5475,1.5412,1.5148,1.4664,1.4614,1.4513,1.4262,1.3566,1.321,1.321,1.321,1.321,1.321,1.321,1.321,1.321,1.321,1.321,1.321,1.321,1.321,1.3232,1.334,1.3459,1.3459,1.3459,1.3685,1.3906,1.3884,1.4004,1.4425,1.4444,1.4287,1.4136,1.3654,1.321,1.321,1.321,1.3223,1.321,1.321,1.321,1.321,1.321,1.321,1.321,1.321,1.321,1.321,1.321,1.3235,1.3223,1.321,1.3273,1.3223,1.321,1.321,1.321,1.321,1.321,1.321,1.321,1.321,1.321,1.321,1.321,1.321,1.321,1.321,1.321,1.321,1.321,1.321,1.321,1.321,1.321,1.321,1.321,1.9798,1.9798,1.9798,1.9798,1.9798,1.9798,1.9798,1.9798,1.9798,1.9798,1.9798,1.9798,1.9798,1.9798,1.9798,1.9798,1.9798,1.9798,1.9798,1.9798,1.9798,1.961,1.9321,1.9246,1.9058,1.8744,1.8543,1.8179,1.7737,1.7662,1.7373,1.6835,1.6798,1.6676,1.6538,1.6513,1.6274,1.6007,1.5936,1.568,1.5236,1.516,1.506,1.4821,1.4149,1.3742,1.3742,1.3742,1.3754,1.3729,1.3596,1.3403,1.3235,1.321,1.321,1.3223,1.3391,1.3509,1.3504,1.3659,1.3754,1.3754,1.3767,1.3948,1.433,1.4368,1.4626,1.4991,1.4979,1.4921,1.4934,1.4312,1.3754,1.3704,1.3591,1.3496,1.3496,1.3311,1.3223,1.321,1.321,1.321,1.321,1.321,1.3315,1.3446,1.3496,1.3516,1.3692,1.3742,1.3754,1.3729,1.3616,1.3584,1.3584,1.3639,1.3391,1.3341,1.3348,1.3311,1.3336,1.3311,1.3315,1.3261,1.3223,1.321,1.321,1.321,1.321,1.321,1.321,1.321,1.321,1.321,1.3265,1.9798,1.9798,1.9798,1.9798,1.9798,1.9798,1.9798,1.9798,1.9798,1.9798,1.9798,1.9798,1.9798,1.9798,1.9798,1.9798,1.9798,1.9798,1.9798,1.9798,1.9798,1.9798,1.9736,1.971,1.971,1.9623,1.9221,1.8719,1.8229,1.8191,1.7928,1.7476,1.7335,1.7049,1.6538,1.6538,1.6488,1.6437,1.6412,1.6195,1.5781,1.5693,1.5492,1.5072,1.4934,1.4896,1.4896,1.4833,1.4733,1.4733,1.4337,1.3828,1.3441,1.3378,1.3273,1.3441,1.3803,1.4078,1.4135,1.4525,1.4708,1.4708,1.4828,1.4758,1.4871,1.4909,1.5135,1.5517,1.5349,1.5185,1.555,1.5236,1.4846,1.4808,1.4343,1.411,1.3997,1.3584,1.3223,1.3278,1.3315,1.3235,1.3235,1.3403,1.3634,1.3966,1.4097,1.4223,1.4532,1.4607,1.4783,1.4708,1.4381,1.4092,1.4097,1.4091,1.3752,1.3491,1.3529,1.3541,1.3667,1.3692,1.3747,1.3709,1.3516,1.3491,1.3458,1.3416,1.3235,1.321,1.321,1.3235,1.3223,1.3248,1.3353,1.9798,1.9798,1.9798,1.9798,1.9798,1.9798,1.9798,1.9798,1.9798,1.9798,1.9798,1.9798,1.9798,1.9798,1.9798,1.9798,1.9798,1.9798,1.9798,1.9798,1.9798,1.9798,1.9798,1.9798,1.9798,1.9786,1.9648,1.9259,1.8832,1.8744,1.8469,1.799,1.7599,1.7322,1.7112,1.6735,1.6513,1.6513,1.6513,1.64,1.6271,1.6258,1.6158,1.6032,1.5994,1.6007,1.5957,1.5299,1.4909,1.4921,1.4752,1.4563,1.4387,1.435,1.4381,1.4406,1.4532,1.4651,1.4664,1.4815,1.4934,1.4909,1.4909,1.5097,1.5399,1.5442,1.568,1.617,1.6095,1.6095,1.6183,1.612,1.568,1.4991,1.4752,1.4651,1.4551,1.4142,1.3883,1.3815,1.3815,1.3815,1.3891,1.4054,1.4368,1.4569,1.4664,1.4758,1.4871,1.5009,1.4884,1.4846,1.4657,1.4664,1.4651,1.4664,1.4481,1.4212,1.4136,1.4011,1.4086,1.4124,1.4161,1.413,1.3923,1.381,1.3752,1.3647,1.3516,1.3353,1.3378,1.3336,1.3273,1.3411,1.3697,1.9798,1.9798,1.9798,1.9798,1.9798,1.9798,1.9798,1.9798,1.9798,1.9798,1.9798,1.9798,1.9798,1.9798,1.9798,1.9798,1.9798,1.9798,1.9798,1.9798,1.9798,1.9798,1.9798,1.9798,1.9798,1.9798,1.9798,1.9635,1.9309,1.9271,1.902,1.8481,1.8154,1.7877,1.7689,1.7325,1.7074,1.6886,1.6848,1.6713,1.655,1.6513,1.6513,1.65,1.65,1.6513,1.6437,1.5831,1.548,1.5462,1.5324,1.5185,1.5078,1.4959,1.4884,1.4921,1.5072,1.5185,1.5211,1.5424,1.55,1.55,1.55,1.5618,1.5932,1.5994,1.6195,1.6446,1.6475,1.6513,1.65,1.65,1.6149,1.5593,1.5324,1.5123,1.4941,1.4614,1.4425,1.4387,1.4387,1.4387,1.4488,1.4626,1.4997,1.5123,1.5198,1.5316,1.5379,1.5517,1.5467,1.5399,1.5299,1.5273,1.5211,1.5198,1.5198,1.5015,1.4864,1.4708,1.4632,1.462,1.4645,1.4595,1.4456,1.4406,1.4331,1.4205,1.4061,1.3842,1.3729,1.3961,1.4111,1.4174,1.4368,1.9899,1.9886,1.9861,1.9886,1.9886,1.9836,1.9798,1.9798,1.9798,1.9798,1.9798,1.9798,1.9798,1.9798,1.9798,1.9798,1.9798,1.9798,1.9798,1.9798,1.9798,1.9798,1.9798,1.9798,1.9798,1.9798,1.9798,1.9786,1.971,1.971,1.9534,1.907,1.8907,1.8732,1.8292,1.8216,1.7852,1.7476,1.7426,1.7187,1.6738,1.6688,1.6638,1.6626,1.6613,1.6588,1.6475,1.6375,1.64,1.64,1.5957,1.568,1.5447,1.5153,1.5097,1.5135,1.548,1.568,1.5844,1.6061,1.6337,1.6346,1.6346,1.65,1.6425,1.64,1.6412,1.6488,1.6513,1.6513,1.6513,1.6513,1.645,1.6412,1.5994,1.5567,1.5097,1.5016,1.4947,1.4947,1.4947,1.4934,1.4959,1.5054,1.5336,1.5593,1.5743,1.5932,1.6137,1.6224,1.6412,1.6237,1.5894,1.5831,1.5743,1.5764,1.5743,1.5693,1.5555,1.5417,1.5286,1.5273,1.5286,1.5211,1.5029,1.4979,1.4859,1.4708,1.4601,1.4494,1.4582,1.4833,1.4871,1.4821,1.4934,2.1041,2.1004,2.0641,2.0465,2.0402,1.9999,1.9811,1.9798,1.9798,1.9798,1.9798,1.9798,1.9798,1.9798,1.9798,1.9798,1.9798,1.9798,1.9798,1.9798,1.9798,1.9798,1.9798,1.9798,1.9798,1.9798,1.9798,1.9798,1.9798,1.9798,1.9723,1.9597,1.9196,1.897,1.877,1.8455,1.8166,1.8016,1.799,1.7928,1.7765,1.7714,1.7551,1.7174,1.7184,1.6936,1.6563,1.6513,1.6513,1.65,1.6375,1.6262,1.6162,1.6049,1.5982,1.6032,1.6158,1.6283,1.6308,1.64,1.65,1.6513,1.6513,1.6513,1.6513,1.6513,1.6513,1.6513,1.6513,1.6513,1.6513,1.6513,1.6513,1.6488,1.6325,1.6183,1.6007,1.5739,1.548,1.5512,1.55,1.548,1.5542,1.5781,1.6045,1.6187,1.6249,1.6274,1.645,1.6513,1.6513,1.6513,1.6312,1.63,1.6287,1.6296,1.6296,1.6296,1.6245,1.6162,1.6095,1.6082,1.612,1.6132,1.5676,1.55,1.5324,1.5141,1.511,1.5135,1.5085,1.5173,1.5148,1.5123,1.5399,2.1481,2.1455,2.1169,2.0905,2.0666,2.0327,2.0024,1.9836,1.9798,1.9798,1.9798,1.9798,1.9798,1.9798,1.9798,1.9798,1.9798,1.9798,1.9798,1.9798,1.9798,1.9798,1.9798,1.9798,1.9798,1.9798,1.9798,1.9798,1.9798,1.9798,1.9798,1.9748,1.9472,1.9359,1.9309,1.907,1.8744,1.8593,1.8519,1.8468,1.8229,1.8204,1.8066,1.7765,1.7714,1.7463,1.6974,1.6886,1.6785,1.6597,1.65,1.6513,1.6513,1.6513,1.6513,1.6513,1.6513,1.65,1.6513,1.6513,1.6513,1.6513,1.6513,1.6513,1.6513,1.6513,1.6513,1.6513,1.6513,1.6513,1.6513,1.6513,1.6513,1.65,1.6513,1.6513,1.6513,1.622,1.6049,1.6045,1.6045,1.6045,1.6045,1.6312,1.645,1.6488,1.645,1.6463,1.6513,1.6513,1.6513,1.6513,1.6513,1.645,1.6425,1.6412,1.6434,1.645,1.6463,1.65,1.6513,1.6513,1.6475,1.6375,1.617,1.5982,1.5806,1.5718,1.5806,1.5768,1.558,1.5555,1.563,1.5542,1.5819,2.1644,2.1656,2.1606,2.1307,2.0918,2.0729,2.0377,1.9962,1.9836,1.9798,1.9798,1.9798,1.9798,1.9798,1.9798,1.9798,1.9798,1.9798,1.9798,1.9798,1.9798,1.9798,1.9798,1.9798,1.9798,1.9823,1.9836,1.9936,1.9987,1.9949,1.9911,1.9911,1.9849,1.9773,1.9698,1.971,1.9522,1.9158,1.907,1.8907,1.8643,1.8555,1.848,1.8317,1.8129,1.7928,1.7576,1.7438,1.7262,1.6713,1.6588,1.6513,1.6513,1.6513,1.6513,1.6513,1.6513,1.6513,1.6513,1.6513,1.6513,1.6513,1.6513,1.6513,1.6513,1.6513,1.6513,1.6513,1.6513,1.6513,1.6513,1.6513,1.6513,1.6513,1.6513,1.6513,1.6513,1.6513,1.6513,1.6513,1.6488,1.65,1.6513,1.6513,1.6513,1.6513,1.6513,1.6513,1.6513,1.6513,1.6513,1.6513,1.6513,1.6513,1.65,1.65,1.6488,1.65,1.6488,1.6513,1.6513,1.6513,1.6513,1.6425,1.6308,1.6308,1.6312,1.6325,1.6337,1.63,1.6082,1.6224,1.6412,1.6187,1.6262,2.2744,2.2719,2.2322,2.2071,2.1832,2.1069,2.0629,2.0465,1.9987,1.9849,1.9798,1.9798,1.9798,1.9798,1.9798,1.9798,1.9798,1.9798,1.9798,1.9798,1.9798,1.9798,1.9798,1.9798,1.9798,1.9899,2.0288,2.0478,2.0478,2.0427,2.049,2.0427,1.9987,1.9798,1.9798,1.9798,1.9773,1.9648,1.961,1.9535,1.9422,1.9346,1.9196,1.8845,1.8456,1.8204,1.8078,1.8028,1.7965,1.7677,1.7074,1.6638,1.6588,1.6525,1.6513,1.6513,1.6513,1.6513,1.6513,1.6513,1.6513,1.6513,1.6563,1.6513,1.6513,1.6575,1.655,1.6513,1.6513,1.6563,1.6575,1.6525,1.6563,1.6588,1.6563,1.6538,1.6513,1.6513,1.6513,1.6513,1.6513,1.6513,1.6513,1.6513,1.6513,1.6513,1.6513,1.6513,1.6513,1.6513,1.6513,1.6513,1.6513,1.6513,1.6513,1.6513,1.6513,1.6513,1.6513,1.6513,1.6513,1.6513,1.6513,1.6513,1.6488,1.6513,1.6513,1.65,1.6437,1.6475,1.6513,1.6513,1.6513,1.6513,1.6513,2.3095,2.307,2.2794,2.2518,2.2234,2.1694,2.1169,2.0704,2.039,2.0049,1.9836,1.9798,1.9798,1.9798,1.9798,1.9798,1.9798,1.9798,1.9798,1.9798,1.9798,1.9798,1.9798,1.9798,1.9811,1.9886,2.0402,2.0666,2.0691,2.0691,2.0654,2.0641,2.0087,1.9823,1.9798,1.9798,1.9798,1.9786,1.9798,1.9798,1.9798,1.9798,1.9723,1.9434,1.9083,1.8857,1.8594,1.8569,1.8442,1.8105,1.7616,1.7174,1.6876,1.6672,1.6525,1.6513,1.6513,1.6513,1.6513,1.6513,1.6513,1.6538,1.6726,1.6886,1.7011,1.7137,1.7149,1.6999,1.6936,1.6923,1.6923,1.6923,1.6923,1.6923,1.6911,1.681,1.6575,1.6513,1.6513,1.6513,1.6513,1.6513,1.6513,1.6575,1.655,1.6575,1.6575,1.6575,1.6513,1.6513,1.6513,1.6513,1.6513,1.6513,1.6513,1.6513,1.6513,1.6513,1.6513,1.6513,1.6513,1.6513,1.6513,1.6513,1.6513,1.6513,1.6513,1.6513,1.6513,1.6513,1.6513,1.6513,1.6513,1.6513,1.6513,2.3095,2.3095,2.3095,2.2819,2.2431,2.2322,2.1707,2.0905,2.0729,2.0327,1.9874,1.9798,1.9798,1.9798,1.9798,1.9798,1.9798,1.9798,1.9798,1.9798,1.9798,1.9798,1.9798,1.9798,1.9811,1.9861,2.0415,2.0666,2.0691,2.0691,2.0691,2.0591,2.0087,1.9823,1.9798,1.9798,1.9798,1.9798,1.9798,1.9798,1.9798,1.9798,1.9773,1.9723,1.9673,1.9484,1.9183,1.9096,1.8933,1.8493,1.8356,1.8091,1.7652,1.7124,1.6751,1.6801,1.6901,1.6939,1.6964,1.6889,1.6864,1.6798,1.72,1.7476,1.7637,1.779,1.7802,1.7652,1.7501,1.7501,1.7536,1.7501,1.7438,1.7385,1.7373,1.7099,1.6663,1.6513,1.6513,1.6525,1.6663,1.6785,1.676,1.6785,1.6688,1.6651,1.6663,1.6688,1.6663,1.6713,1.6851,1.6876,1.6939,1.6886,1.6873,1.6861,1.6823,1.6901,1.6826,1.6789,1.6776,1.6835,1.6861,1.655,1.6513,1.655,1.6538,1.6513,1.6513,1.6513,1.6513,1.6513,1.6513,1.6513,1.655,2.3095,2.3095,2.3095,2.3045,2.2895,2.251,2.1958,2.137,2.0905,2.0365,1.9849,1.9798,1.9798,1.9798,1.9798,1.9798,1.9798,1.9798,1.9798,1.9798,1.9798,1.9798,1.9798,1.9798,1.9798,1.9962,2.0365,2.0616,2.0679,2.0691,2.0691,2.0566,2.0087,1.9811,1.9798,1.9798,1.9798,1.9798,1.9798,1.9798,1.9798,1.9798,1.9798,1.9798,1.9798,1.9736,1.9685,1.9648,1.9623,1.951,1.9083,1.8857,1.8607,1.8155,1.7892,1.7741,1.7739,1.7679,1.7691,1.7804,1.789,1.7917,1.8003,1.8053,1.8103,1.8179,1.8279,1.8141,1.8041,1.8041,1.8066,1.8003,1.7802,1.7564,1.7373,1.7172,1.6697,1.6513,1.6513,1.6525,1.681,1.7074,1.7011,1.7036,1.7124,1.7087,1.7049,1.7202,1.734,1.7463,1.7614,1.7589,1.7539,1.7413,1.7297,1.7275,1.73,1.7551,1.7564,1.7501,1.7463,1.7375,1.7237,1.7049,1.6789,1.6726,1.6676,1.6613,1.6525,1.6538,1.6525,1.6538,1.6538,1.6588,1.6798,2.3095,2.3095,2.3095,2.3095,2.3058,2.2832,2.2246,2.1518,2.1219,2.0602,1.9999,1.9798,1.9798,1.9798,1.9798,1.9798,1.9798,1.9798,1.9798,1.9798,1.9798,1.9798,1.9798,1.9798,1.9798,1.9874,2.01,2.044,2.0666,2.0691,2.0666,2.0553,2.0087,1.9798,1.9798,1.9798,1.9798,1.9798,1.9798,1.9798,1.9798,1.9798,1.9798,1.9798,1.9798,1.9798,1.9798,1.9798,1.9798,1.9736,1.9534,1.9434,1.9309,1.9121,1.8769,1.8355,1.8242,1.8216,1.8216,1.8204,1.8166,1.8216,1.8455,1.8607,1.8694,1.8832,1.8869,1.8643,1.8304,1.8342,1.8556,1.8368,1.8091,1.784,1.7564,1.7112,1.6697,1.6538,1.6513,1.6563,1.6961,1.7174,1.72,1.7287,1.7524,1.7536,1.7413,1.7614,1.7877,1.784,1.784,1.7664,1.7501,1.7476,1.7413,1.7539,1.7815,1.8129,1.8091,1.8041,1.8016,1.789,1.7777,1.7639,1.7378,1.7315,1.7049,1.7061,1.6835,1.6651,1.6861,1.6948,1.6713,1.6701,1.6948,2.3095,2.3095,2.3095,2.3095,2.3095,2.3095,2.2468,2.1631,2.1468,2.0828,1.9899,1.9798,1.9798,1.9798,1.9798,1.9798,1.9798,1.9798,1.9798,1.9798,1.9798,1.9798,1.9798,1.9798,1.9798,1.9811,1.9849,2.0037,2.0365,2.044,2.0503,2.0352,1.9962,1.9798,1.9798,1.9798,1.9798,1.9798,1.9798,1.9798,1.9798,1.9798,1.9798,1.9798,1.9798,1.9798,1.9798,1.9798,1.9798,1.9798,1.9773,1.9773,1.9786,1.9798,1.9397,1.8706,1.853,1.8518,1.8555,1.8593,1.8694,1.8719,1.8958,1.9108,1.9221,1.9409,1.9572,1.9183,1.8894,1.8756,1.902,1.8694,1.8367,1.8078,1.7677,1.7209,1.6735,1.6513,1.6513,1.6722,1.7134,1.7184,1.7061,1.7551,1.78,1.7626,1.7526,1.7714,1.7903,1.7639,1.7551,1.741,1.7322,1.7338,1.7438,1.7702,1.8166,1.8769,1.8518,1.8267,1.8329,1.8355,1.8267,1.8229,1.8518,1.8405,1.7989,1.7473,1.73,1.7237,1.7375,1.7413,1.7328,1.7177,1.7237,2.3095,2.3095,2.3095,2.3095,2.3095,2.3095,2.2468,2.1556,2.1481,2.084,1.9811,1.9798,1.9798,1.9798,1.9798,1.9798,1.9798,1.9798,1.9798,1.9798,1.9798,1.9798,1.9798,1.9798,1.9798,1.9798,1.9798,1.9823,2.0013,2.0025,1.9949,1.9911,1.9911,1.9798,1.9798,1.9798,1.9798,1.9798,1.9798,1.9798,1.9798,1.9798,1.9798,1.9798,1.9798,1.9798,1.9798,1.9798,1.9798,1.9798,1.9798,1.9798,1.9798,1.9798,1.9786,1.9648,1.9623,1.9572,1.951,1.9422,1.9409,1.9384,1.9597,1.9685,1.9673,1.9673,1.9748,1.9748,1.9535,1.9371,1.9284,1.9058,1.8682,1.8154,1.7589,1.7109,1.666,1.6513,1.6513,1.6622,1.6936,1.6848,1.6735,1.7438,1.799,1.779,1.7677,1.7802,1.7865,1.7589,1.7275,1.7112,1.7099,1.7149,1.7501,1.7752,1.8304,1.912,1.8894,1.8518,1.8631,1.8731,1.8832,1.8882,1.9171,1.892,1.8089,1.7674,1.7712,1.7788,1.784,1.7965,1.8078,1.7877,1.7564,2.3095,2.3095,2.3095,2.3095,2.3095,2.3095,2.2481,2.1644,2.1468,2.0853,1.9949,1.9798,1.9798,1.9798,1.9798,1.9798,1.9798,1.9798,1.9798,1.9798,1.9798,1.9798,1.9798,1.9798,1.9798,1.9798,1.9798,1.9798,1.9798,1.9798,1.9798,1.9798,1.9798,1.9798,1.9798,1.9798,1.9798,1.9798,1.9798,1.9798,1.9798,1.9798,1.9798,1.9798,1.9798,1.9798,1.9798,1.9798,1.9798,1.9798,1.9798,1.9798,1.9798,1.9798,1.9798,1.9786,1.9786,1.9773,1.9773,1.9798,1.9798,1.9798,1.9798,1.9773,1.9798,1.9773,1.9597,1.9346,1.9359,1.9246,1.892,1.8405,1.8078,1.7687,1.7313,1.6986,1.6635,1.6563,1.6525,1.6647,1.671,1.6635,1.6647,1.7124,1.7576,1.7476,1.7287,1.7262,1.7451,1.7513,1.7174,1.6814,1.6886,1.6974,1.7438,1.7827,1.8292,1.8894,1.8995,1.877,1.8957,1.907,1.8907,1.9007,1.9196,1.8744,1.8026,1.8116,1.838,1.8367,1.8292,1.838,1.8406,1.8129,1.7752,2.3095,2.3095,2.3095,2.3095,2.3095,2.3095,2.2569,2.1744,2.1543,2.0928,2.0175,1.9886,1.9798,1.9798,1.9798,1.9798,1.9798,1.9798,1.9798,1.9798,1.9798,1.9798,1.9798,1.9798,1.9798,1.9798,1.9798,1.9798,1.9798,1.9798,1.9798,1.9798,1.9798,1.9798,1.9798,1.9798,1.9798,1.9798,1.9798,1.9798,1.9798,1.9798,1.9798,1.9798,1.9798,1.9798,1.9798,1.9798,1.9798,1.9798,1.9798,1.9798,1.9798,1.9798,1.9798,1.9798,1.9798,1.9798,1.9798,1.9798,1.9798,1.9798,1.9798,1.9798,1.9773,1.9723,1.9484,1.9083,1.8845,1.8594,1.8229,1.7777,1.7586,1.7313,1.6936,1.6697,1.6513,1.6513,1.6513,1.655,1.6609,1.6563,1.6638,1.6911,1.7087,1.7087,1.6961,1.681,1.6961,1.7212,1.7024,1.6651,1.6676,1.6839,1.7325,1.7827,1.8317,1.8568,1.8669,1.8744,1.8744,1.8606,1.838,1.8631,1.897,1.8719,1.8066,1.8593,1.9058,1.8857,1.8707,1.8719,1.8657,1.8329,1.7777,2.3095,2.3095,2.3095,2.3095,2.3095,2.3095,2.2757,2.2071,2.1669,2.1117,2.044,2.0062,1.9798,1.9798,1.9798,1.9798,1.9798,1.9798,1.9798,1.9798,1.9798,1.9798,1.9798,1.9798,1.9798,1.9798,1.9798,1.9798,1.9798,1.9798,1.9798,1.9798,1.9798,1.9798,1.9798,1.9798,1.9798,1.9798,1.9798,1.9798,1.9798,1.9798,1.9798,1.9798,1.9798,1.9798,1.9798,1.9798,1.9798,1.9798,1.9798,1.9798,1.9798,1.9798,1.9798,1.9798,1.9798,1.9798,1.9798,1.9798,1.9798,1.9798,1.9798,1.9761,1.966,1.9271,1.9058,1.8845,1.8442,1.818,1.7953,1.7739,1.731,1.7087,1.6798,1.6626,1.6513,1.6513,1.6513,1.6513,1.6513,1.6513,1.6513,1.676,1.681,1.681,1.6798,1.6638,1.6613,1.6798,1.6713,1.6538,1.6538,1.6773,1.7212,1.7626,1.7903,1.799,1.8066,1.8154,1.8204,1.8028,1.7915,1.8016,1.8267,1.8216,1.8304,1.8631,1.8882,1.907,1.9045,1.8744,1.8406,1.8016,1.7426,2.3095,2.3095,2.3095,2.3095,2.3095,2.3095,2.2623,2.187,2.1568,2.0981,2.0137,1.9911,1.9798,1.9798,1.9798,1.9798,1.9798,1.9798,1.9798,1.9798,1.9798,1.9798,1.9798,1.9798,1.9798,1.9798,1.9798,1.9798,1.9798,1.9798,1.9798,1.9798,1.9798,1.9798,1.9798,1.9798,1.9798,1.9798,1.9798,1.9798,1.9798,1.9798,1.9798,1.9798,1.9798,1.9798,1.9798,1.9798,1.9798,1.9798,1.9798,1.9798,1.9798,1.9798,1.9798,1.9798,1.9798,1.9798,1.9798,1.9798,1.9798,1.9798,1.9786,1.9647,1.9409,1.907,1.8593,1.8229,1.7888,1.7639,1.7174,1.6986,1.6798,1.6785,1.6773,1.6663,1.6663,1.6751,1.6638,1.6701,1.6588,1.6513,1.6513,1.6525,1.6538,1.6538,1.6513,1.6513,1.6513,1.6513,1.6513,1.6513,1.6513,1.6513,1.6923,1.7187,1.7461,1.7486,1.7498,1.7564,1.7652,1.7664,1.7576,1.7614,1.7664,1.7777,1.8028,1.843,1.8643,1.8706,1.8618,1.8405,1.8053,1.7689,1.7162,2.3095,2.3095,2.3095,2.3095,2.3095,2.3095,2.2581,2.182,2.1556,2.0853,1.9823,1.9798,1.9798,1.9798,1.9798,1.9798,1.9798,1.9798,1.9798,1.9798,1.9798,1.9798,1.9798,1.9798,1.9798,1.9798,1.9798,1.9798,1.9798,1.9798,1.9798,1.9798,1.9798,1.9798,1.9798,1.9798,1.9798,1.9798,1.9798,1.9798,1.9798,1.9798,1.9798,1.9798,1.9798,1.9798,1.9798,1.9798,1.9798,1.9798,1.9798,1.9798,1.9798,1.9798,1.9798,1.9798,1.9798,1.9798,1.9798,1.9798,1.9798,1.9798,1.9585,1.9346,1.9083,1.8744,1.8041,1.7637,1.731,1.7024,1.6697,1.6911,1.7149,1.73,1.7375,1.7325,1.7277,1.7303,1.7087,1.6936,1.6835,1.6798,1.6538,1.655,1.6575,1.655,1.6513,1.6513,1.6513,1.6513,1.6513,1.6513,1.6513,1.6513,1.655,1.6823,1.7024,1.6999,1.7011,1.7049,1.7112,1.7162,1.7124,1.7036,1.7114,1.7388,1.7513,1.7614,1.7903,1.8216,1.8066,1.789,1.7702,1.7338,1.7011,2.3095,2.3095,2.3095,2.3095,2.3095,2.3095,2.2744,2.2058,2.1543,2.0778,1.9861,1.9798,1.9798,1.9798,1.9798,1.9861,1.9936,1.9911,1.9949,2.0049,2.0012,1.9899,1.9886,1.9924,1.9861,1.9823,1.9811,1.9798,1.9798,1.9936,1.9899,1.9899,1.9987,1.9874,1.9823,1.9798,1.9798,1.9798,1.9798,1.9798,1.9798,1.9798,1.9798,1.9798,1.9798,1.9798,1.9798,1.9798,1.9798,1.9798,1.9798,1.9798,1.9798,1.9798,1.9798,1.9798,1.9798,1.9798,1.9798,1.9798,1.9798,1.9773,1.9547,1.9208,1.8845,1.8255,1.7739,1.7637,1.72,1.7087,1.7149,1.7423,1.7639,1.7777,1.7852,1.7877,1.7817,1.7867,1.7664,1.7426,1.7313,1.72,1.6835,1.66,1.6638,1.6613,1.6538,1.6513,1.6513,1.6513,1.6513,1.6513,1.6513,1.6513,1.6513,1.6513,1.6588,1.655,1.66,1.6722,1.6735,1.6773,1.6663,1.6513,1.6651,1.6951,1.6789,1.6613,1.7089,1.7551,1.7488,1.736,1.7209,1.7036,1.676,2.3095,2.3095,2.3095,2.3095,2.3095,2.3095,2.2594,2.1707,2.0815,2.015,1.9861,1.9798,1.9798,1.9798,1.9874,2.0024,2.0365,2.0427,2.049,2.0828,2.0539,2.0717,2.0654,2.0263,2.0062,2.0175,2.0113,1.9886,1.9798,2.0162,2.0363,2.0402,2.0365,2.015,1.9911,1.9798,1.9798,1.9798,1.9798,1.9798,1.9798,1.9798,1.9798,1.9798,1.9798,1.9798,1.9798,1.9798,1.9798,1.9798,1.9798,1.9798,1.9798,1.9798,1.9798,1.9798,1.9798,1.9798,1.9798,1.9798,1.9798,1.9723,1.9585,1.9271,1.897,1.8732,1.8342,1.7978,1.7652,1.7664,1.789,1.7928,1.8078,1.8129,1.8179,1.8229,1.8242,1.8356,1.8306,1.8066,1.789,1.784,1.7589,1.7275,1.7212,1.7024,1.6961,1.6613,1.6525,1.6513,1.6513,1.6513,1.6513,1.6513,1.6513,1.6513,1.6513,1.6525,1.6525,1.6563,1.6538,1.6513,1.6513,1.6513,1.6513,1.6513,1.6513,1.6525,1.6626,1.6835,1.6923,1.6948,1.6861,1.6773,1.6613,2.3095,2.3095,2.3095,2.3095,2.307,2.2907,2.2192,2.1182,2.0251,1.9798,1.9798,1.9798,1.9949,2.0075,2.015,2.0401,2.0943,2.0993,2.1056,2.143,2.1169,2.1182,2.1066,2.0815,2.0752,2.0792,2.0666,2.0426,2.0501,2.0805,2.0943,2.0981,2.0968,2.0817,2.0439,2.0175,1.9798,1.9798,1.9798,1.9798,1.9798,1.9798,1.9798,1.9798,1.9798,1.9798,1.9798,1.9798,1.9798,1.9798,1.9798,1.9798,1.9798,1.9798,1.9798,1.9798,1.9798,1.9798,1.9798,1.9798,1.9798,1.9786,1.966,1.9359,1.9008,1.8707,1.8469,1.8254,1.8254,1.8343,1.8418,1.8431,1.8568,1.8631,1.8781,1.8832,1.8869,1.902,1.8882,1.8643,1.848,1.843,1.8304,1.8116,1.789,1.7639,1.7375,1.7024,1.6638,1.6588,1.6588,1.6575,1.6538,1.6513,1.6513,1.6513,1.6513,1.6513,1.6513,1.6513,1.6513,1.6513,1.6513,1.6513,1.6513,1.6513,1.6513,1.655,1.66,1.66,1.6613,1.6588,1.6513,1.6513,1.6513,2.3095,2.3095,2.3095,2.3095,2.3007,2.2518,2.1681,2.0691,2.0075,1.9798,1.9798,1.9798,2.0062,2.0566,2.0654,2.0993,2.143,2.1506,2.1631,2.1631,2.1606,2.1644,2.1606,2.1443,2.1343,2.1446,2.137,2.1104,2.1405,2.1481,2.1506,2.1518,2.1506,2.1355,2.1016,2.0577,2.0162,2.0188,2.0037,2.0037,2.0012,1.9849,1.9811,1.9798,1.9798,1.9798,1.9798,1.9798,1.9798,1.9798,1.9798,1.9798,1.9798,1.9798,1.9798,1.9798,1.9798,1.9798,1.9798,1.9798,1.9798,1.9748,1.9434,1.9133,1.9008,1.8882,1.8756,1.8619,1.8594,1.877,1.8907,1.9045,1.9171,1.9371,1.9572,1.9623,1.9623,1.9585,1.9422,1.9246,1.907,1.892,1.8681,1.8505,1.853,1.8279,1.8003,1.7616,1.7227,1.6776,1.6763,1.6722,1.6638,1.6525,1.6513,1.6525,1.6513,1.6513,1.6513,1.6513,1.6513,1.6538,1.6513,1.6513,1.6513,1.6513,1.6513,1.6513,1.6525,1.6513,1.6525,1.6513,1.6513,1.6513,1.6513,2.3095,2.3095,2.3095,2.3095,2.2957,2.2133,2.1345,2.0666,2.0088,1.9798,1.9798,1.9798,2.0151,2.0666,2.0691,2.1282,2.1757,2.2133,2.2385,2.2372,2.2209,2.2372,2.2259,2.197,2.1857,2.1832,2.1769,2.1631,2.1631,2.1832,2.2071,2.2083,2.2071,2.1882,2.1568,2.1167,2.1066,2.0878,2.0639,2.0465,2.0263,2.0075,1.9962,1.9886,1.9823,1.9811,1.9798,1.9798,1.9798,1.9798,1.9798,1.9798,1.9798,1.9798,1.9798,1.9798,1.9798,1.9798,1.9798,1.9798,1.9798,1.9798,1.9623,1.9623,1.9522,1.9359,1.9208,1.9133,1.9108,1.9284,1.9359,1.9472,1.9547,1.966,1.9798,1.9798,1.9798,1.9761,1.961,1.9585,1.9447,1.9384,1.912,1.9158,1.9158,1.892,1.8619,1.8281,1.7854,1.7403,1.7137,1.7099,1.6835,1.6713,1.6588,1.6563,1.6538,1.6513,1.6638,1.6726,1.6713,1.6713,1.6575,1.6626,1.6814,1.6701,1.6513,1.66,1.6864,1.66,1.6563,1.6538,1.6513,1.655,1.66,2.3095,2.3095,2.3095,2.2869,2.2397,2.1769,2.1094,2.0363,1.9949,1.9798,1.9798,1.9798,2.0151,2.0679,2.0968,2.1496,2.2234,2.2518,2.2769,2.2807,2.2744,2.2819,2.2681,2.2493,2.2431,2.2368,2.2359,2.2284,2.2184,2.2372,2.2636,2.2636,2.2636,2.2406,2.2217,2.2171,2.2171,2.1857,2.1493,2.1131,2.0805,2.0451,2.0264,2.01,2.0012,1.9836,1.9823,1.9823,1.9798,1.9798,1.9798,1.9798,1.9798,1.9798,1.9798,1.9798,1.9798,1.9798,1.9798,1.9798,1.9798,1.9798,1.9798,1.9773,1.9773,1.966,1.966,1.9648,1.971,1.9773,1.9786,1.9798,1.9786,1.9798,1.9798,1.9798,1.9798,1.9798,1.9786,1.9786,1.9761,1.9761,1.9748,1.9798,1.9748,1.9472,1.9321,1.9146,1.8681,1.8141,1.784,1.7689,1.7287,1.6961,1.6861,1.6848,1.6911,1.7061,1.7303,1.7315,1.7127,1.7177,1.7303,1.729,1.7265,1.7165,1.7114,1.7202,1.7363,1.7124,1.7049,1.7202,1.7077,1.6726,1.6763,2.3095,2.3095,2.3095,2.2506,2.1568,2.1481,2.0865,1.9849,1.9811,1.9798,1.9798,1.9798,2.0151,2.0691,2.1169,2.1722,2.2322,2.2744,2.297,2.3095,2.302,2.3058,2.3058,2.307,2.2869,2.3007,2.3007,2.2769,2.297,2.2995,2.2957,2.3095,2.3045,2.2907,2.2844,2.2832,2.2782,2.2644,2.2171,2.1707,2.143,2.1119,2.0754,2.0666,2.0288,1.9911,1.9899,1.9861,1.9798,1.9798,1.9798,1.9798,1.9798,1.9798,1.9798,1.9798,1.9798,1.9798,1.9798,1.9798,1.9798,1.9798,1.9798,1.9798,1.9798,1.9798,1.9798,1.9798,1.9798,1.9798,1.9798,1.9798,1.9798,1.9798,1.9798,1.9798,1.9798,1.9798,1.9798,1.9798,1.9798,1.9798,1.9798,1.9798,1.9798,1.9748,1.971,1.966,1.9409,1.8807,1.8518,1.8267,1.7815,1.7451,1.7438,1.7426,1.7438,1.7614,1.7865,1.7892,1.7691,1.7854,1.8154,1.794,1.7691,1.7915,1.7965,1.7903,1.784,1.7852,1.7852,1.8053,1.7792,1.7277,1.7177,2.3095,2.3095,2.3095,2.2468,2.1543,2.1481,2.0853,1.9823,1.9798,1.9798,1.9798,1.9836,2.0087,2.0654,2.1257,2.1782,2.2284,2.2794,2.3045,2.3095,2.3095,2.3095,2.3095,2.3095,2.3095,2.3095,2.3095,2.3095,2.3095,2.3095,2.3095,2.3095,2.3095,2.3095,2.3095,2.3095,2.3083,2.3058,2.2807,2.2359,2.2071,2.1644,2.128,2.1117,2.0817,2.0515,2.039,2.0062,1.9911,1.9798,1.9798,1.9798,1.9798,1.9798,1.9798,1.9798,1.9798,1.9798,1.9798,1.9798,1.9798,1.9798,1.9798,1.9798,1.9798,1.9798,1.9798,1.9798,1.9798,1.9798,1.9798,1.9798,1.9798,1.9798,1.9798,1.9798,1.9798,1.9798,1.9798,1.9798,1.9798,1.9798,1.9798,1.9798,1.9798,1.9798,1.9786,1.9761,1.9748,1.9384,1.912,1.8819,1.8342,1.8053,1.8016,1.8003,1.8016,1.8053,1.8254,1.8267,1.8279,1.843,1.8568,1.8304,1.8141,1.8405,1.8468,1.8216,1.8191,1.8405,1.8455,1.8568,1.8455,1.8028,1.7965,2.3095,2.3095,2.3095,2.2498,2.1606,2.1481,2.084,1.9936,1.9798,1.9798,1.9798,1.9823,1.9999,2.0478,2.1131,2.1594,2.2096,2.2769,2.302,2.3095,2.3095,2.3095,2.3095,2.3095,2.3095,2.3095,2.3095,2.3095,2.3095,2.3095,2.3095,2.3095,2.3095,2.3095,2.3095,2.3095,2.3095,2.3095,2.3095,2.2907,2.2569,2.2184,2.187,2.1694,2.1421,2.1131,2.0981,2.069,2.0627,2.0439,2.0388,1.9999,1.9911,1.9798,1.9798,1.9798,1.9798,1.9798,1.9798,1.9824,1.985,1.9875,1.9824,1.9824,1.9798,1.9798,1.9798,1.9798,1.9798,1.9798,1.9798,1.9798,1.9798,1.9798,1.9798,1.9798,1.9798,1.9798,1.9798,1.9798,1.9798,1.9798,1.9798,1.9798,1.9798,1.9798,1.9798,1.9798,1.9798,1.9798,1.9585,1.9334,1.8857,1.8594,1.8556,1.8544,1.8544,1.8607,1.8681,1.8894,1.9045,1.8995,1.8945,1.8832,1.8832,1.9007,1.897,1.8756,1.8869,1.9133,1.9095,1.902,1.8869,1.8781,1.8794,2.3095,2.3095,2.302,2.2406,2.1556,2.1393,2.0778,1.9911,1.9798,1.9798,1.9798,1.9798,1.9798,2.0175,2.0928,2.128,2.1832,2.2694,2.302,2.3095,2.3095,2.3095,2.3095,2.3095,2.3095,2.3095,2.3095,2.3095,2.3095,2.3095,2.3095,2.3095,2.3095,2.3095,2.3095,2.3095,2.3095,2.3095,2.3095,2.3095,2.2882,2.2656,2.2468,2.2234,2.192,2.1619,2.1581,2.1493,2.1481,2.132,2.0981,2.0577,2.0225,2.0087,2.0024,2.005,2.008,1.9978,1.9875,1.9978,1.9978,1.9978,1.9939,1.9927,1.9978,2.0067,2.0067,1.9952,1.9952,1.9824,1.9824,1.9798,1.9798,1.9798,1.9798,1.9798,1.9798,1.9798,1.9798,1.9798,1.9798,1.9798,1.9798,1.9798,1.9798,1.9798,1.9798,1.9798,1.9798,1.9798,1.971,1.9585,1.9334,1.9171,1.9096,1.9058,1.9045,1.9133,1.9246,1.9572,1.9736,1.951,1.9447,1.9585,1.9623,1.9522,1.956,1.9459,1.9635,1.966,1.9547,1.9397,1.9434,1.9384,1.956,2.3095,2.3058,2.2661,2.2083,2.1509,2.1056,2.0453,1.9874,1.9798,1.9798,1.9811,1.9811,1.9798,1.9874,2.0978,2.1518,2.1794,2.2644,2.3007,2.3095,2.3095,2.3095,2.3095,2.3095,2.3095,2.3095,2.3095,2.3095,2.3095,2.3095,2.3095,2.3095,2.3095,2.3095,2.3095,2.3095,2.3095,2.3095,2.3095,2.3095,2.3095,2.297,2.2982,2.2732,2.2447,2.2246,2.2058,2.1694,2.1543,2.1443,2.1448,2.1159,2.099,2.0751,2.0676,2.072,2.0719,2.0449,2.0398,2.0384,2.0396,2.0459,2.0485,2.0584,2.072,2.1026,2.0892,2.0522,2.0371,1.9927,1.985,1.9824,1.9798,1.9798,1.9798,1.9798,1.9798,1.9798,1.9798,1.9798,1.9798,1.9798,1.9798,1.9798,1.9798,1.9798,1.9798,1.9798,1.9798,1.9798,1.9798,1.9723,1.9648,1.9698,1.9648,1.9547,1.9535,1.9635,1.9685,1.9761,1.9798,1.9798,1.9798,1.9798,1.9798,1.971,1.9786,1.9798,1.9786,1.9748,1.9761,1.9736,1.9798,1.9798,1.9798]}]]